Wetterdaten: Samstag, 04.06.2016
Datum Zeit Temp. A. Feuchte A. Luftdruck Regen Wind Richtung Richtung Sonnenschein ET UV Solar Taupunkt Windchill Windben Empfang
04.06.2016 00:00 15,0 C 90 % 1009,3 hPa 0,0 l/m 1,9 km/h (1 Bft) S 171 0 min 0,000 mm 0,0 UV-I 0 W/m 13,4 C 15,0 C 3,2 km/h (1 Bft) 95,83 %
04.06.2016 00:02 14,9 C 90 % 1009,3 hPa 0,0 l/m 3,1 km/h (1 Bft) S 171 0 min 0,000 mm 0,0 UV-I 0 W/m 13,3 C 14,9 C 6,4 km/h (2 Bft) 95,56 %
04.06.2016 00:03 15,0 C 90 % 1009,3 hPa 0,0 l/m 3,3 km/h (1 Bft) S 171 0 min 0,000 mm 0,0 UV-I 0 W/m 13,4 C 15,0 C 6,4 km/h (2 Bft) 100,00 %
04.06.2016 00:04 15,0 C 90 % 1009,3 hPa 0,0 l/m 2,6 km/h (1 Bft) S 171 0 min 0,000 mm 0,0 UV-I 0 W/m 13,4 C 15,0 C 3,2 km/h (1 Bft) 92,31 %
04.06.2016 00:05 15,0 C 90 % 1009,3 hPa 0,0 l/m 2,9 km/h (1 Bft) S 171 0 min 0,000 mm 0,0 UV-I 0 W/m 13,4 C 15,0 C 6,4 km/h (2 Bft) 100,00 %
04.06.2016 00:06 15,0 C 90 % 1009,4 hPa 0,0 l/m 3,9 km/h (1 Bft) S 171 0 min 0,000 mm 0,0 UV-I 0 W/m 13,4 C 15,0 C 6,4 km/h (2 Bft) 100,00 %
04.06.2016 00:07 14,9 C 90 % 1009,4 hPa 0,0 l/m 2,6 km/h (1 Bft) S 171 0 min 0,000 mm 0,0 UV-I 0 W/m 13,3 C 14,9 C 3,2 km/h (1 Bft) 95,83 %
04.06.2016 00:08 14,9 C 90 % 1009,4 hPa 0,0 l/m 4,5 km/h (1 Bft) S 171 0 min 0,000 mm 0,0 UV-I 0 W/m 13,3 C 14,9 C 6,4 km/h (2 Bft) 95,65 %
04.06.2016 00:09 14,9 C 90 % 1009,3 hPa 0,0 l/m 2,4 km/h (1 Bft) S 171 0 min 0,000 mm 0,0 UV-I 0 W/m 13,3 C 14,9 C 6,4 km/h (2 Bft) 96,30 %
04.06.2016 00:10 14,9 C 90 % 1009,3 hPa 0,0 l/m 3,6 km/h (1 Bft) S 171 0 min 0,000 mm 0,0 UV-I 0 W/m 13,3 C 14,9 C 6,4 km/h (2 Bft) 100,00 %
04.06.2016 00:11 14,9 C 90 % 1009,3 hPa 0,0 l/m 2,5 km/h (1 Bft) S 171 0 min 0,000 mm 0,0 UV-I 0 W/m 13,3 C 14,9 C 6,4 km/h (2 Bft) 100,00 %
04.06.2016 00:12 14,9 C 90 % 1009,3 hPa 0,0 l/m 2,8 km/h (1 Bft) S 171 0 min 0,000 mm 0,0 UV-I 0 W/m 13,3 C 14,9 C 6,4 km/h (2 Bft) 100,00 %
04.06.2016 00:13 14,9 C 90 % 1009,3 hPa 0,0 l/m 3,6 km/h (1 Bft) S 171 0 min 0,000 mm 0,0 UV-I 0 W/m 13,3 C 14,9 C 6,4 km/h (2 Bft) 100,00 %
04.06.2016 00:14 14,8 C 90 % 1009,3 hPa 0,0 l/m 3,5 km/h (1 Bft) S 171 0 min 0,000 mm 0,0 UV-I 0 W/m 13,2 C 14,8 C 6,4 km/h (2 Bft) 95,65 %
04.06.2016 00:15 14,8 C 90 % 1009,3 hPa 0,0 l/m 3,8 km/h (1 Bft) S 172 0 min 0,000 mm 0,0 UV-I 0 W/m 13,2 C 14,8 C 8,0 km/h (2 Bft) 100,00 %
04.06.2016 00:16 14,8 C 90 % 1009,3 hPa 0,0 l/m 6,3 km/h (2 Bft) S 170 0 min 0,000 mm 0,0 UV-I 0 W/m 13,2 C 14,8 C 9,7 km/h (2 Bft) 100,00 %
04.06.2016 00:17 14,8 C 90 % 1009,3 hPa 0,0 l/m 3,6 km/h (1 Bft) S 172 0 min 0,000 mm 0,0 UV-I 0 W/m 13,2 C 14,8 C 8,0 km/h (2 Bft) 100,00 %
04.06.2016 00:18 14,8 C 90 % 1009,3 hPa 0,0 l/m 3,8 km/h (1 Bft) S 172 0 min 0,000 mm 0,0 UV-I 0 W/m 13,2 C 14,8 C 4,8 km/h (1 Bft) 91,30 %
04.06.2016 00:19 14,8 C 90 % 1009,3 hPa 0,0 l/m 5,4 km/h (1 Bft) S 171 0 min 0,000 mm 0,0 UV-I 0 W/m 13,2 C 14,8 C 6,4 km/h (2 Bft) 100,00 %
04.06.2016 00:20 14,8 C 90 % 1009,3 hPa 0,0 l/m 4,9 km/h (1 Bft) S-SO 168 0 min 0,000 mm 0,0 UV-I 0 W/m 13,2 C 14,8 C 8,0 km/h (2 Bft) 95,65 %
04.06.2016 00:21 14,7 C 90 % 1009,3 hPa 0,0 l/m 3,0 km/h (1 Bft) S-SO 168 0 min 0,000 mm 0,0 UV-I 0 W/m 13,1 C 14,7 C 6,4 km/h (2 Bft) 100,00 %
04.06.2016 00:22 14,7 C 91 % 1009,3 hPa 0,0 l/m 2,9 km/h (1 Bft) S-SO 168 0 min 0,000 mm 0,0 UV-I 0 W/m 13,2 C 14,7 C 6,4 km/h (2 Bft) 100,00 %
04.06.2016 00:23 14,7 C 90 % 1009,3 hPa 0,0 l/m 2,0 km/h (1 Bft) S-SO 168 0 min 0,000 mm 0,0 UV-I 0 W/m 13,1 C 14,7 C 3,2 km/h (1 Bft) 95,83 %
04.06.2016 00:24 14,7 C 90 % 1009,3 hPa 0,0 l/m 2,0 km/h (1 Bft) S-SO 168 0 min 0,000 mm 0,0 UV-I 0 W/m 13,1 C 14,7 C 3,2 km/h (1 Bft) 100,00 %
04.06.2016 00:25 14,7 C 90 % 1009,3 hPa 0,0 l/m 2,4 km/h (1 Bft) S-SO 168 0 min 0,000 mm 0,0 UV-I 0 W/m 13,1 C 14,7 C 3,2 km/h (1 Bft) 95,83 %
04.06.2016 00:26 14,7 C 90 % 1009,3 hPa 0,0 l/m 2,1 km/h (1 Bft) S-SO 168 0 min 0,000 mm 0,0 UV-I 0 W/m 13,1 C 14,7 C 3,2 km/h (1 Bft) 100,00 %
04.06.2016 00:27 14,7 C 90 % 1009,4 hPa 0,0 l/m 2,3 km/h (1 Bft) S-SO 168 0 min 0,000 mm 0,0 UV-I 0 W/m 13,1 C 14,7 C 3,2 km/h (1 Bft) 100,00 %
04.06.2016 00:28 14,7 C 90 % 1009,3 hPa 0,0 l/m 3,3 km/h (1 Bft) S-SO 168 0 min 0,000 mm 0,0 UV-I 0 W/m 13,1 C 14,7 C 6,4 km/h (2 Bft) 100,00 %
04.06.2016 00:29 14,7 C 90 % 1009,4 hPa 0,0 l/m 3,2 km/h (1 Bft) S-SO 168 0 min 0,000 mm 0,0 UV-I 0 W/m 13,1 C 14,7 C 6,4 km/h (2 Bft) 100,00 %
04.06.2016 00:30 14,7 C 90 % 1009,4 hPa 0,0 l/m 5,5 km/h (1 Bft) S-SO 167 0 min 0,000 mm 0,0 UV-I 0 W/m 13,1 C 14,7 C 8,0 km/h (2 Bft) 100,00 %
04.06.2016 00:31 14,7 C 90 % 1009,4 hPa 0,0 l/m 4,7 km/h (1 Bft) S 172 0 min 0,000 mm 0,0 UV-I 0 W/m 13,1 C 14,7 C 6,4 km/h (2 Bft) 100,00 %
04.06.2016 00:32 14,7 C 90 % 1009,4 hPa 0,0 l/m 3,0 km/h (1 Bft) S 173 0 min 0,000 mm 0,0 UV-I 0 W/m 13,1 C 14,7 C 4,8 km/h (1 Bft) 100,00 %
04.06.2016 00:33 14,7 C 90 % 1009,3 hPa 0,0 l/m 3,8 km/h (1 Bft) S 175 0 min 0,000 mm 0,0 UV-I 0 W/m 13,1 C 14,7 C 4,8 km/h (1 Bft) 100,00 %
04.06.2016 00:34 14,7 C 90 % 1009,3 hPa 0,0 l/m 4,3 km/h (1 Bft) S 175 0 min 0,000 mm 0,0 UV-I 0 W/m 13,1 C 14,7 C 8,0 km/h (2 Bft) 100,00 %
04.06.2016 00:35 14,7 C 91 % 1009,4 hPa 0,0 l/m 3,4 km/h (1 Bft) S 175 0 min 0,000 mm 0,0 UV-I 0 W/m 13,2 C 14,7 C 4,8 km/h (1 Bft) 96,15 %
04.06.2016 00:36 14,7 C 90 % 1009,3 hPa 0,0 l/m 3,8 km/h (1 Bft) S 175 0 min 0,000 mm 0,0 UV-I 0 W/m 13,1 C 14,7 C 4,8 km/h (1 Bft) 100,00 %
04.06.2016 00:37 14,7 C 90 % 1009,4 hPa 0,0 l/m 4,0 km/h (1 Bft) S 175 0 min 0,000 mm 0,0 UV-I 0 W/m 13,1 C 14,7 C 6,4 km/h (2 Bft) 100,00 %
04.06.2016 00:38 14,7 C 90 % 1009,4 hPa 0,0 l/m 3,4 km/h (1 Bft) S 175 0 min 0,000 mm 0,0 UV-I 0 W/m 13,1 C 14,7 C 4,8 km/h (1 Bft) 100,00 %
04.06.2016 00:39 14,7 C 91 % 1009,3 hPa 0,0 l/m 3,2 km/h (1 Bft) S 175 0 min 0,000 mm 0,0 UV-I 0 W/m 13,2 C 14,7 C 4,8 km/h (1 Bft) 100,00 %
04.06.2016 00:40 14,7 C 91 % 1009,3 hPa 0,0 l/m 4,6 km/h (1 Bft) S 182 0 min 0,000 mm 0,0 UV-I 0 W/m 13,2 C 14,7 C 6,4 km/h (2 Bft) 100,00 %
04.06.2016 00:41 14,7 C 90 % 1009,3 hPa 0,0 l/m 5,3 km/h (1 Bft) S 187 0 min 0,000 mm 0,0 UV-I 0 W/m 13,1 C 14,7 C 6,4 km/h (2 Bft) 100,00 %
04.06.2016 00:42 14,7 C 90 % 1009,3 hPa 0,0 l/m 5,2 km/h (1 Bft) S 187 0 min 0,000 mm 0,0 UV-I 0 W/m 13,1 C 14,7 C 6,4 km/h (2 Bft) 100,00 %
04.06.2016 00:43 14,7 C 90 % 1009,3 hPa 0,0 l/m 4,2 km/h (1 Bft) S 187 0 min 0,000 mm 0,0 UV-I 0 W/m 13,1 C 14,7 C 4,8 km/h (1 Bft) 100,00 %
04.06.2016 00:44 14,7 C 91 % 1009,3 hPa 0,0 l/m 3,8 km/h (1 Bft) S 187 0 min 0,000 mm 0,0 UV-I 0 W/m 13,2 C 14,7 C 4,8 km/h (1 Bft) 100,00 %
04.06.2016 00:45 14,6 C 91 % 1009,3 hPa 0,0 l/m 3,8 km/h (1 Bft) S 187 0 min 0,000 mm 0,0 UV-I 0 W/m 13,1 C 14,6 C 4,8 km/h (1 Bft) 100,00 %
04.06.2016 00:46 14,6 C 90 % 1009,3 hPa 0,0 l/m 4,2 km/h (1 Bft) S 187 0 min 0,000 mm 0,0 UV-I 0 W/m 13,0 C 14,6 C 4,8 km/h (1 Bft) 100,00 %
04.06.2016 00:47 14,6 C 91 % 1009,3 hPa 0,0 l/m 4,2 km/h (1 Bft) S 187 0 min 0,000 mm 0,0 UV-I 0 W/m 13,1 C 14,6 C 6,4 km/h (2 Bft) 100,00 %
04.06.2016 00:48 14,5 C 91 % 1009,3 hPa 0,0 l/m 5,2 km/h (1 Bft) S 187 0 min 0,000 mm 0,0 UV-I 0 W/m 13,0 C 14,5 C 6,4 km/h (2 Bft) 100,00 %
04.06.2016 00:49 14,5 C 91 % 1009,3 hPa 0,0 l/m 5,0 km/h (1 Bft) S 187 0 min 0,000 mm 0,0 UV-I 0 W/m 13,0 C 14,5 C 6,4 km/h (2 Bft) 100,00 %
04.06.2016 00:50 14,4 C 91 % 1009,3 hPa 0,0 l/m 4,6 km/h (1 Bft) S 179 0 min 0,000 mm 0,0 UV-I 0 W/m 12,9 C 14,4 C 6,4 km/h (2 Bft) 100,00 %
04.06.2016 00:51 14,4 C 91 % 1009,3 hPa 0,0 l/m 5,6 km/h (1 Bft) S 180 0 min 0,000 mm 0,0 UV-I 0 W/m 12,9 C 14,4 C 6,4 km/h (2 Bft) 100,00 %
04.06.2016 00:52 14,4 C 91 % 1009,3 hPa 0,0 l/m 5,0 km/h (1 Bft) S 182 0 min 0,000 mm 0,0 UV-I 0 W/m 12,9 C 14,4 C 6,4 km/h (2 Bft) 100,00 %
04.06.2016 00:53 14,4 C 91 % 1009,3 hPa 0,0 l/m 5,4 km/h (1 Bft) S 173 0 min 0,000 mm 0,0 UV-I 0 W/m 12,9 C 14,4 C 6,4 km/h (2 Bft) 100,00 %
04.06.2016 00:54 14,4 C 91 % 1009,3 hPa 0,0 l/m 5,2 km/h (1 Bft) S 190 0 min 0,000 mm 0,0 UV-I 0 W/m 12,9 C 14,4 C 6,4 km/h (2 Bft) 100,00 %
04.06.2016 00:55 14,4 C 91 % 1009,3 hPa 0,0 l/m 3,6 km/h (1 Bft) S 190 0 min 0,000 mm 0,0 UV-I 0 W/m 12,9 C 14,4 C 6,4 km/h (2 Bft) 100,00 %
04.06.2016 00:56 14,4 C 91 % 1009,3 hPa 0,0 l/m 5,1 km/h (1 Bft) S 190 0 min 0,000 mm 0,0 UV-I 0 W/m 12,9 C 14,4 C 6,4 km/h (2 Bft) 95,65 %
04.06.2016 00:57 14,4 C 91 % 1009,2 hPa 0,0 l/m 2,9 km/h (1 Bft) S 190 0 min 0,000 mm 0,0 UV-I 0 W/m 12,9 C 14,4 C 3,2 km/h (1 Bft) 100,00 %
04.06.2016 00:58 14,4 C 91 % 1009,3 hPa 0,0 l/m 1,9 km/h (1 Bft) S 190 0 min 0,000 mm 0,0 UV-I 0 W/m 12,9 C 14,4 C 3,2 km/h (1 Bft) 100,00 %
04.06.2016 00:59 14,4 C 91 % 1009,3 hPa 0,0 l/m 1,5 km/h (1 Bft) S 190 0 min 0,000 mm 0,0 UV-I 0 W/m 12,9 C 14,4 C 3,2 km/h (1 Bft) 100,00 %
04.06.2016 01:00 14,5 C 91 % 1009,3 hPa 0,0 l/m 2,3 km/h (1 Bft) S 190 0 min 0,000 mm 0,0 UV-I 0 W/m 13,0 C 14,5 C 3,2 km/h (1 Bft) 100,00 %
04.06.2016 01:01 14,5 C 91 % 1009,3 hPa 0,0 l/m 1,5 km/h (1 Bft) S 190 0 min 0,000 mm 0,0 UV-I 0 W/m 13,0 C 14,5 C 3,2 km/h (1 Bft) 95,83 %
04.06.2016 01:02 14,6 C 91 % 1009,2 hPa 0,0 l/m 1,9 km/h (1 Bft) S 190 0 min 0,000 mm 0,0 UV-I 0 W/m 13,1 C 14,6 C 3,2 km/h (1 Bft) 100,00 %
04.06.2016 01:03 14,6 C 91 % 1009,2 hPa 0,0 l/m 2,9 km/h (1 Bft) S 190 0 min 0,000 mm 0,0 UV-I 0 W/m 13,1 C 14,6 C 4,8 km/h (1 Bft) 100,00 %
04.06.2016 01:04 14,6 C 91 % 1009,3 hPa 0,0 l/m 3,6 km/h (1 Bft) S 190 0 min 0,000 mm 0,0 UV-I 0 W/m 13,1 C 14,6 C 6,4 km/h (2 Bft) 100,00 %
04.06.2016 01:05 14,6 C 91 % 1009,2 hPa 0,0 l/m 3,9 km/h (1 Bft) S 190 0 min 0,000 mm 0,0 UV-I 0 W/m 13,1 C 14,6 C 4,8 km/h (1 Bft) 100,00 %
04.06.2016 01:06 14,5 C 91 % 1009,3 hPa 0,0 l/m 4,8 km/h (1 Bft) S 188 0 min 0,000 mm 0,0 UV-I 0 W/m 13,0 C 14,5 C 6,4 km/h (2 Bft) 100,00 %
04.06.2016 01:07 14,4 C 91 % 1009,2 hPa 0,0 l/m 4,6 km/h (1 Bft) S 186 0 min 0,000 mm 0,0 UV-I 0 W/m 12,9 C 14,4 C 6,4 km/h (2 Bft) 100,00 %
04.06.2016 01:08 14,4 C 91 % 1009,3 hPa 0,0 l/m 3,8 km/h (1 Bft) S 182 0 min 0,000 mm 0,0 UV-I 0 W/m 12,9 C 14,4 C 6,4 km/h (2 Bft) 98,98 %
04.06.2016 01:09 14,4 C 91 % 1009,3 hPa 0,0 l/m 3,1 km/h (1 Bft) S 180 0 min 0,000 mm 0,0 UV-I 0 W/m 12,9 C 14,4 C 4,8 km/h (1 Bft) 100,00 %
04.06.2016 01:10 14,4 C 91 % 1009,2 hPa 0,0 l/m 2,5 km/h (1 Bft) S 179 0 min 0,000 mm 0,0 UV-I 0 W/m 12,9 C 14,4 C 3,2 km/h (1 Bft) 100,00 %
04.06.2016 01:11 14,4 C 91 % 1009,3 hPa 0,0 l/m 1,9 km/h (1 Bft) S 179 0 min 0,000 mm 0,0 UV-I 0 W/m 12,9 C 14,4 C 3,2 km/h (1 Bft) 100,00 %
04.06.2016 01:12 14,4 C 91 % 1009,2 hPa 0,0 l/m 2,3 km/h (1 Bft) S 178 0 min 0,000 mm 0,0 UV-I 0 W/m 12,9 C 14,4 C 3,2 km/h (1 Bft) 100,00 %
04.06.2016 01:13 14,4 C 91 % 1009,2 hPa 0,0 l/m 3,2 km/h (1 Bft) S 178 0 min 0,000 mm 0,0 UV-I 0 W/m 12,9 C 14,4 C 4,8 km/h (1 Bft) 100,00 %
04.06.2016 01:14 14,4 C 91 % 1009,2 hPa 0,0 l/m 1,6 km/h (1 Bft) S 178 0 min 0,000 mm 0,0 UV-I 0 W/m 12,9 C 14,4 C 3,2 km/h (1 Bft) 100,00 %
04.06.2016 01:15 14,3 C 91 % 1009,3 hPa 0,0 l/m 3,0 km/h (1 Bft) S 178 0 min 0,000 mm 0,0 UV-I 0 W/m 12,8 C 14,3 C 4,8 km/h (1 Bft) 100,00 %
04.06.2016 01:16 14,3 C 91 % 1009,3 hPa 0,0 l/m 2,3 km/h (1 Bft) S 178 0 min 0,000 mm 0,0 UV-I 0 W/m 12,8 C 14,3 C 4,8 km/h (1 Bft) 100,00 %
04.06.2016 01:17 14,3 C 91 % 1009,3 hPa 0,0 l/m 3,3 km/h (1 Bft) S 178 0 min 0,000 mm 0,0 UV-I 0 W/m 12,8 C 14,3 C 4,8 km/h (1 Bft) 100,00 %
04.06.2016 01:18 14,3 C 91 % 1009,2 hPa 0,0 l/m 3,7 km/h (1 Bft) S 178 0 min 0,000 mm 0,0 UV-I 0 W/m 12,8 C 14,3 C 4,8 km/h (1 Bft) 100,00 %
04.06.2016 01:19 14,3 C 91 % 1009,2 hPa 0,0 l/m 4,0 km/h (1 Bft) S 178 0 min 0,000 mm 0,0 UV-I 0 W/m 12,8 C 14,3 C 4,8 km/h (1 Bft) 95,65 %
04.06.2016 01:20 14,3 C 91 % 1009,2 hPa 0,0 l/m 4,7 km/h (1 Bft) S 179 0 min 0,000 mm 0,0 UV-I 0 W/m 12,8 C 14,3 C 6,4 km/h (2 Bft) 100,00 %
04.06.2016 01:21 14,3 C 91 % 1009,3 hPa 0,0 l/m 4,8 km/h (1 Bft) S 179 0 min 0,000 mm 0,0 UV-I 0 W/m 12,8 C 14,3 C 4,8 km/h (1 Bft) 100,00 %
04.06.2016 01:22 14,3 C 91 % 1009,3 hPa 0,0 l/m 4,4 km/h (1 Bft) S 179 0 min 0,000 mm 0,0 UV-I 0 W/m 12,8 C 14,3 C 4,8 km/h (1 Bft) 95,83 %
04.06.2016 01:23 14,2 C 91 % 1009,3 hPa 0,0 l/m 4,0 km/h (1 Bft) S 179 0 min 0,000 mm 0,0 UV-I 0 W/m 12,8 C 14,2 C 4,8 km/h (1 Bft) 100,00 %
04.06.2016 01:24 14,2 C 92 % 1009,3 hPa 0,0 l/m 4,2 km/h (1 Bft) S 178 0 min 0,000 mm 0,0 UV-I 0 W/m 12,9 C 14,2 C 4,8 km/h (1 Bft) 100,00 %
04.06.2016 01:25 14,2 C 92 % 1009,2 hPa 0,0 l/m 3,7 km/h (1 Bft) S 178 0 min 0,000 mm 0,0 UV-I 0 W/m 12,9 C 14,2 C 4,8 km/h (1 Bft) 100,00 %
04.06.2016 01:26 14,1 C 92 % 1009,3 hPa 0,0 l/m 2,7 km/h (1 Bft) S 178 0 min 0,000 mm 0,0 UV-I 0 W/m 12,8 C 14,1 C 3,2 km/h (1 Bft) 100,00 %
04.06.2016 01:27 14,1 C 91 % 1009,3 hPa 0,0 l/m 2,4 km/h (1 Bft) S 178 0 min 0,000 mm 0,0 UV-I 0 W/m 12,7 C 14,1 C 3,2 km/h (1 Bft) 100,00 %
04.06.2016 01:28 14,1 C 92 % 1009,3 hPa 0,0 l/m 4,1 km/h (1 Bft) S 178 0 min 0,000 mm 0,0 UV-I 0 W/m 12,8 C 14,1 C 4,8 km/h (1 Bft) 100,00 %
04.06.2016 01:29 14,1 C 92 % 1009,3 hPa 0,0 l/m 4,1 km/h (1 Bft) S 178 0 min 0,000 mm 0,0 UV-I 0 W/m 12,8 C 14,1 C 4,8 km/h (1 Bft) 95,83 %
04.06.2016 01:30 14,1 C 92 % 1009,3 hPa 0,0 l/m 4,0 km/h (1 Bft) S 178 0 min 0,000 mm 0,0 UV-I 0 W/m 12,8 C 14,1 C 4,8 km/h (1 Bft) 95,65 %
04.06.2016 01:31 14,1 C 92 % 1009,3 hPa 0,0 l/m 4,4 km/h (1 Bft) S 185 0 min 0,000 mm 0,0 UV-I 0 W/m 12,8 C 14,1 C 6,4 km/h (2 Bft) 95,83 %
04.06.2016 01:32 14,1 C 92 % 1009,3 hPa 0,0 l/m 5,4 km/h (1 Bft) S 186 0 min 0,000 mm 0,0 UV-I 0 W/m 12,8 C 14,1 C 6,4 km/h (2 Bft) 100,00 %
04.06.2016 01:33 14,1 C 92 % 1009,3 hPa 0,0 l/m 4,3 km/h (1 Bft) S 186 0 min 0,000 mm 0,0 UV-I 0 W/m 12,8 C 14,1 C 6,4 km/h (2 Bft) 95,83 %
04.06.2016 01:34 14,1 C 92 % 1009,3 hPa 0,0 l/m 5,0 km/h (1 Bft) S 190 0 min 0,000 mm 0,0 UV-I 0 W/m 12,8 C 14,1 C 6,4 km/h (2 Bft) 95,65 %
04.06.2016 01:35 14,1 C 92 % 1009,3 hPa 0,0 l/m 4,8 km/h (1 Bft) S-SW 193 0 min 0,000 mm 0,0 UV-I 0 W/m 12,8 C 14,1 C 6,4 km/h (2 Bft) 95,83 %
04.06.2016 01:36 14,0 C 92 % 1009,3 hPa 0,0 l/m 5,6 km/h (1 Bft) S-SW 194 0 min 0,000 mm 0,0 UV-I 0 W/m 12,7 C 14,0 C 6,4 km/h (2 Bft) 100,00 %
04.06.2016 01:37 14,0 C 92 % 1009,3 hPa 0,0 l/m 5,7 km/h (1 Bft) S-SW 194 0 min 0,000 mm 0,0 UV-I 0 W/m 12,7 C 14,0 C 6,4 km/h (2 Bft) 95,83 %
04.06.2016 01:38 14,0 C 92 % 1009,3 hPa 0,0 l/m 5,2 km/h (1 Bft) S-SW 198 0 min 0,000 mm 0,0 UV-I 0 W/m 12,7 C 14,0 C 6,4 km/h (2 Bft) 95,65 %
04.06.2016 01:39 14,0 C 92 % 1009,3 hPa 0,0 l/m 4,5 km/h (1 Bft) S-SW 198 0 min 0,000 mm 0,0 UV-I 0 W/m 12,7 C 14,0 C 4,8 km/h (1 Bft) 100,00 %
04.06.2016 01:40 13,9 C 92 % 1009,3 hPa 0,0 l/m 3,0 km/h (1 Bft) S-SW 198 0 min 0,000 mm 0,0 UV-I 0 W/m 12,6 C 13,9 C 4,8 km/h (1 Bft) 95,65 %
04.06.2016 01:41 13,9 C 92 % 1009,3 hPa 0,0 l/m 2,7 km/h (1 Bft) S-SW 198 0 min 0,000 mm 0,0 UV-I 0 W/m 12,6 C 13,9 C 4,8 km/h (1 Bft) 100,00 %
04.06.2016 01:42 13,9 C 92 % 1009,3 hPa 0,0 l/m 3,5 km/h (1 Bft) S-SW 198 0 min 0,000 mm 0,0 UV-I 0 W/m 12,6 C 13,9 C 6,4 km/h (2 Bft) 91,30 %
04.06.2016 01:43 13,9 C 92 % 1009,3 hPa 0,0 l/m 3,0 km/h (1 Bft) S-SW 198 0 min 0,000 mm 0,0 UV-I 0 W/m 12,6 C 13,9 C 3,2 km/h (1 Bft) 100,00 %
04.06.2016 01:44 13,8 C 92 % 1009,3 hPa 0,0 l/m 3,2 km/h (1 Bft) S-SW 198 0 min 0,000 mm 0,0 UV-I 0 W/m 12,5 C 13,8 C 4,8 km/h (1 Bft) 95,65 %
04.06.2016 01:45 13,8 C 92 % 1009,3 hPa 0,0 l/m 3,4 km/h (1 Bft) S-SW 198 0 min 0,000 mm 0,0 UV-I 0 W/m 12,5 C 13,8 C 4,8 km/h (1 Bft) 100,00 %
04.06.2016 01:46 13,8 C 93 % 1009,3 hPa 0,0 l/m 3,3 km/h (1 Bft) S-SW 198 0 min 0,000 mm 0,0 UV-I 0 W/m 12,7 C 13,8 C 4,8 km/h (1 Bft) 93,75 %
04.06.2016 01:47 13,7 C 93 % 1009,2 hPa 0,0 l/m 4,1 km/h (1 Bft) S-SW 198 0 min 0,000 mm 0,0 UV-I 0 W/m 12,6 C 13,7 C 4,8 km/h (1 Bft) 100,00 %
04.06.2016 01:48 13,7 C 93 % 1009,3 hPa 0,0 l/m 3,5 km/h (1 Bft) S-SW 198 0 min 0,000 mm 0,0 UV-I 0 W/m 12,6 C 13,7 C 4,8 km/h (1 Bft) 96,30 %
04.06.2016 01:49 13,7 C 93 % 1009,3 hPa 0,0 l/m 2,1 km/h (1 Bft) S-SW 198 0 min 0,000 mm 0,0 UV-I 0 W/m 12,6 C 13,7 C 3,2 km/h (1 Bft) 95,65 %
04.06.2016 01:50 13,7 C 93 % 1009,2 hPa 0,0 l/m 2,1 km/h (1 Bft) S-SW 198 0 min 0,000 mm 0,0 UV-I 0 W/m 12,6 C 13,7 C 3,2 km/h (1 Bft) 100,00 %
04.06.2016 01:51 13,7 C 93 % 1009,3 hPa 0,0 l/m 2,4 km/h (1 Bft) S-SW 198 0 min 0,000 mm 0,0 UV-I 0 W/m 12,6 C 13,7 C 3,2 km/h (1 Bft) 95,65 %
04.06.2016 01:52 13,7 C 93 % 1009,3 hPa 0,0 l/m 1,6 km/h (1 Bft) S-SW 198 0 min 0,000 mm 0,0 UV-I 0 W/m 12,6 C 13,7 C 3,2 km/h (1 Bft) 100,00 %
04.06.2016 01:53 13,7 C 93 % 1009,3 hPa 0,0 l/m 2,7 km/h (1 Bft) S-SW 198 0 min 0,000 mm 0,0 UV-I 0 W/m 12,6 C 13,7 C 3,2 km/h (1 Bft) 95,65 %
04.06.2016 01:54 13,7 C 93 % 1009,3 hPa 0,0 l/m 2,7 km/h (1 Bft) S-SW 198 0 min 0,000 mm 0,0 UV-I 0 W/m 12,6 C 13,7 C 3,2 km/h (1 Bft) 100,00 %
04.06.2016 01:55 13,6 C 93 % 1009,3 hPa 0,0 l/m 2,7 km/h (1 Bft) S-SW 198 0 min 0,000 mm 0,0 UV-I 0 W/m 12,5 C 13,6 C 3,2 km/h (1 Bft) 95,65 %
04.06.2016 01:56 13,7 C 94 % 1009,3 hPa 0,0 l/m 3,8 km/h (1 Bft) S 180 0 min 0,000 mm 0,0 UV-I 0 W/m 12,8 C 13,7 C 6,4 km/h (2 Bft) 96,30 %
04.06.2016 01:57 13,7 C 94 % 1009,3 hPa 0,0 l/m 4,3 km/h (1 Bft) S 183 0 min 0,000 mm 0,0 UV-I 0 W/m 12,8 C 13,7 C 4,8 km/h (1 Bft) 100,00 %
04.06.2016 01:58 13,8 C 94 % 1009,3 hPa 0,0 l/m 2,3 km/h (1 Bft) S 183 0 min 0,000 mm 0,0 UV-I 0 W/m 12,9 C 13,8 C 4,8 km/h (1 Bft) 91,67 %
04.06.2016 01:59 13,8 C 94 % 1009,3 hPa 0,0 l/m 2,5 km/h (1 Bft) S 182 0 min 0,000 mm 0,0 UV-I 0 W/m 12,9 C 13,8 C 4,8 km/h (1 Bft) 100,00 %
04.06.2016 02:00 13,8 C 93 % 1009,4 hPa 0,0 l/m 3,2 km/h (1 Bft) S 182 0 min 0,000 mm 0,0 UV-I 0 W/m 12,7 C 13,8 C 4,8 km/h (1 Bft) 95,83 %
04.06.2016 02:01 13,9 C 94 % 1009,3 hPa 0,0 l/m 1,9 km/h (1 Bft) S 182 0 min 0,000 mm 0,0 UV-I 0 W/m 12,9 C 13,9 C 4,8 km/h (1 Bft) 100,00 %
04.06.2016 02:02 13,9 C 93 % 1009,3 hPa 0,0 l/m 3,8 km/h (1 Bft) S 184 0 min 0,000 mm 0,0 UV-I 0 W/m 12,8 C 13,9 C 4,8 km/h (1 Bft) 95,83 %
04.06.2016 02:03 13,9 C 93 % 1009,3 hPa 0,0 l/m 4,2 km/h (1 Bft) S 190 0 min 0,000 mm 0,0 UV-I 0 W/m 12,8 C 13,9 C 4,8 km/h (1 Bft) 100,00 %
04.06.2016 02:04 13,9 C 93 % 1009,4 hPa 0,0 l/m 5,0 km/h (1 Bft) S-SW 194 0 min 0,000 mm 0,0 UV-I 0 W/m 12,8 C 13,9 C 6,4 km/h (2 Bft) 92,31 %
04.06.2016 02:05 13,9 C 93 % 1009,4 hPa 0,0 l/m 4,2 km/h (1 Bft) S-SW 205 0 min 0,000 mm 0,0 UV-I 0 W/m 12,8 C 13,9 C 6,4 km/h (2 Bft) 95,83 %
04.06.2016 02:06 13,9 C 93 % 1009,4 hPa 0,0 l/m 3,6 km/h (1 Bft) S-SW 205 0 min 0,000 mm 0,0 UV-I 0 W/m 12,8 C 13,9 C 4,8 km/h (1 Bft) 96,15 %
04.06.2016 02:07 13,9 C 93 % 1009,4 hPa 0,0 l/m 4,2 km/h (1 Bft) S-SW 205 0 min 0,000 mm 0,0 UV-I 0 W/m 12,8 C 13,9 C 4,8 km/h (1 Bft) 100,00 %
04.06.2016 02:08 13,9 C 93 % 1009,4 hPa 0,0 l/m 4,0 km/h (1 Bft) S-SW 205 0 min 0,000 mm 0,0 UV-I 0 W/m 12,8 C 13,9 C 4,8 km/h (1 Bft) 100,00 %
04.06.2016 02:09 13,9 C 93 % 1009,3 hPa 0,0 l/m 5,7 km/h (1 Bft) S-SW 202 0 min 0,000 mm 0,0 UV-I 0 W/m 12,8 C 13,9 C 6,4 km/h (2 Bft) 100,00 %
04.06.2016 02:10 13,9 C 93 % 1009,3 hPa 0,0 l/m 5,0 km/h (1 Bft) S-SW 192 0 min 0,000 mm 0,0 UV-I 0 W/m 12,8 C 13,9 C 8,0 km/h (2 Bft) 100,00 %
04.06.2016 02:11 13,9 C 93 % 1009,4 hPa 0,0 l/m 5,7 km/h (1 Bft) S-SW 212 0 min 0,000 mm 0,0 UV-I 0 W/m 12,8 C 13,9 C 8,0 km/h (2 Bft) 100,00 %
04.06.2016 02:12 13,9 C 93 % 1009,3 hPa 0,0 l/m 4,0 km/h (1 Bft) S-SW 205 0 min 0,000 mm 0,0 UV-I 0 W/m 12,8 C 13,9 C 6,4 km/h (2 Bft) 100,00 %
04.06.2016 02:13 13,9 C 93 % 1009,3 hPa 0,0 l/m 5,2 km/h (1 Bft) S 190 0 min 0,000 mm 0,0 UV-I 0 W/m 12,8 C 13,9 C 6,4 km/h (2 Bft) 100,00 %
04.06.2016 02:14 13,9 C 93 % 1009,4 hPa 0,0 l/m 5,1 km/h (1 Bft) S-SW 207 0 min 0,000 mm 0,0 UV-I 0 W/m 12,8 C 13,9 C 8,0 km/h (2 Bft) 95,65 %
04.06.2016 02:15 13,9 C 93 % 1009,4 hPa 0,0 l/m 4,7 km/h (1 Bft) S-SW 192 0 min 0,000 mm 0,0 UV-I 0 W/m 12,8 C 13,9 C 6,4 km/h (2 Bft) 100,00 %
04.06.2016 02:16 13,9 C 93 % 1009,4 hPa 0,0 l/m 5,0 km/h (1 Bft) S-SW 193 0 min 0,000 mm 0,0 UV-I 0 W/m 12,8 C 13,9 C 6,4 km/h (2 Bft) 100,00 %
04.06.2016 02:17 13,9 C 93 % 1009,4 hPa 0,0 l/m 5,0 km/h (1 Bft) S-SW 196 0 min 0,000 mm 0,0 UV-I 0 W/m 12,8 C 13,9 C 6,4 km/h (2 Bft) 100,00 %
04.06.2016 02:18 13,8 C 93 % 1009,4 hPa 0,0 l/m 4,3 km/h (1 Bft) S-SW 196 0 min 0,000 mm 0,0 UV-I 0 W/m 12,7 C 13,8 C 6,4 km/h (2 Bft) 100,00 %
04.06.2016 02:19 13,8 C 93 % 1009,4 hPa 0,0 l/m 5,0 km/h (1 Bft) S 174 0 min 0,000 mm 0,0 UV-I 0 W/m 12,7 C 13,8 C 8,0 km/h (2 Bft) 100,00 %
04.06.2016 02:20 13,8 C 93 % 1009,4 hPa 0,0 l/m 3,2 km/h (1 Bft) S 174 0 min 0,000 mm 0,0 UV-I 0 W/m 12,7 C 13,8 C 4,8 km/h (1 Bft) 100,00 %
04.06.2016 02:21 13,8 C 93 % 1009,4 hPa 0,0 l/m 1,9 km/h (1 Bft) S 174 0 min 0,000 mm 0,0 UV-I 0 W/m 12,7 C 13,8 C 3,2 km/h (1 Bft) 100,00 %
04.06.2016 02:22 13,8 C 93 % 1009,4 hPa 0,0 l/m 2,1 km/h (1 Bft) S 174 0 min 0,000 mm 0,0 UV-I 0 W/m 12,7 C 13,8 C 3,2 km/h (1 Bft) 100,00 %
04.06.2016 02:23 13,8 C 93 % 1009,4 hPa 0,0 l/m 1,7 km/h (1 Bft) S 174 0 min 0,000 mm 0,0 UV-I 0 W/m 12,7 C 13,8 C 3,2 km/h (1 Bft) 100,00 %
04.06.2016 02:24 13,8 C 93 % 1009,4 hPa 0,0 l/m 2,3 km/h (1 Bft) S 174 0 min 0,000 mm 0,0 UV-I 0 W/m 12,7 C 13,8 C 3,2 km/h (1 Bft) 100,00 %
04.06.2016 02:25 13,8 C 93 % 1009,4 hPa 0,0 l/m 1,7 km/h (1 Bft) S 174 0 min 0,000 mm 0,0 UV-I 0 W/m 12,7 C 13,8 C 3,2 km/h (1 Bft) 100,00 %
04.06.2016 02:26 13,8 C 93 % 1009,4 hPa 0,0 l/m 3,0 km/h (1 Bft) S 182 0 min 0,000 mm 0,0 UV-I 0 W/m 12,7 C 13,8 C 4,8 km/h (1 Bft) 100,00 %
04.06.2016 02:27 13,8 C 93 % 1009,4 hPa 0,0 l/m 3,0 km/h (1 Bft) S 182 0 min 0,000 mm 0,0 UV-I 0 W/m 12,7 C 13,8 C 4,8 km/h (1 Bft) 100,00 %
04.06.2016 02:28 13,8 C 93 % 1009,4 hPa 0,0 l/m 4,5 km/h (1 Bft) S-SW 193 0 min 0,000 mm 0,0 UV-I 0 W/m 12,7 C 13,8 C 6,4 km/h (2 Bft) 100,00 %
04.06.2016 02:29 13,8 C 93 % 1009,4 hPa 0,0 l/m 4,9 km/h (1 Bft) S 190 0 min 0,000 mm 0,0 UV-I 0 W/m 12,7 C 13,8 C 6,4 km/h (2 Bft) 100,00 %
04.06.2016 02:30 13,8 C 93 % 1009,4 hPa 0,0 l/m 4,0 km/h (1 Bft) S 190 0 min 0,000 mm 0,0 UV-I 0 W/m 12,7 C 13,8 C 6,4 km/h (2 Bft) 100,00 %
04.06.2016 02:31 13,8 C 93 % 1009,4 hPa 0,0 l/m 4,2 km/h (1 Bft) S-SW 192 0 min 0,000 mm 0,0 UV-I 0 W/m 12,7 C 13,8 C 6,4 km/h (2 Bft) 100,00 %
04.06.2016 02:32 13,8 C 93 % 1009,5 hPa 0,0 l/m 3,3 km/h (1 Bft) S-SW 192 0 min 0,000 mm 0,0 UV-I 0 W/m 12,7 C 13,8 C 4,8 km/h (1 Bft) 100,00 %
04.06.2016 02:33 13,7 C 93 % 1009,4 hPa 0,0 l/m 4,6 km/h (1 Bft) S-SW 193 0 min 0,000 mm 0,0 UV-I 0 W/m 12,6 C 13,7 C 6,4 km/h (2 Bft) 100,00 %
04.06.2016 02:34 13,7 C 93 % 1009,5 hPa 0,0 l/m 5,4 km/h (1 Bft) S 186 0 min 0,000 mm 0,0 UV-I 0 W/m 12,6 C 13,7 C 8,0 km/h (2 Bft) 100,00 %
04.06.2016 02:35 13,7 C 93 % 1009,5 hPa 0,0 l/m 4,8 km/h (1 Bft) S 187 0 min 0,000 mm 0,0 UV-I 0 W/m 12,6 C 13,7 C 6,4 km/h (2 Bft) 100,00 %
04.06.2016 02:36 13,7 C 94 % 1009,5 hPa 0,0 l/m 5,1 km/h (1 Bft) S 190 0 min 0,000 mm 0,0 UV-I 0 W/m 12,8 C 13,7 C 6,4 km/h (2 Bft) 95,83 %
04.06.2016 02:37 13,7 C 94 % 1009,4 hPa 0,0 l/m 3,8 km/h (1 Bft) S-SW 193 0 min 0,000 mm 0,0 UV-I 0 W/m 12,8 C 13,7 C 6,4 km/h (2 Bft) 95,65 %
04.06.2016 02:38 13,7 C 94 % 1009,5 hPa 0,0 l/m 4,4 km/h (1 Bft) S-SW 194 0 min 0,000 mm 0,0 UV-I 0 W/m 12,8 C 13,7 C 6,4 km/h (2 Bft) 100,00 %
04.06.2016 02:39 13,7 C 94 % 1009,5 hPa 0,0 l/m 3,5 km/h (1 Bft) SW 217 0 min 0,000 mm 0,0 UV-I 0 W/m 12,8 C 13,7 C 4,8 km/h (1 Bft) 100,00 %
04.06.2016 02:40 13,7 C 94 % 1009,4 hPa 0,0 l/m 3,6 km/h (1 Bft) S-SW 211 0 min 0,000 mm 0,0 UV-I 0 W/m 12,8 C 13,7 C 6,4 km/h (2 Bft) 100,00 %
04.06.2016 02:41 13,7 C 94 % 1009,4 hPa 0,0 l/m 4,2 km/h (1 Bft) S-SW 199 0 min 0,000 mm 0,0 UV-I 0 W/m 12,8 C 13,7 C 4,8 km/h (1 Bft) 100,00 %
04.06.2016 02:42 13,7 C 94 % 1009,5 hPa 0,0 l/m 3,7 km/h (1 Bft) S-SW 199 0 min 0,000 mm 0,0 UV-I 0 W/m 12,8 C 13,7 C 4,8 km/h (1 Bft) 100,00 %
04.06.2016 02:43 13,7 C 94 % 1009,4 hPa 0,0 l/m 4,8 km/h (1 Bft) S-SW 194 0 min 0,000 mm 0,0 UV-I 0 W/m 12,8 C 13,7 C 6,4 km/h (2 Bft) 100,00 %
04.06.2016 02:44 13,7 C 94 % 1009,4 hPa 0,0 l/m 3,2 km/h (1 Bft) S 183 0 min 0,000 mm 0,0 UV-I 0 W/m 12,8 C 13,7 C 6,4 km/h (2 Bft) 100,00 %
04.06.2016 02:45 13,7 C 94 % 1009,5 hPa 0,0 l/m 3,2 km/h (1 Bft) S 182 0 min 0,000 mm 0,0 UV-I 0 W/m 12,8 C 13,7 C 6,4 km/h (2 Bft) 100,00 %
04.06.2016 02:46 13,7 C 93 % 1009,4 hPa 0,0 l/m 3,8 km/h (1 Bft) S 182 0 min 0,000 mm 0,0 UV-I 0 W/m 12,6 C 13,7 C 6,4 km/h (2 Bft) 100,00 %
04.06.2016 02:47 13,6 C 93 % 1009,5 hPa 0,0 l/m 2,8 km/h (1 Bft) S 182 0 min 0,000 mm 0,0 UV-I 0 W/m 12,5 C 13,6 C 4,8 km/h (1 Bft) 100,00 %
04.06.2016 02:48 13,6 C 94 % 1009,5 hPa 0,0 l/m 1,3 km/h (1 Bft) S 182 0 min 0,000 mm 0,0 UV-I 0 W/m 12,7 C 13,6 C 3,2 km/h (1 Bft) 100,00 %
04.06.2016 02:49 13,6 C 93 % 1009,5 hPa 0,0 l/m 3,3 km/h (1 Bft) S 182 0 min 0,000 mm 0,0 UV-I 0 W/m 12,5 C 13,6 C 4,8 km/h (1 Bft) 100,00 %
04.06.2016 02:50 13,6 C 93 % 1009,5 hPa 0,0 l/m 2,7 km/h (1 Bft) S 182 0 min 0,000 mm 0,0 UV-I 0 W/m 12,5 C 13,6 C 4,8 km/h (1 Bft) 100,00 %
04.06.2016 02:51 13,6 C 93 % 1009,5 hPa 0,0 l/m 2,5 km/h (1 Bft) S 182 0 min 0,000 mm 0,0 UV-I 0 W/m 12,5 C 13,6 C 4,8 km/h (1 Bft) 100,00 %
04.06.2016 02:52 13,6 C 94 % 1009,5 hPa 0,0 l/m 3,6 km/h (1 Bft) S 182 0 min 0,000 mm 0,0 UV-I 0 W/m 12,7 C 13,6 C 6,4 km/h (2 Bft) 95,65 %
04.06.2016 02:53 13,5 C 94 % 1009,5 hPa 0,0 l/m 3,5 km/h (1 Bft) S 182 0 min 0,000 mm 0,0 UV-I 0 W/m 12,6 C 13,5 C 4,8 km/h (1 Bft) 100,00 %
04.06.2016 02:54 13,5 C 94 % 1009,5 hPa 0,0 l/m 4,1 km/h (1 Bft) S 182 0 min 0,000 mm 0,0 UV-I 0 W/m 12,6 C 13,5 C 4,8 km/h (1 Bft) 100,00 %
04.06.2016 02:55 13,6 C 94 % 1009,5 hPa 0,0 l/m 5,6 km/h (1 Bft) S 173 0 min 0,000 mm 0,0 UV-I 0 W/m 12,7 C 13,6 C 8,0 km/h (2 Bft) 100,00 %
04.06.2016 02:56 13,5 C 94 % 1009,5 hPa 0,0 l/m 3,6 km/h (1 Bft) S 174 0 min 0,000 mm 0,0 UV-I 0 W/m 12,6 C 13,5 C 4,8 km/h (1 Bft) 100,00 %
04.06.2016 02:57 13,5 C 94 % 1009,5 hPa 0,0 l/m 4,0 km/h (1 Bft) S 182 0 min 0,000 mm 0,0 UV-I 0 W/m 12,6 C 13,5 C 4,8 km/h (1 Bft) 100,00 %
04.06.2016 02:58 13,6 C 94 % 1009,5 hPa 0,0 l/m 4,2 km/h (1 Bft) S 184 0 min 0,000 mm 0,0 UV-I 0 W/m 12,7 C 13,6 C 4,8 km/h (1 Bft) 100,00 %
04.06.2016 02:59 13,6 C 94 % 1009,5 hPa 0,0 l/m 3,9 km/h (1 Bft) S 184 0 min 0,000 mm 0,0 UV-I 0 W/m 12,7 C 13,6 C 4,8 km/h (1 Bft) 100,00 %
04.06.2016 03:00 13,6 C 94 % 1009,5 hPa 0,0 l/m 4,0 km/h (1 Bft) S 184 0 min 0,000 mm 0,0 UV-I 0 W/m 12,7 C 13,6 C 4,8 km/h (1 Bft) 100,00 %
04.06.2016 03:01 13,6 C 94 % 1009,5 hPa 0,0 l/m 4,2 km/h (1 Bft) S 184 0 min 0,000 mm 0,0 UV-I 0 W/m 12,7 C 13,6 C 6,4 km/h (2 Bft) 100,00 %
04.06.2016 03:02 13,5 C 94 % 1009,5 hPa 0,0 l/m 4,2 km/h (1 Bft) S 184 0 min 0,000 mm 0,0 UV-I 0 W/m 12,6 C 13,5 C 4,8 km/h (1 Bft) 100,00 %
04.06.2016 03:03 13,5 C 94 % 1009,5 hPa 0,0 l/m 3,2 km/h (1 Bft) S 184 0 min 0,000 mm 0,0 UV-I 0 W/m 12,6 C 13,5 C 4,8 km/h (1 Bft) 100,00 %
04.06.2016 03:04 13,6 C 94 % 1009,5 hPa 0,0 l/m 3,2 km/h (1 Bft) S 184 0 min 0,000 mm 0,0 UV-I 0 W/m 12,7 C 13,6 C 4,8 km/h (1 Bft) 95,83 %
04.06.2016 03:05 13,5 C 94 % 1009,5 hPa 0,0 l/m 2,1 km/h (1 Bft) S 184 0 min 0,000 mm 0,0 UV-I 0 W/m 12,6 C 13,5 C 4,8 km/h (1 Bft) 100,00 %
04.06.2016 03:06 13,5 C 94 % 1009,5 hPa 0,0 l/m 1,3 km/h (1 Bft) S 184 0 min 0,000 mm 0,0 UV-I 0 W/m 12,6 C 13,5 C 3,2 km/h (1 Bft) 100,00 %
04.06.2016 03:07 13,4 C 94 % 1009,5 hPa 0,0 l/m 2,3 km/h (1 Bft) S 184 0 min 0,000 mm 0,0 UV-I 0 W/m 12,5 C 13,4 C 3,2 km/h (1 Bft) 100,00 %
04.06.2016 03:08 13,4 C 94 % 1009,5 hPa 0,0 l/m 2,9 km/h (1 Bft) S 184 0 min 0,000 mm 0,0 UV-I 0 W/m 12,5 C 13,4 C 4,8 km/h (1 Bft) 95,83 %
04.06.2016 03:09 13,4 C 94 % 1009,5 hPa 0,0 l/m 2,8 km/h (1 Bft) S 184 0 min 0,000 mm 0,0 UV-I 0 W/m 12,5 C 13,4 C 4,8 km/h (1 Bft) 100,00 %
04.06.2016 03:10 13,4 C 94 % 1009,5 hPa 0,0 l/m 2,5 km/h (1 Bft) S 184 0 min 0,000 mm 0,0 UV-I 0 W/m 12,5 C 13,4 C 4,8 km/h (1 Bft) 100,00 %
04.06.2016 03:11 13,4 C 94 % 1009,5 hPa 0,0 l/m 2,0 km/h (1 Bft) S 184 0 min 0,000 mm 0,0 UV-I 0 W/m 12,5 C 13,4 C 3,2 km/h (1 Bft) 100,00 %
04.06.2016 03:12 13,3 C 94 % 1009,5 hPa 0,0 l/m 2,8 km/h (1 Bft) S 184 0 min 0,000 mm 0,0 UV-I 0 W/m 12,4 C 13,3 C 3,2 km/h (1 Bft) 100,00 %
04.06.2016 03:13 13,4 C 94 % 1009,5 hPa 0,0 l/m 3,0 km/h (1 Bft) S 184 0 min 0,000 mm 0,0 UV-I 0 W/m 12,5 C 13,4 C 3,2 km/h (1 Bft) 100,00 %
04.06.2016 03:14 13,3 C 94 % 1009,5 hPa 0,0 l/m 2,8 km/h (1 Bft) S 184 0 min 0,000 mm 0,0 UV-I 0 W/m 12,4 C 13,3 C 4,8 km/h (1 Bft) 100,00 %
04.06.2016 03:15 13,3 C 94 % 1009,5 hPa 0,0 l/m 2,8 km/h (1 Bft) S 184 0 min 0,000 mm 0,0 UV-I 0 W/m 12,4 C 13,3 C 3,2 km/h (1 Bft) 100,00 %
04.06.2016 03:16 13,3 C 94 % 1009,5 hPa 0,0 l/m 1,9 km/h (1 Bft) S 184 0 min 0,000 mm 0,0 UV-I 0 W/m 12,4 C 13,3 C 3,2 km/h (1 Bft) 95,83 %
04.06.2016 03:17 13,3 C 94 % 1009,5 hPa 0,0 l/m 2,4 km/h (1 Bft) S 184 0 min 0,000 mm 0,0 UV-I 0 W/m 12,4 C 13,3 C 3,2 km/h (1 Bft) 100,00 %
04.06.2016 03:18 13,3 C 94 % 1009,5 hPa 0,0 l/m 1,2 km/h (1 Bft) S 184 0 min 0,000 mm 0,0 UV-I 0 W/m 12,4 C 13,3 C 1,6 km/h (1 Bft) 100,00 %
04.06.2016 03:19 13,3 C 94 % 1009,5 hPa 0,0 l/m 0,7 km/h (0 Bft) S 184 0 min 0,000 mm 0,0 UV-I 0 W/m 12,4 C 13,3 C 1,6 km/h (1 Bft) 100,00 %
04.06.2016 03:20 13,3 C 94 % 1009,5 hPa 0,0 l/m 1,1 km/h (1 Bft) S 184 0 min 0,000 mm 0,0 UV-I 0 W/m 12,4 C 13,3 C 1,6 km/h (1 Bft) 95,83 %
04.06.2016 03:21 13,3 C 94 % 1009,5 hPa 0,0 l/m 0,9 km/h (0 Bft) S 184 0 min 0,000 mm 0,0 UV-I 0 W/m 12,4 C 13,3 C 1,6 km/h (1 Bft) 100,00 %
04.06.2016 03:22 13,3 C 94 % 1009,5 hPa 0,0 l/m 1,1 km/h (1 Bft) S 184 0 min 0,000 mm 0,0 UV-I 0 W/m 12,4 C 13,3 C 1,6 km/h (1 Bft) 100,00 %
04.06.2016 03:23 13,3 C 94 % 1009,5 hPa 0,0 l/m 2,1 km/h (1 Bft) S 184 0 min 0,000 mm 0,0 UV-I 0 W/m 12,4 C 13,3 C 3,2 km/h (1 Bft) 100,00 %
04.06.2016 03:24 13,3 C 94 % 1009,5 hPa 0,0 l/m 2,9 km/h (1 Bft) S 184 0 min 0,000 mm 0,0 UV-I 0 W/m 12,4 C 13,3 C 4,8 km/h (1 Bft) 100,00 %
04.06.2016 03:25 13,3 C 94 % 1009,5 hPa 0,0 l/m 2,3 km/h (1 Bft) S 184 0 min 0,000 mm 0,0 UV-I 0 W/m 12,4 C 13,3 C 4,8 km/h (1 Bft) 100,00 %
04.06.2016 03:26 13,3 C 94 % 1009,5 hPa 0,0 l/m 3,2 km/h (1 Bft) S 184 0 min 0,000 mm 0,0 UV-I 0 W/m 12,4 C 13,3 C 4,8 km/h (1 Bft) 100,00 %
04.06.2016 03:27 13,2 C 94 % 1009,5 hPa 0,0 l/m 3,5 km/h (1 Bft) S 184 0 min 0,000 mm 0,0 UV-I 0 W/m 12,3 C 13,2 C 4,8 km/h (1 Bft) 100,00 %
04.06.2016 03:28 13,2 C 94 % 1009,4 hPa 0,0 l/m 4,0 km/h (1 Bft) S 184 0 min 0,000 mm 0,0 UV-I 0 W/m 12,3 C 13,2 C 4,8 km/h (1 Bft) 100,00 %
04.06.2016 03:29 13,2 C 94 % 1009,5 hPa 0,0 l/m 3,5 km/h (1 Bft) S 184 0 min 0,000 mm 0,0 UV-I 0 W/m 12,3 C 13,2 C 4,8 km/h (1 Bft) 95,83 %
04.06.2016 03:30 13,2 C 94 % 1009,5 hPa 0,0 l/m 4,0 km/h (1 Bft) S 184 0 min 0,000 mm 0,0 UV-I 0 W/m 12,3 C 13,2 C 4,8 km/h (1 Bft) 100,00 %
04.06.2016 03:31 13,2 C 94 % 1009,5 hPa 0,0 l/m 3,5 km/h (1 Bft) S 184 0 min 0,000 mm 0,0 UV-I 0 W/m 12,3 C 13,2 C 4,8 km/h (1 Bft) 95,83 %
04.06.2016 03:32 13,2 C 94 % 1009,5 hPa 0,0 l/m 3,4 km/h (1 Bft) S 184 0 min 0,000 mm 0,0 UV-I 0 W/m 12,3 C 13,2 C 4,8 km/h (1 Bft) 95,65 %
04.06.2016 03:33 13,2 C 94 % 1009,5 hPa 0,0 l/m 4,1 km/h (1 Bft) S 184 0 min 0,000 mm 0,0 UV-I 0 W/m 12,3 C 13,2 C 4,8 km/h (1 Bft) 95,83 %
04.06.2016 03:34 13,2 C 94 % 1009,5 hPa 0,0 l/m 3,1 km/h (1 Bft) S 184 0 min 0,000 mm 0,0 UV-I 0 W/m 12,3 C 13,2 C 4,8 km/h (1 Bft) 100,00 %
04.06.2016 03:35 13,2 C 94 % 1009,5 hPa 0,0 l/m 3,8 km/h (1 Bft) S 184 0 min 0,000 mm 0,0 UV-I 0 W/m 12,3 C 13,2 C 6,4 km/h (2 Bft) 95,83 %
04.06.2016 03:36 13,2 C 94 % 1009,5 hPa 0,0 l/m 3,6 km/h (1 Bft) S 184 0 min 0,000 mm 0,0 UV-I 0 W/m 12,3 C 13,2 C 4,8 km/h (1 Bft) 100,00 %
04.06.2016 03:37 13,1 C 95 % 1009,5 hPa 0,0 l/m 4,3 km/h (1 Bft) S 184 0 min 0,000 mm 0,0 UV-I 0 W/m 12,3 C 13,1 C 4,8 km/h (1 Bft) 95,83 %
04.06.2016 03:38 13,2 C 95 % 1009,5 hPa 0,0 l/m 3,2 km/h (1 Bft) S 184 0 min 0,000 mm 0,0 UV-I 0 W/m 12,4 C 13,2 C 4,8 km/h (1 Bft) 100,00 %
04.06.2016 03:39 13,1 C 95 % 1009,5 hPa 0,0 l/m 3,3 km/h (1 Bft) S 184 0 min 0,000 mm 0,0 UV-I 0 W/m 12,3 C 13,1 C 4,8 km/h (1 Bft) 95,83 %
04.06.2016 03:40 13,1 C 95 % 1009,5 hPa 0,0 l/m 4,0 km/h (1 Bft) S 184 0 min 0,000 mm 0,0 UV-I 0 W/m 12,3 C 13,1 C 4,8 km/h (1 Bft) 95,65 %
04.06.2016 03:41 13,1 C 95 % 1009,5 hPa 0,0 l/m 4,2 km/h (1 Bft) S 184 0 min 0,000 mm 0,0 UV-I 0 W/m 12,3 C 13,1 C 4,8 km/h (1 Bft) 95,83 %
04.06.2016 03:42 13,1 C 95 % 1009,5 hPa 0,0 l/m 3,9 km/h (1 Bft) S 184 0 min 0,000 mm 0,0 UV-I 0 W/m 12,3 C 13,1 C 6,4 km/h (2 Bft) 95,65 %
04.06.2016 03:43 13,1 C 95 % 1009,5 hPa 0,0 l/m 3,9 km/h (1 Bft) S 185 0 min 0,000 mm 0,0 UV-I 0 W/m 12,3 C 13,1 C 4,8 km/h (1 Bft) 100,00 %
04.06.2016 03:44 13,1 C 95 % 1009,5 hPa 0,0 l/m 3,6 km/h (1 Bft) S 185 0 min 0,000 mm 0,0 UV-I 0 W/m 12,3 C 13,1 C 4,8 km/h (1 Bft) 95,65 %
04.06.2016 03:45 13,1 C 95 % 1009,6 hPa 0,0 l/m 4,4 km/h (1 Bft) S-SW 200 0 min 0,000 mm 0,0 UV-I 0 W/m 12,3 C 13,1 C 6,4 km/h (2 Bft) 100,00 %
04.06.2016 03:46 13,2 C 95 % 1009,5 hPa 0,0 l/m 5,0 km/h (1 Bft) S-SW 200 0 min 0,000 mm 0,0 UV-I 0 W/m 12,4 C 13,2 C 6,4 km/h (2 Bft) 91,30 %
04.06.2016 03:47 13,1 C 95 % 1009,5 hPa 0,0 l/m 4,4 km/h (1 Bft) S-SW 200 0 min 0,000 mm 0,0 UV-I 0 W/m 12,3 C 13,1 C 6,4 km/h (2 Bft) 100,00 %
04.06.2016 03:48 13,2 C 95 % 1009,5 hPa 0,0 l/m 5,6 km/h (1 Bft) S 188 0 min 0,000 mm 0,0 UV-I 0 W/m 12,4 C 13,2 C 8,0 km/h (2 Bft) 95,83 %
04.06.2016 03:49 13,2 C 95 % 1009,5 hPa 0,0 l/m 4,8 km/h (1 Bft) S 186 0 min 0,000 mm 0,0 UV-I 0 W/m 12,4 C 13,2 C 6,4 km/h (2 Bft) 100,00 %
04.06.2016 03:50 13,2 C 95 % 1009,6 hPa 0,0 l/m 4,9 km/h (1 Bft) S-SW 201 0 min 0,000 mm 0,0 UV-I 0 W/m 12,4 C 13,2 C 6,4 km/h (2 Bft) 95,83 %
04.06.2016 03:51 13,2 C 95 % 1009,5 hPa 0,0 l/m 3,3 km/h (1 Bft) S-SW 201 0 min 0,000 mm 0,0 UV-I 0 W/m 12,4 C 13,2 C 6,4 km/h (2 Bft) 95,65 %
04.06.2016 03:52 13,2 C 95 % 1009,5 hPa 0,0 l/m 3,4 km/h (1 Bft) S-SW 201 0 min 0,000 mm 0,0 UV-I 0 W/m 12,4 C 13,2 C 4,8 km/h (1 Bft) 95,83 %
04.06.2016 03:53 13,2 C 95 % 1009,5 hPa 0,0 l/m 4,1 km/h (1 Bft) S-SW 202 0 min 0,000 mm 0,0 UV-I 0 W/m 12,4 C 13,2 C 4,8 km/h (1 Bft) 96,15 %
04.06.2016 03:54 13,2 C 95 % 1009,5 hPa 0,0 l/m 4,4 km/h (1 Bft) S-SW 212 0 min 0,000 mm 0,0 UV-I 0 W/m 12,4 C 13,2 C 4,8 km/h (1 Bft) 95,83 %
04.06.2016 03:55 13,3 C 95 % 1009,5 hPa 0,0 l/m 4,7 km/h (1 Bft) SW 218 0 min 0,000 mm 0,0 UV-I 0 W/m 12,5 C 13,3 C 6,4 km/h (2 Bft) 95,65 %
04.06.2016 03:56 13,3 C 95 % 1009,5 hPa 0,0 l/m 4,6 km/h (1 Bft) SW 216 0 min 0,000 mm 0,0 UV-I 0 W/m 12,5 C 13,3 C 4,8 km/h (1 Bft) 100,00 %
04.06.2016 03:57 13,2 C 95 % 1009,5 hPa 0,0 l/m 5,0 km/h (1 Bft) S-SW 211 0 min 0,000 mm 0,0 UV-I 0 W/m 12,4 C 13,2 C 6,4 km/h (2 Bft) 95,65 %
04.06.2016 03:58 13,3 C 95 % 1009,5 hPa 0,0 l/m 5,9 km/h (2 Bft) S-SW 200 0 min 0,000 mm 0,0 UV-I 0 W/m 12,5 C 13,3 C 8,0 km/h (2 Bft) 95,83 %
04.06.2016 03:59 13,3 C 95 % 1009,5 hPa 0,0 l/m 5,9 km/h (2 Bft) S 185 0 min 0,000 mm 0,0 UV-I 0 W/m 12,5 C 13,3 C 8,0 km/h (2 Bft) 100,00 %
04.06.2016 04:00 13,3 C 95 % 1009,5 hPa 0,0 l/m 6,2 km/h (2 Bft) S 188 0 min 0,000 mm 0,0 UV-I 0 W/m 12,5 C 13,3 C 8,0 km/h (2 Bft) 95,83 %
04.06.2016 04:01 13,3 C 95 % 1009,6 hPa 0,0 l/m 6,8 km/h (2 Bft) S-SW 206 0 min 0,000 mm 0,0 UV-I 0 W/m 12,5 C 13,1 C 9,7 km/h (2 Bft) 100,00 %
04.06.2016 04:02 13,3 C 95 % 1009,5 hPa 0,0 l/m 6,7 km/h (2 Bft) S 186 0 min 0,000 mm 0,0 UV-I 0 W/m 12,5 C 13,1 C 8,0 km/h (2 Bft) 95,83 %
04.06.2016 04:03 13,3 C 95 % 1009,6 hPa 0,0 l/m 5,1 km/h (1 Bft) S-SW 196 0 min 0,000 mm 0,0 UV-I 0 W/m 12,5 C 13,3 C 8,0 km/h (2 Bft) 96,15 %
04.06.2016 04:04 13,3 C 95 % 1009,6 hPa 0,0 l/m 5,8 km/h (2 Bft) SW 215 0 min 0,000 mm 0,0 UV-I 0 W/m 12,5 C 13,3 C 6,4 km/h (2 Bft) 100,00 %
04.06.2016 04:05 13,3 C 95 % 1009,5 hPa 0,0 l/m 4,8 km/h (1 Bft) SW 214 0 min 0,000 mm 0,0 UV-I 0 W/m 12,5 C 13,3 C 6,4 km/h (2 Bft) 100,00 %
04.06.2016 04:06 13,3 C 95 % 1009,5 hPa 0,0 l/m 5,0 km/h (1 Bft) SW 216 0 min 0,000 mm 0,0 UV-I 0 W/m 12,5 C 13,3 C 6,4 km/h (2 Bft) 100,00 %
04.06.2016 04:07 13,3 C 95 % 1009,5 hPa 0,0 l/m 4,4 km/h (1 Bft) S-SW 211 0 min 0,000 mm 0,0 UV-I 0 W/m 12,5 C 13,3 C 6,4 km/h (2 Bft) 100,00 %
04.06.2016 04:08 13,3 C 95 % 1009,5 hPa 0,0 l/m 5,6 km/h (1 Bft) SW 223 0 min 0,000 mm 0,0 UV-I 0 W/m 12,5 C 13,3 C 6,4 km/h (2 Bft) 95,65 %
04.06.2016 04:09 13,3 C 95 % 1009,5 hPa 0,0 l/m 4,6 km/h (1 Bft) SW 223 0 min 0,000 mm 0,0 UV-I 0 W/m 12,5 C 13,3 C 6,4 km/h (2 Bft) 100,00 %
04.06.2016 04:10 13,3 C 95 % 1009,5 hPa 0,0 l/m 4,2 km/h (1 Bft) S-SW 213 0 min 0,000 mm 0,0 UV-I 0 W/m 12,5 C 13,3 C 4,8 km/h (1 Bft) 100,00 %
04.06.2016 04:11 13,3 C 95 % 1009,5 hPa 0,0 l/m 4,4 km/h (1 Bft) S-SW 198 0 min 0,000 mm 0,0 UV-I 0 W/m 12,5 C 13,3 C 6,4 km/h (2 Bft) 95,83 %
04.06.2016 04:12 13,3 C 95 % 1009,5 hPa 0,0 l/m 4,2 km/h (1 Bft) S-SW 207 0 min 0,000 mm 0,0 UV-I 0 W/m 12,5 C 13,3 C 4,8 km/h (1 Bft) 100,00 %
04.06.2016 04:13 13,3 C 95 % 1009,4 hPa 0,0 l/m 3,2 km/h (1 Bft) S-SW 207 0 min 0,000 mm 0,0 UV-I 0 W/m 12,5 C 13,3 C 6,4 km/h (2 Bft) 100,00 %
04.06.2016 04:14 13,3 C 95 % 1009,5 hPa 0,0 l/m 3,9 km/h (1 Bft) S-SW 208 0 min 0,000 mm 0,0 UV-I 0 W/m 12,5 C 13,3 C 6,4 km/h (2 Bft) 100,00 %
04.06.2016 04:15 13,3 C 95 % 1009,5 hPa 0,0 l/m 4,4 km/h (1 Bft) S-SW 213 0 min 0,000 mm 0,0 UV-I 0 W/m 12,5 C 13,3 C 4,8 km/h (1 Bft) 100,00 %
04.06.2016 04:16 13,3 C 95 % 1009,5 hPa 0,0 l/m 4,4 km/h (1 Bft) S-SW 202 0 min 0,000 mm 0,0 UV-I 0 W/m 12,5 C 13,3 C 6,4 km/h (2 Bft) 100,00 %
04.06.2016 04:17 13,3 C 95 % 1009,5 hPa 0,0 l/m 4,8 km/h (1 Bft) S-SW 211 0 min 0,000 mm 0,0 UV-I 0 W/m 12,5 C 13,3 C 6,4 km/h (2 Bft) 100,00 %
04.06.2016 04:18 13,2 C 95 % 1009,5 hPa 0,0 l/m 3,5 km/h (1 Bft) S-SW 211 0 min 0,000 mm 0,0 UV-I 0 W/m 12,4 C 13,2 C 4,8 km/h (1 Bft) 100,00 %
04.06.2016 04:19 13,2 C 95 % 1009,5 hPa 0,0 l/m 3,9 km/h (1 Bft) S-SW 201 0 min 0,000 mm 0,0 UV-I 0 W/m 12,4 C 13,2 C 4,8 km/h (1 Bft) 100,00 %
04.06.2016 04:20 13,2 C 95 % 1009,5 hPa 0,0 l/m 4,6 km/h (1 Bft) S-SW 212 0 min 0,000 mm 0,0 UV-I 0 W/m 12,4 C 13,2 C 6,4 km/h (2 Bft) 100,00 %
04.06.2016 04:21 13,2 C 95 % 1009,5 hPa 0,0 l/m 4,5 km/h (1 Bft) S-SW 202 0 min 0,000 mm 0,0 UV-I 0 W/m 12,4 C 13,2 C 4,8 km/h (1 Bft) 100,00 %
04.06.2016 04:22 13,2 C 95 % 1009,5 hPa 0,0 l/m 4,9 km/h (1 Bft) S-SW 198 0 min 0,000 mm 0,0 UV-I 0 W/m 12,4 C 13,2 C 6,4 km/h (2 Bft) 100,00 %
04.06.2016 04:23 13,2 C 95 % 1009,6 hPa 0,0 l/m 4,5 km/h (1 Bft) S 186 0 min 0,000 mm 0,0 UV-I 0 W/m 12,4 C 13,2 C 6,4 km/h (2 Bft) 100,00 %
04.06.2016 04:24 13,2 C 95 % 1009,6 hPa 0,0 l/m 5,2 km/h (1 Bft) S-SW 195 0 min 0,000 mm 0,0 UV-I 0 W/m 12,4 C 13,2 C 8,0 km/h (2 Bft) 100,00 %
04.06.2016 04:25 13,2 C 95 % 1009,6 hPa 0,0 l/m 4,8 km/h (1 Bft) S 185 0 min 0,000 mm 0,0 UV-I 0 W/m 12,4 C 13,2 C 6,4 km/h (2 Bft) 100,00 %
04.06.2016 04:26 13,2 C 95 % 1009,6 hPa 0,0 l/m 5,7 km/h (1 Bft) S-SW 196 0 min 0,000 mm 0,0 UV-I 0 W/m 12,4 C 13,2 C 8,0 km/h (2 Bft) 100,00 %
04.06.2016 04:27 13,2 C 95 % 1009,6 hPa 0,0 l/m 5,4 km/h (1 Bft) S 184 0 min 0,000 mm 0,0 UV-I 0 W/m 12,4 C 13,2 C 6,4 km/h (2 Bft) 100,00 %
04.06.2016 04:28 13,2 C 95 % 1009,6 hPa 0,0 l/m 5,7 km/h (1 Bft) S-SW 200 0 min 0,000 mm 0,0 UV-I 0 W/m 12,4 C 13,2 C 8,0 km/h (2 Bft) 100,00 %
04.06.2016 04:29 13,2 C 95 % 1009,7 hPa 0,0 l/m 5,0 km/h (1 Bft) S-SW 196 0 min 0,000 mm 0,0 UV-I 0 W/m 12,4 C 13,2 C 8,0 km/h (2 Bft) 100,00 %
04.06.2016 04:30 13,2 C 95 % 1009,7 hPa 0,0 l/m 5,0 km/h (1 Bft) S-SW 202 0 min 0,000 mm 0,0 UV-I 0 W/m 12,4 C 13,2 C 11,3 km/h (2 Bft) 95,83 %
04.06.2016 04:31 13,2 C 95 % 1009,6 hPa 0,0 l/m 5,6 km/h (1 Bft) S-SW 198 0 min 0,000 mm 0,0 UV-I 0 W/m 12,4 C 13,2 C 8,0 km/h (2 Bft) 100,00 %
04.06.2016 04:32 13,3 C 95 % 1009,7 hPa 0,0 l/m 5,1 km/h (1 Bft) S-SW 195 0 min 0,000 mm 0,0 UV-I 0 W/m 12,5 C 13,3 C 8,0 km/h (2 Bft) 95,83 %
04.06.2016 04:33 13,3 C 95 % 1009,7 hPa 0,0 l/m 4,9 km/h (1 Bft) S-SW 194 0 min 0,000 mm 0,0 UV-I 0 W/m 12,5 C 13,3 C 6,4 km/h (2 Bft) 100,00 %
04.06.2016 04:34 13,3 C 95 % 1009,7 hPa 0,0 l/m 4,6 km/h (1 Bft) S-SW 194 0 min 0,000 mm 0,0 UV-I 0 W/m 12,5 C 13,3 C 8,0 km/h (2 Bft) 100,00 %
04.06.2016 04:35 13,3 C 95 % 1009,7 hPa 0,0 l/m 5,2 km/h (1 Bft) S-SW 210 0 min 0,000 mm 0,0 UV-I 0 W/m 12,5 C 13,3 C 6,4 km/h (2 Bft) 100,00 %
04.06.2016 04:36 13,3 C 95 % 1009,7 hPa 0,0 l/m 3,8 km/h (1 Bft) S-SW 207 0 min 0,000 mm 0,0 UV-I 0 W/m 12,5 C 13,3 C 4,8 km/h (1 Bft) 100,00 %
04.06.2016 04:37 13,3 C 95 % 1009,7 hPa 0,0 l/m 5,0 km/h (1 Bft) S-SW 207 0 min 0,000 mm 0,0 UV-I 0 W/m 12,5 C 13,3 C 6,4 km/h (2 Bft) 95,65 %
04.06.2016 04:38 13,4 C 95 % 1009,7 hPa 0,0 l/m 6,7 km/h (2 Bft) S-SW 195 0 min 0,000 mm 0,0 UV-I 0 W/m 12,6 C 13,2 C 9,7 km/h (2 Bft) 100,00 %
04.06.2016 04:39 13,4 C 95 % 1009,7 hPa 0,0 l/m 5,8 km/h (2 Bft) S 185 0 min 0,000 mm 0,0 UV-I 0 W/m 12,6 C 13,4 C 6,4 km/h (2 Bft) 100,00 %
04.06.2016 04:40 13,4 C 95 % 1009,7 hPa 0,0 l/m 5,9 km/h (2 Bft) S 188 0 min 0,000 mm 0,0 UV-I 0 W/m 12,6 C 13,4 C 8,0 km/h (2 Bft) 100,00 %
04.06.2016 04:41 13,4 C 95 % 1009,7 hPa 0,0 l/m 6,8 km/h (2 Bft) S 180 0 min 0,000 mm 0,0 UV-I 0 W/m 12,6 C 13,2 C 9,7 km/h (2 Bft) 100,00 %
04.06.2016 04:42 13,4 C 95 % 1009,8 hPa 0,0 l/m 6,0 km/h (2 Bft) S-SW 202 0 min 0,000 mm 0,0 UV-I 0 W/m 12,6 C 13,4 C 8,0 km/h (2 Bft) 100,00 %
04.06.2016 04:43 13,5 C 95 % 1009,8 hPa 0,0 l/m 4,4 km/h (1 Bft) S-SW 194 0 min 0,000 mm 0,0 UV-I 0 W/m 12,7 C 13,5 C 4,8 km/h (1 Bft) 100,00 %
04.06.2016 04:44 13,5 C 95 % 1009,8 hPa 0,0 l/m 5,5 km/h (1 Bft) S-SW 193 0 min 0,000 mm 0,0 UV-I 0 W/m 12,7 C 13,5 C 6,4 km/h (2 Bft) 100,00 %
04.06.2016 04:45 13,5 C 95 % 1009,8 hPa 0,0 l/m 5,2 km/h (1 Bft) S-SW 204 0 min 0,000 mm 0,0 UV-I 0 W/m 12,7 C 13,5 C 6,4 km/h (2 Bft) 100,00 %
04.06.2016 04:46 13,6 C 95 % 1009,8 hPa 0,0 l/m 3,6 km/h (1 Bft) S-SW 202 0 min 0,000 mm 0,0 UV-I 0 W/m 12,8 C 13,6 C 4,8 km/h (1 Bft) 100,00 %
04.06.2016 04:47 13,6 C 95 % 1009,8 hPa 0,0 l/m 4,6 km/h (1 Bft) S-SW 198 0 min 0,000 mm 0,0 UV-I 0 W/m 12,8 C 13,6 C 6,4 km/h (2 Bft) 95,83 %
04.06.2016 04:48 13,6 C 95 % 1009,8 hPa 0,0 l/m 3,7 km/h (1 Bft) S-SW 198 0 min 0,000 mm 0,0 UV-I 0 W/m 12,8 C 13,6 C 4,8 km/h (1 Bft) 96,15 %
04.06.2016 04:49 13,6 C 95 % 1009,8 hPa 0,0 l/m 3,2 km/h (1 Bft) S-SW 197 0 min 0,000 mm 0,0 UV-I 0 W/m 12,8 C 13,6 C 4,8 km/h (1 Bft) 100,00 %
04.06.2016 04:50 13,6 C 95 % 1009,8 hPa 0,0 l/m 3,3 km/h (1 Bft) S-SW 205 0 min 0,000 mm 0,0 UV-I 0 W/m 12,8 C 13,6 C 4,8 km/h (1 Bft) 100,00 %
04.06.2016 04:51 13,6 C 95 % 1009,8 hPa 0,0 l/m 4,8 km/h (1 Bft) S-SW 205 0 min 0,000 mm 0,0 UV-I 0 W/m 12,8 C 13,6 C 6,4 km/h (2 Bft) 100,00 %
04.06.2016 04:52 13,6 C 95 % 1009,8 hPa 0,0 l/m 3,0 km/h (1 Bft) S-SW 205 0 min 0,000 mm 0,0 UV-I 0 W/m 12,8 C 13,6 C 4,8 km/h (1 Bft) 100,00 %
04.06.2016 04:53 13,7 C 95 % 1009,9 hPa 0,0 l/m 2,7 km/h (1 Bft) S-SW 206 0 min 0,000 mm 0,0 UV-I 0 W/m 12,9 C 13,7 C 4,8 km/h (1 Bft) 100,00 %
04.06.2016 04:54 13,7 C 95 % 1009,9 hPa 0,0 l/m 2,6 km/h (1 Bft) S-SW 206 0 min 0,000 mm 0,0 UV-I 0 W/m 12,9 C 13,7 C 4,8 km/h (1 Bft) 100,00 %
04.06.2016 04:55 13,7 C 95 % 1009,8 hPa 0,0 l/m 3,9 km/h (1 Bft) S-SW 208 0 min 0,000 mm 0,0 UV-I 0 W/m 12,9 C 13,7 C 4,8 km/h (1 Bft) 100,00 %
04.06.2016 04:56 13,7 C 95 % 1009,8 hPa 0,0 l/m 4,2 km/h (1 Bft) S-SW 207 0 min 0,000 mm 0,0 UV-I 0 W/m 12,9 C 13,7 C 6,4 km/h (2 Bft) 100,00 %
04.06.2016 04:57 13,7 C 95 % 1009,8 hPa 0,0 l/m 3,6 km/h (1 Bft) S-SW 202 0 min 0,000 mm 0,0 UV-I 0 W/m 12,9 C 13,7 C 4,8 km/h (1 Bft) 100,00 %
04.06.2016 04:58 13,7 C 94 % 1009,8 hPa 0,0 l/m 3,6 km/h (1 Bft) S-SW 202 0 min 0,000 mm 0,0 UV-I 0 W/m 12,8 C 13,7 C 4,8 km/h (1 Bft) 100,00 %
04.06.2016 04:59 13,7 C 94 % 1009,8 hPa 0,0 l/m 5,1 km/h (1 Bft) S-SW 204 0 min 0,000 mm 0,0 UV-I 0 W/m 12,8 C 13,7 C 8,0 km/h (2 Bft) 100,00 %
04.06.2016 05:00 13,7 C 94 % 1009,9 hPa 0,0 l/m 6,2 km/h (2 Bft) S 183 0 min 0,000 mm 0,0 UV-I 0 W/m 12,8 C 13,7 C 8,0 km/h (2 Bft) 100,00 %
04.06.2016 05:01 13,8 C 94 % 1009,9 hPa 0,0 l/m 4,8 km/h (1 Bft) S 186 0 min 0,000 mm 0,0 UV-I 0 W/m 12,9 C 13,8 C 6,4 km/h (2 Bft) 100,00 %
04.06.2016 05:02 13,8 C 94 % 1009,9 hPa 0,0 l/m 4,7 km/h (1 Bft) S 184 0 min 0,000 mm 0,0 UV-I 0 W/m 12,9 C 13,8 C 4,8 km/h (1 Bft) 96,30 %
04.06.2016 05:03 13,8 C 94 % 1009,9 hPa 0,0 l/m 4,9 km/h (1 Bft) S 184 0 min 0,000 mm 0,0 UV-I 0 W/m 12,9 C 13,8 C 6,4 km/h (2 Bft) 100,00 %
04.06.2016 05:04 13,8 C 94 % 1009,9 hPa 0,0 l/m 3,6 km/h (1 Bft) S 184 0 min 0,000 mm 0,0 UV-I 0 W/m 12,9 C 13,8 C 4,8 km/h (1 Bft) 100,00 %
04.06.2016 05:05 13,8 C 94 % 1009,9 hPa 0,0 l/m 4,4 km/h (1 Bft) S 181 0 min 0,000 mm 0,0 UV-I 0 W/m 12,9 C 13,8 C 6,4 km/h (2 Bft) 100,00 %
04.06.2016 05:06 13,7 C 94 % 1009,9 hPa 0,0 l/m 3,7 km/h (1 Bft) S 182 0 min 0,000 mm 0,0 UV-I 0 W/m 12,8 C 13,7 C 4,8 km/h (1 Bft) 100,00 %
04.06.2016 05:07 13,7 C 94 % 1009,9 hPa 0,0 l/m 4,3 km/h (1 Bft) S 182 0 min 0,000 mm 0,0 UV-I 0 W/m 12,8 C 13,7 C 6,4 km/h (2 Bft) 100,00 %
04.06.2016 05:08 13,7 C 94 % 1009,9 hPa 0,0 l/m 2,9 km/h (1 Bft) S 182 0 min 0,000 mm 0,0 UV-I 0 W/m 12,8 C 13,7 C 4,8 km/h (1 Bft) 100,00 %
04.06.2016 05:09 13,7 C 94 % 1009,9 hPa 0,0 l/m 4,0 km/h (1 Bft) S-SW 198 0 min 0,000 mm 0,0 UV-I 0 W/m 12,8 C 13,7 C 4,8 km/h (1 Bft) 95,65 %
04.06.2016 05:10 13,7 C 94 % 1009,9 hPa 0,0 l/m 3,4 km/h (1 Bft) S-SW 198 0 min 0,000 mm 0,0 UV-I 0 W/m 12,8 C 13,7 C 4,8 km/h (1 Bft) 100,00 %
04.06.2016 05:11 13,7 C 94 % 1009,9 hPa 0,0 l/m 4,6 km/h (1 Bft) S-SW 202 0 min 0,000 mm 0,0 UV-I 4 W/m 12,8 C 13,7 C 6,4 km/h (2 Bft) 100,00 %
04.06.2016 05:12 13,7 C 94 % 1009,9 hPa 0,0 l/m 3,6 km/h (1 Bft) S-SW 207 0 min 0,000 mm 0,0 UV-I 5 W/m 12,8 C 13,7 C 6,4 km/h (2 Bft) 100,00 %
04.06.2016 05:13 13,7 C 94 % 1009,9 hPa 0,0 l/m 3,8 km/h (1 Bft) S-SW 205 0 min 0,000 mm 0,0 UV-I 5 W/m 12,8 C 13,7 C 6,4 km/h (2 Bft) 100,00 %
04.06.2016 05:14 13,7 C 94 % 1009,9 hPa 0,0 l/m 6,2 km/h (2 Bft) S-SW 202 0 min 0,000 mm 0,0 UV-I 5 W/m 12,8 C 13,7 C 8,0 km/h (2 Bft) 100,00 %
04.06.2016 05:15 13,7 C 94 % 1009,9 hPa 0,0 l/m 4,6 km/h (1 Bft) S 191 0 min 0,000 mm 0,0 UV-I 5 W/m 12,8 C 13,7 C 6,4 km/h (2 Bft) 100,00 %
04.06.2016 05:16 13,7 C 94 % 1009,9 hPa 0,0 l/m 5,6 km/h (1 Bft) S-SW 193 0 min 0,000 mm 0,0 UV-I 5 W/m 12,8 C 13,7 C 6,4 km/h (2 Bft) 100,00 %
04.06.2016 05:17 13,7 C 94 % 1009,9 hPa 0,0 l/m 4,9 km/h (1 Bft) S-SW 197 0 min 0,000 mm 0,0 UV-I 5 W/m 12,8 C 13,7 C 6,4 km/h (2 Bft) 100,00 %
04.06.2016 05:18 13,7 C 94 % 1009,9 hPa 0,0 l/m 4,1 km/h (1 Bft) S-SW 199 0 min 0,000 mm 0,0 UV-I 7 W/m 12,8 C 13,7 C 6,4 km/h (2 Bft) 100,00 %
04.06.2016 05:19 13,7 C 94 % 1009,9 hPa 0,0 l/m 4,0 km/h (1 Bft) S-SW 192 0 min 0,000 mm 0,0 UV-I 7 W/m 12,8 C 13,7 C 4,8 km/h (1 Bft) 100,00 %
04.06.2016 05:20 13,7 C 94 % 1009,9 hPa 0,0 l/m 2,7 km/h (1 Bft) S-SW 192 0 min 0,000 mm 0,0 UV-I 8 W/m 12,8 C 13,7 C 4,8 km/h (1 Bft) 100,00 %
04.06.2016 05:21 13,7 C 94 % 1009,9 hPa 0,0 l/m 2,9 km/h (1 Bft) S-SW 192 0 min 0,000 mm 0,0 UV-I 9 W/m 12,8 C 13,7 C 4,8 km/h (1 Bft) 95,65 %
04.06.2016 05:22 13,7 C 94 % 1009,9 hPa 0,0 l/m 2,4 km/h (1 Bft) S-SW 194 0 min 0,000 mm 0,0 UV-I 9 W/m 12,8 C 13,7 C 4,8 km/h (1 Bft) 100,00 %
04.06.2016 05:23 13,7 C 94 % 1009,9 hPa 0,0 l/m 2,1 km/h (1 Bft) S-SW 194 0 min 0,000 mm 0,0 UV-I 11 W/m 12,8 C 13,7 C 3,2 km/h (1 Bft) 100,00 %
04.06.2016 05:24 13,7 C 94 % 1009,9 hPa 0,0 l/m 2,2 km/h (1 Bft) S-SW 194 0 min 0,000 mm 0,0 UV-I 11 W/m 12,8 C 13,7 C 3,2 km/h (1 Bft) 100,00 %
04.06.2016 05:25 13,7 C 94 % 1009,9 hPa 0,0 l/m 1,9 km/h (1 Bft) S-SW 194 0 min 0,000 mm 0,0 UV-I 12 W/m 12,8 C 13,7 C 3,2 km/h (1 Bft) 100,00 %
04.06.2016 05:26 13,7 C 94 % 1009,9 hPa 0,0 l/m 2,1 km/h (1 Bft) S-SW 194 0 min 0,000 mm 0,0 UV-I 14 W/m 12,8 C 13,7 C 3,2 km/h (1 Bft) 100,00 %
04.06.2016 05:27 13,7 C 94 % 1010,0 hPa 0,0 l/m 2,4 km/h (1 Bft) S-SW 194 0 min 0,000 mm 0,0 UV-I 14 W/m 12,8 C 13,7 C 4,8 km/h (1 Bft) 100,00 %
04.06.2016 05:28 13,7 C 94 % 1010,0 hPa 0,0 l/m 2,5 km/h (1 Bft) S-SW 194 0 min 0,000 mm 0,0 UV-I 15 W/m 12,8 C 13,7 C 4,8 km/h (1 Bft) 100,00 %
04.06.2016 05:29 13,7 C 94 % 1009,9 hPa 0,0 l/m 2,9 km/h (1 Bft) S-SW 194 0 min 0,000 mm 0,0 UV-I 16 W/m 12,8 C 13,7 C 3,2 km/h (1 Bft) 100,00 %
04.06.2016 05:30 13,7 C 94 % 1010,0 hPa 0,0 l/m 3,9 km/h (1 Bft) S-SW 194 0 min 0,000 mm 0,0 UV-I 16 W/m 12,8 C 13,7 C 4,8 km/h (1 Bft) 95,65 %
04.06.2016 05:31 13,7 C 94 % 1010,0 hPa 0,0 l/m 3,1 km/h (1 Bft) S-SW 194 0 min 0,000 mm 0,0 UV-I 17 W/m 12,8 C 13,7 C 4,8 km/h (1 Bft) 100,00 %
04.06.2016 05:32 13,7 C 94 % 1010,0 hPa 0,0 l/m 2,8 km/h (1 Bft) S-SW 194 0 min 0,000 mm 0,0 UV-I 18 W/m 12,8 C 13,7 C 3,2 km/h (1 Bft) 95,65 %
04.06.2016 05:33 13,7 C 94 % 1010,0 hPa 0,0 l/m 2,1 km/h (1 Bft) S-SW 194 0 min 0,000 mm 0,0 UV-I 19 W/m 12,8 C 13,7 C 3,2 km/h (1 Bft) 96,30 %
04.06.2016 05:34 13,7 C 95 % 1009,9 hPa 0,0 l/m 3,0 km/h (1 Bft) S-SW 194 0 min 0,000 mm 0,0 UV-I 19 W/m 12,9 C 13,7 C 4,8 km/h (1 Bft) 100,00 %
04.06.2016 05:35 13,7 C 95 % 1010,0 hPa 0,0 l/m 1,9 km/h (1 Bft) S-SW 194 0 min 0,000 mm 0,0 UV-I 21 W/m 12,9 C 13,7 C 3,2 km/h (1 Bft) 95,83 %
04.06.2016 05:36 13,7 C 95 % 1010,0 hPa 0,0 l/m 1,9 km/h (1 Bft) S-SW 194 0 min 0,000 mm 0,0 UV-I 21 W/m 12,9 C 13,7 C 3,2 km/h (1 Bft) 100,00 %
04.06.2016 05:37 13,7 C 95 % 1010,0 hPa 0,0 l/m 1,9 km/h (1 Bft) S-SW 194 0 min 0,000 mm 0,0 UV-I 23 W/m 12,9 C 13,7 C 3,2 km/h (1 Bft) 95,83 %
04.06.2016 05:38 13,7 C 95 % 1010,0 hPa 0,0 l/m 1,7 km/h (1 Bft) S-SW 194 0 min 0,000 mm 0,0 UV-I 24 W/m 12,9 C 13,7 C 3,2 km/h (1 Bft) 100,00 %
04.06.2016 05:39 13,7 C 95 % 1010,0 hPa 0,0 l/m 1,2 km/h (1 Bft) S-SW 194 0 min 0,000 mm 0,0 UV-I 25 W/m 12,9 C 13,7 C 3,2 km/h (1 Bft) 95,83 %
04.06.2016 05:40 13,7 C 95 % 1010,0 hPa 0,0 l/m 1,5 km/h (1 Bft) S-SW 194 0 min 0,000 mm 0,0 UV-I 26 W/m 12,9 C 13,7 C 3,2 km/h (1 Bft) 100,00 %
04.06.2016 05:41 13,7 C 95 % 1010,0 hPa 0,0 l/m 2,7 km/h (1 Bft) S-SW 194 0 min 0,000 mm 0,0 UV-I 26 W/m 12,9 C 13,7 C 3,2 km/h (1 Bft) 97,14 %
04.06.2016 05:42 13,8 C 95 % 1010,0 hPa 0,0 l/m 1,1 km/h (1 Bft) S-SW 194 0 min 0,000 mm 0,0 UV-I 28 W/m 13,0 C 13,8 C 1,6 km/h (1 Bft) 93,33 %
04.06.2016 05:43 13,8 C 95 % 1010,1 hPa 0,0 l/m 2,0 km/h (1 Bft) S 189 0 min 0,000 mm 0,0 UV-I 30 W/m 13,0 C 13,8 C 3,2 km/h (1 Bft) 100,00 %
04.06.2016 05:44 13,8 C 95 % 1010,0 hPa 0,0 l/m 2,8 km/h (1 Bft) S 189 0 min 0,000 mm 0,0 UV-I 32 W/m 13,0 C 13,8 C 3,2 km/h (1 Bft) 95,83 %
04.06.2016 05:45 13,8 C 95 % 1010,1 hPa 0,0 l/m 2,5 km/h (1 Bft) S 189 0 min 0,000 mm 0,0 UV-I 33 W/m 13,0 C 13,8 C 4,8 km/h (1 Bft) 100,00 %
04.06.2016 05:46 13,8 C 95 % 1010,1 hPa 0,0 l/m 3,6 km/h (1 Bft) S 189 0 min 0,000 mm 0,0 UV-I 36 W/m 13,0 C 13,8 C 4,8 km/h (1 Bft) 95,83 %
04.06.2016 05:47 13,8 C 95 % 1010,1 hPa 0,0 l/m 3,3 km/h (1 Bft) S 189 0 min 0,000 mm 0,0 UV-I 39 W/m 13,0 C 13,8 C 4,8 km/h (1 Bft) 100,00 %
04.06.2016 05:48 13,8 C 95 % 1010,0 hPa 0,0 l/m 3,1 km/h (1 Bft) S 189 0 min 0,000 mm 0,0 UV-I 39 W/m 13,0 C 13,8 C 4,8 km/h (1 Bft) 95,83 %
04.06.2016 05:49 13,9 C 95 % 1010,0 hPa 0,0 l/m 2,4 km/h (1 Bft) S 189 0 min 0,000 mm 0,0 UV-I 41 W/m 13,1 C 13,9 C 4,8 km/h (1 Bft) 100,00 %
04.06.2016 05:50 13,9 C 95 % 1010,1 hPa 0,0 l/m 0,8 km/h (0 Bft) S 189 0 min 0,000 mm 0,0 UV-I 43 W/m 13,1 C 13,9 C 1,6 km/h (1 Bft) 96,30 %
04.06.2016 05:51 13,9 C 95 % 1010,1 hPa 0,0 l/m 0,0 km/h (0 Bft) S 189 0 min 0,000 mm 0,0 UV-I 45 W/m 13,1 C 13,9 C 0,0 km/h (0 Bft) 95,65 %
04.06.2016 05:52 13,9 C 95 % 1010,1 hPa 0,0 l/m 0,1 km/h (0 Bft) S 189 0 min 0,000 mm 0,0 UV-I 47 W/m 13,1 C 13,9 C 1,6 km/h (1 Bft) 95,83 %
04.06.2016 05:53 13,9 C 95 % 1010,1 hPa 0,0 l/m 0,9 km/h (0 Bft) S 189 0 min 0,000 mm 0,0 UV-I 49 W/m 13,1 C 13,9 C 1,6 km/h (1 Bft) 95,65 %
04.06.2016 05:54 13,9 C 95 % 1010,1 hPa 0,0 l/m 1,1 km/h (1 Bft) S 189 0 min 0,000 mm 0,0 UV-I 51 W/m 13,1 C 13,9 C 1,6 km/h (1 Bft) 100,00 %
04.06.2016 05:55 13,9 C 95 % 1010,1 hPa 0,0 l/m 2,3 km/h (1 Bft) S 189 0 min 0,000 mm 0,0 UV-I 52 W/m 13,1 C 13,9 C 3,2 km/h (1 Bft) 95,65 %
04.06.2016 05:56 13,9 C 95 % 1010,1 hPa 0,0 l/m 1,7 km/h (1 Bft) S 189 0 min 0,000 mm 0,0 UV-I 53 W/m 13,1 C 13,9 C 3,2 km/h (1 Bft) 100,00 %
04.06.2016 05:57 13,9 C 95 % 1010,1 hPa 0,0 l/m 1,3 km/h (1 Bft) S 189 0 min 0,000 mm 0,0 UV-I 55 W/m 13,1 C 13,9 C 3,2 km/h (1 Bft) 95,65 %
04.06.2016 05:58 13,9 C 95 % 1010,1 hPa 0,0 l/m 1,9 km/h (1 Bft) S 189 0 min 0,000 mm 0,0 UV-I 56 W/m 13,1 C 13,9 C 3,2 km/h (1 Bft) 95,83 %
04.06.2016 05:59 13,9 C 95 % 1010,1 hPa 0,0 l/m 1,3 km/h (1 Bft) S 189 0 min 0,000 mm 0,0 UV-I 54 W/m 13,1 C 13,9 C 3,2 km/h (1 Bft) 100,00 %
04.06.2016 06:00 13,9 C 95 % 1010,1 hPa 0,0 l/m 1,6 km/h (1 Bft) S 189 0 min 0,025 mm 0,0 UV-I 54 W/m 13,1 C 13,9 C 3,2 km/h (1 Bft) 96,30 %
04.06.2016 06:01 13,9 C 95 % 1010,1 hPa 0,0 l/m 1,3 km/h (1 Bft) S 189 0 min 0,000 mm 0,0 UV-I 55 W/m 13,1 C 13,9 C 3,2 km/h (1 Bft) 100,00 %
04.06.2016 06:02 13,9 C 95 % 1010,1 hPa 0,0 l/m 1,8 km/h (1 Bft) S 189 0 min 0,000 mm 0,0 UV-I 57 W/m 13,1 C 13,9 C 3,2 km/h (1 Bft) 95,83 %
04.06.2016 06:03 13,9 C 95 % 1010,1 hPa 0,0 l/m 2,7 km/h (1 Bft) S 189 0 min 0,000 mm 0,0 UV-I 59 W/m 13,1 C 13,9 C 4,8 km/h (1 Bft) 100,00 %
04.06.2016 06:04 13,9 C 95 % 1010,1 hPa 0,0 l/m 2,3 km/h (1 Bft) S 189 0 min 0,000 mm 0,0 UV-I 60 W/m 13,1 C 13,9 C 3,2 km/h (1 Bft) 95,65 %
04.06.2016 06:05 13,9 C 95 % 1010,1 hPa 0,0 l/m 1,6 km/h (1 Bft) S-SW 199 0 min 0,000 mm 0,0 UV-I 62 W/m 13,1 C 13,9 C 3,2 km/h (1 Bft) 95,83 %
04.06.2016 06:06 13,9 C 94 % 1010,1 hPa 0,0 l/m 3,0 km/h (1 Bft) S-SW 199 0 min 0,000 mm 0,0 UV-I 62 W/m 12,9 C 13,9 C 3,2 km/h (1 Bft) 100,00 %
04.06.2016 06:07 13,9 C 94 % 1010,1 hPa 0,0 l/m 3,8 km/h (1 Bft) S-SW 204 0 min 0,000 mm 0,0 UV-I 62 W/m 12,9 C 13,9 C 4,8 km/h (1 Bft) 100,00 %
04.06.2016 06:08 13,9 C 95 % 1010,1 hPa 0,0 l/m 1,9 km/h (1 Bft) S-SW 204 0 min 0,000 mm 0,0 UV-I 62 W/m 13,1 C 13,9 C 3,2 km/h (1 Bft) 95,65 %
04.06.2016 06:09 13,9 C 94 % 1010,1 hPa 0,0 l/m 1,6 km/h (1 Bft) S-SW 204 0 min 0,000 mm 0,0 UV-I 63 W/m 12,9 C 13,9 C 3,2 km/h (1 Bft) 100,00 %
04.06.2016 06:10 13,9 C 94 % 1010,1 hPa 0,0 l/m 2,0 km/h (1 Bft) S-SW 204 0 min 0,000 mm 0,0 UV-I 63 W/m 12,9 C 13,9 C 3,2 km/h (1 Bft) 100,00 %
04.06.2016 06:11 13,9 C 94 % 1010,1 hPa 0,0 l/m 2,6 km/h (1 Bft) S-SW 204 0 min 0,000 mm 0,0 UV-I 65 W/m 12,9 C 13,9 C 4,8 km/h (1 Bft) 100,00 %
04.06.2016 06:12 13,9 C 94 % 1010,1 hPa 0,0 l/m 0,9 km/h (0 Bft) S-SW 204 0 min 0,000 mm 0,0 UV-I 65 W/m 12,9 C 13,9 C 1,6 km/h (1 Bft) 95,65 %
04.06.2016 06:13 13,9 C 95 % 1010,2 hPa 0,0 l/m 1,8 km/h (1 Bft) S-SW 204 0 min 0,000 mm 0,0 UV-I 68 W/m 13,1 C 13,9 C 4,8 km/h (1 Bft) 100,00 %
04.06.2016 06:14 13,9 C 95 % 1010,2 hPa 0,0 l/m 1,7 km/h (1 Bft) S-SW 204 0 min 0,000 mm 0,0 UV-I 69 W/m 13,1 C 13,9 C 3,2 km/h (1 Bft) 100,00 %
04.06.2016 06:15 13,9 C 95 % 1010,2 hPa 0,0 l/m 3,2 km/h (1 Bft) S-SW 204 0 min 0,000 mm 0,0 UV-I 69 W/m 13,1 C 13,9 C 4,8 km/h (1 Bft) 100,00 %
04.06.2016 06:16 14,0 C 95 % 1010,2 hPa 0,0 l/m 3,6 km/h (1 Bft) S-SW 204 0 min 0,000 mm 0,0 UV-I 70 W/m 13,2 C 14,0 C 4,8 km/h (1 Bft) 100,00 %
04.06.2016 06:17 14,0 C 94 % 1010,2 hPa 0,0 l/m 2,7 km/h (1 Bft) S-SW 204 0 min 0,000 mm 0,0 UV-I 70 W/m 13,0 C 14,0 C 3,2 km/h (1 Bft) 96,30 %
04.06.2016 06:18 14,0 C 94 % 1010,2 hPa 0,0 l/m 1,8 km/h (1 Bft) S-SW 204 0 min 0,000 mm 0,0 UV-I 70 W/m 13,0 C 14,0 C 3,2 km/h (1 Bft) 95,65 %
04.06.2016 06:19 14,0 C 95 % 1010,2 hPa 0,0 l/m 1,6 km/h (1 Bft) S-SW 204 0 min 0,000 mm 0,0 UV-I 71 W/m 13,2 C 14,0 C 3,2 km/h (1 Bft) 100,00 %
04.06.2016 06:20 14,1 C 95 % 1010,2 hPa 0,0 l/m 2,4 km/h (1 Bft) S-SW 204 0 min 0,000 mm 0,0 UV-I 72 W/m 13,3 C 14,1 C 3,2 km/h (1 Bft) 100,00 %
04.06.2016 06:21 14,1 C 94 % 1010,2 hPa 0,0 l/m 2,3 km/h (1 Bft) S-SW 204 0 min 0,000 mm 0,0 UV-I 74 W/m 13,1 C 14,1 C 3,2 km/h (1 Bft) 100,00 %
04.06.2016 06:22 14,1 C 94 % 1010,2 hPa 0,0 l/m 2,2 km/h (1 Bft) S-SW 205 0 min 0,000 mm 0,0 UV-I 74 W/m 13,1 C 14,1 C 4,8 km/h (1 Bft) 95,65 %
04.06.2016 06:23 14,1 C 95 % 1010,2 hPa 0,0 l/m 1,7 km/h (1 Bft) S-SW 205 0 min 0,000 mm 0,0 UV-I 76 W/m 13,3 C 14,1 C 3,2 km/h (1 Bft) 100,00 %
04.06.2016 06:24 14,2 C 95 % 1010,2 hPa 0,0 l/m 2,1 km/h (1 Bft) S-SW 205 0 min 0,000 mm 0,0 UV-I 76 W/m 13,4 C 14,2 C 3,2 km/h (1 Bft) 95,83 %
04.06.2016 06:25 14,2 C 95 % 1010,2 hPa 0,0 l/m 1,5 km/h (1 Bft) S-SW 205 0 min 0,000 mm 0,0 UV-I 78 W/m 13,4 C 14,2 C 3,2 km/h (1 Bft) 100,00 %
04.06.2016 06:26 14,2 C 95 % 1010,2 hPa 0,0 l/m 1,9 km/h (1 Bft) S-SW 205 0 min 0,000 mm 0,0 UV-I 80 W/m 13,4 C 14,2 C 3,2 km/h (1 Bft) 100,00 %
04.06.2016 06:27 14,3 C 95 % 1010,2 hPa 0,0 l/m 2,7 km/h (1 Bft) S-SW 207 0 min 0,000 mm 0,0 UV-I 81 W/m 13,5 C 14,3 C 4,8 km/h (1 Bft) 100,00 %
04.06.2016 06:28 14,3 C 95 % 1010,2 hPa 0,0 l/m 2,1 km/h (1 Bft) S-SW 207 0 min 0,000 mm 0,0 UV-I 83 W/m 13,5 C 14,3 C 3,2 km/h (1 Bft) 100,00 %
04.06.2016 06:29 14,3 C 95 % 1010,2 hPa 0,0 l/m 1,7 km/h (1 Bft) S-SW 207 0 min 0,000 mm 0,0 UV-I 83 W/m 13,5 C 14,3 C 3,2 km/h (1 Bft) 100,00 %
04.06.2016 06:30 14,3 C 94 % 1010,2 hPa 0,0 l/m 0,1 km/h (0 Bft) S-SW 207 0 min 0,000 mm 0,0 UV-I 84 W/m 13,3 C 14,3 C 1,6 km/h (1 Bft) 100,00 %
04.06.2016 06:31 14,3 C 94 % 1010,2 hPa 0,0 l/m 0,0 km/h (0 Bft) S-SW 207 0 min 0,000 mm 0,0 UV-I 86 W/m 13,3 C 14,3 C 0,0 km/h (0 Bft) 95,65 %
04.06.2016 06:32 14,4 C 94 % 1010,2 hPa 0,0 l/m 0,0 km/h (0 Bft) S-SW 207 0 min 0,000 mm 0,0 UV-I 96 W/m 13,4 C 14,4 C 0,0 km/h (0 Bft) 100,00 %
04.06.2016 06:33 14,4 C 94 % 1010,2 hPa 0,0 l/m 0,0 km/h (0 Bft) S-SW 207 0 min 0,000 mm 0,0 UV-I 106 W/m 13,4 C 14,4 C 0,0 km/h (0 Bft) 100,00 %
04.06.2016 06:34 14,4 C 94 % 1010,2 hPa 0,0 l/m 0,0 km/h (0 Bft) S-SW 207 1 min 0,000 mm 0,0 UV-I 117 W/m 13,4 C 14,4 C 0,0 km/h (0 Bft) 100,00 %
04.06.2016 06:35 14,4 C 94 % 1010,2 hPa 0,0 l/m 0,0 km/h (0 Bft) S-SW 207 1 min 0,000 mm 0,0 UV-I 119 W/m 13,4 C 14,4 C 0,0 km/h (0 Bft) 100,00 %
04.06.2016 06:36 14,5 C 94 % 1010,2 hPa 0,0 l/m 0,0 km/h (0 Bft) S-SW 207 1 min 0,000 mm 0,0 UV-I 129 W/m 13,5 C 14,5 C 0,0 km/h (0 Bft) 95,65 %
04.06.2016 06:37 14,5 C 94 % 1010,2 hPa 0,0 l/m 0,1 km/h (0 Bft) S-SW 207 1 min 0,000 mm 0,0 UV-I 123 W/m 13,5 C 14,5 C 1,6 km/h (1 Bft) 100,00 %
04.06.2016 06:38 14,5 C 94 % 1010,2 hPa 0,0 l/m 0,0 km/h (0 Bft) S-SW 207 0 min 0,000 mm 0,0 UV-I 98 W/m 13,5 C 14,5 C 0,0 km/h (0 Bft) 95,65 %
04.06.2016 06:39 14,6 C 94 % 1010,2 hPa 0,0 l/m 0,0 km/h (0 Bft) S-SW 207 0 min 0,000 mm 0,0 UV-I 82 W/m 13,6 C 14,6 C 0,0 km/h (0 Bft) 100,00 %
04.06.2016 06:40 14,6 C 94 % 1010,2 hPa 0,0 l/m 0,0 km/h (0 Bft) S-SW 207 0 min 0,000 mm 0,0 UV-I 81 W/m 13,6 C 14,6 C 0,0 km/h (0 Bft) 95,65 %
04.06.2016 06:41 14,6 C 94 % 1010,2 hPa 0,0 l/m 0,1 km/h (0 Bft) S-SW 207 0 min 0,000 mm 0,0 UV-I 81 W/m 13,6 C 14,6 C 1,6 km/h (1 Bft) 100,00 %
04.06.2016 06:42 14,6 C 95 % 1010,2 hPa 0,0 l/m 0,0 km/h (0 Bft) S-SW 207 0 min 0,000 mm 0,0 UV-I 82 W/m 13,8 C 14,6 C 0,0 km/h (0 Bft) 95,65 %
04.06.2016 06:43 14,6 C 94 % 1010,2 hPa 0,0 l/m 0,0 km/h (0 Bft) S-SW 207 0 min 0,000 mm 0,0 UV-I 83 W/m 13,6 C 14,6 C 0,0 km/h (0 Bft) 100,00 %
04.06.2016 06:44 14,6 C 94 % 1010,2 hPa 0,0 l/m 0,9 km/h (0 Bft) S-SW 207 0 min 0,000 mm 0,0 UV-I 83 W/m 13,6 C 14,6 C 3,2 km/h (1 Bft) 95,65 %
04.06.2016 06:45 14,6 C 94 % 1010,2 hPa 0,0 l/m 1,6 km/h (1 Bft) S-SW 207 0 min 0,000 mm 0,0 UV-I 83 W/m 13,6 C 14,6 C 3,2 km/h (1 Bft) 100,00 %
04.06.2016 06:46 14,6 C 94 % 1010,2 hPa 0,0 l/m 1,5 km/h (1 Bft) S-SW 207 0 min 0,000 mm 0,0 UV-I 83 W/m 13,6 C 14,6 C 3,2 km/h (1 Bft) 95,65 %
04.06.2016 06:47 14,6 C 94 % 1010,2 hPa 0,0 l/m 1,7 km/h (1 Bft) S-SW 207 0 min 0,000 mm 0,0 UV-I 83 W/m 13,6 C 14,6 C 3,2 km/h (1 Bft) 100,00 %
04.06.2016 06:48 14,6 C 94 % 1010,2 hPa 0,0 l/m 2,3 km/h (1 Bft) S-SW 207 0 min 0,000 mm 0,0 UV-I 83 W/m 13,6 C 14,6 C 3,2 km/h (1 Bft) 100,00 %
04.06.2016 06:49 14,7 C 93 % 1010,2 hPa 0,0 l/m 1,4 km/h (1 Bft) S-SW 207 0 min 0,000 mm 0,0 UV-I 83 W/m 13,6 C 14,7 C 1,6 km/h (1 Bft) 100,00 %
04.06.2016 06:50 14,7 C 93 % 1010,2 hPa 0,0 l/m 0,8 km/h (0 Bft) S-SW 207 0 min 0,000 mm 0,0 UV-I 83 W/m 13,6 C 14,7 C 1,6 km/h (1 Bft) 100,00 %
04.06.2016 06:51 14,7 C 93 % 1010,2 hPa 0,0 l/m 0,3 km/h (0 Bft) S-SW 207 0 min 0,000 mm 0,0 UV-I 83 W/m 13,6 C 14,7 C 1,6 km/h (1 Bft) 100,00 %
04.06.2016 06:52 14,7 C 93 % 1010,2 hPa 0,0 l/m 1,8 km/h (1 Bft) S-SW 207 0 min 0,000 mm 0,0 UV-I 84 W/m 13,6 C 14,7 C 3,2 km/h (1 Bft) 95,65 %
04.06.2016 06:53 14,7 C 93 % 1010,2 hPa 0,0 l/m 1,3 km/h (1 Bft) S-SW 207 0 min 0,000 mm 0,0 UV-I 86 W/m 13,6 C 14,7 C 1,6 km/h (1 Bft) 100,00 %
04.06.2016 06:54 14,7 C 93 % 1010,2 hPa 0,0 l/m 0,8 km/h (0 Bft) S-SW 207 0 min 0,000 mm 0,0 UV-I 87 W/m 13,6 C 14,7 C 1,6 km/h (1 Bft) 100,00 %
04.06.2016 06:55 14,7 C 93 % 1010,2 hPa 0,0 l/m 0,2 km/h (0 Bft) S-SW 207 0 min 0,000 mm 0,0 UV-I 89 W/m 13,6 C 14,7 C 1,6 km/h (1 Bft) 100,00 %
04.06.2016 06:56 14,7 C 93 % 1010,3 hPa 0,0 l/m 0,0 km/h (0 Bft) S-SW 207 0 min 0,000 mm 0,0 UV-I 90 W/m 13,6 C 14,7 C 0,0 km/h (0 Bft) 95,65 %
04.06.2016 06:57 14,7 C 93 % 1010,3 hPa 0,0 l/m 0,0 km/h (0 Bft) S-SW 207 0 min 0,000 mm 0,0 UV-I 90 W/m 13,6 C 14,7 C 0,0 km/h (0 Bft) 95,83 %
04.06.2016 06:58 14,7 C 93 % 1010,3 hPa 0,0 l/m 0,0 km/h (0 Bft) S-SW 207 0 min 0,000 mm 0,0 UV-I 91 W/m 13,6 C 14,7 C 0,0 km/h (0 Bft) 100,00 %
04.06.2016 06:59 14,7 C 93 % 1010,3 hPa 0,0 l/m 0,0 km/h (0 Bft) S-SW 207 0 min 0,000 mm 0,0 UV-I 91 W/m 13,6 C 14,7 C 0,0 km/h (0 Bft) 100,00 %
04.06.2016 07:00 14,7 C 93 % 1010,3 hPa 0,0 l/m 0,0 km/h (0 Bft) S-SW 207 0 min 0,000 mm 0,0 UV-I 92 W/m 13,6 C 14,7 C 0,0 km/h (0 Bft) 100,00 %
04.06.2016 07:01 14,7 C 94 % 1010,3 hPa 0,0 l/m 0,0 km/h (0 Bft) S-SW 207 0 min 0,051 mm 0,0 UV-I 93 W/m 13,7 C 14,7 C 0,0 km/h (0 Bft) 100,00 %
04.06.2016 07:02 14,8 C 94 % 1010,3 hPa 0,0 l/m 0,0 km/h (0 Bft) S-SW 207 0 min 0,000 mm 0,0 UV-I 93 W/m 13,8 C 14,8 C 0,0 km/h (0 Bft) 100,00 %
04.06.2016 07:03 14,8 C 94 % 1010,3 hPa 0,0 l/m 0,0 km/h (0 Bft) S-SW 207 0 min 0,000 mm 0,0 UV-I 93 W/m 13,8 C 14,8 C 0,0 km/h (0 Bft) 95,65 %
04.06.2016 07:04 14,8 C 94 % 1010,3 hPa 0,0 l/m 0,0 km/h (0 Bft) S-SW 207 0 min 0,000 mm 0,0 UV-I 93 W/m 13,8 C 14,8 C 0,0 km/h (0 Bft) 100,00 %
04.06.2016 07:05 14,8 C 94 % 1010,3 hPa 0,0 l/m 0,0 km/h (0 Bft) S-SW 207 0 min 0,000 mm 0,0 UV-I 94 W/m 13,8 C 14,8 C 0,0 km/h (0 Bft) 95,65 %
04.06.2016 07:06 14,8 C 94 % 1010,3 hPa 0,0 l/m 0,0 km/h (0 Bft) S-SW 207 0 min 0,000 mm 0,0 UV-I 95 W/m 13,8 C 14,8 C 0,0 km/h (0 Bft) 100,00 %
04.06.2016 07:07 14,8 C 93 % 1010,3 hPa 0,0 l/m 0,0 km/h (0 Bft) S-SW 207 0 min 0,000 mm 0,0 UV-I 96 W/m 13,7 C 14,8 C 0,0 km/h (0 Bft) 100,00 %
04.06.2016 07:08 14,8 C 93 % 1010,3 hPa 0,0 l/m 0,0 km/h (0 Bft) S-SW 207 0 min 0,000 mm 0,0 UV-I 97 W/m 13,7 C 14,8 C 0,0 km/h (0 Bft) 100,00 %
04.06.2016 07:09 14,8 C 93 % 1010,3 hPa 0,0 l/m 0,6 km/h (0 Bft) S-SW 207 0 min 0,000 mm 0,0 UV-I 98 W/m 13,7 C 14,8 C 1,6 km/h (1 Bft) 100,00 %
04.06.2016 07:10 14,8 C 93 % 1010,3 hPa 0,0 l/m 1,6 km/h (1 Bft) S-SW 207 0 min 0,000 mm 0,0 UV-I 100 W/m 13,7 C 14,8 C 3,2 km/h (1 Bft) 100,00 %
04.06.2016 07:11 14,8 C 93 % 1010,3 hPa 0,0 l/m 1,8 km/h (1 Bft) S-SW 207 0 min 0,000 mm 0,0 UV-I 103 W/m 13,7 C 14,8 C 3,2 km/h (1 Bft) 100,00 %
04.06.2016 07:12 14,9 C 93 % 1010,3 hPa 0,0 l/m 1,5 km/h (1 Bft) S-SW 207 0 min 0,000 mm 0,0 UV-I 106 W/m 13,8 C 14,9 C 1,6 km/h (1 Bft) 100,00 %
04.06.2016 07:13 14,9 C 93 % 1010,3 hPa 0,0 l/m 1,7 km/h (1 Bft) S-SW 207 0 min 0,000 mm 0,0 UV-I 108 W/m 13,8 C 14,9 C 3,2 km/h (1 Bft) 100,00 %
04.06.2016 07:14 14,8 C 93 % 1010,3 hPa 0,0 l/m 3,2 km/h (1 Bft) S-SW 207 0 min 0,000 mm 0,0 UV-I 110 W/m 13,7 C 14,8 C 4,8 km/h (1 Bft) 100,00 %
04.06.2016 07:15 14,8 C 93 % 1010,3 hPa 0,0 l/m 2,6 km/h (1 Bft) S-SW 207 0 min 0,000 mm 0,0 UV-I 113 W/m 13,7 C 14,8 C 3,2 km/h (1 Bft) 100,00 %
04.06.2016 07:16 14,9 C 93 % 1010,3 hPa 0,0 l/m 2,8 km/h (1 Bft) S-SW 207 0 min 0,000 mm 0,0 UV-I 114 W/m 13,8 C 14,9 C 3,2 km/h (1 Bft) 100,00 %
04.06.2016 07:17 14,9 C 94 % 1010,3 hPa 0,0 l/m 1,7 km/h (1 Bft) S-SW 207 0 min 0,000 mm 0,0 UV-I 117 W/m 13,9 C 14,9 C 3,2 km/h (1 Bft) 100,00 %
04.06.2016 07:18 14,9 C 93 % 1010,3 hPa 0,0 l/m 2,4 km/h (1 Bft) S-SW 207 0 min 0,000 mm 0,0 UV-I 119 W/m 13,8 C 14,9 C 3,2 km/h (1 Bft) 100,00 %
04.06.2016 07:19 14,9 C 93 % 1010,3 hPa 0,0 l/m 3,6 km/h (1 Bft) SW 225 0 min 0,000 mm 0,0 UV-I 120 W/m 13,8 C 14,9 C 6,4 km/h (2 Bft) 95,65 %
04.06.2016 07:20 14,9 C 93 % 1010,3 hPa 0,0 l/m 3,8 km/h (1 Bft) SW 225 0 min 0,000 mm 0,0 UV-I 122 W/m 13,8 C 14,9 C 4,8 km/h (1 Bft) 100,00 %
04.06.2016 07:21 15,0 C 93 % 1010,3 hPa 0,0 l/m 3,7 km/h (1 Bft) SW 225 0 min 0,000 mm 0,0 UV-I 125 W/m 13,9 C 15,0 C 4,8 km/h (1 Bft) 100,00 %
04.06.2016 07:22 15,0 C 93 % 1010,3 hPa 0,0 l/m 3,6 km/h (1 Bft) SW 225 0 min 0,000 mm 0,0 UV-I 128 W/m 13,9 C 15,0 C 4,8 km/h (1 Bft) 100,00 %
04.06.2016 07:23 15,1 C 94 % 1010,3 hPa 0,0 l/m 3,6 km/h (1 Bft) SW 225 0 min 0,000 mm 0,0 UV-I 131 W/m 14,1 C 15,1 C 4,8 km/h (1 Bft) 100,00 %
04.06.2016 07:24 15,1 C 93 % 1010,3 hPa 0,0 l/m 3,1 km/h (1 Bft) SW 225 0 min 0,000 mm 0,0 UV-I 134 W/m 14,0 C 15,1 C 4,8 km/h (1 Bft) 100,00 %
04.06.2016 07:25 15,1 C 93 % 1010,3 hPa 0,0 l/m 3,8 km/h (1 Bft) SW 225 0 min 0,000 mm 0,0 UV-I 138 W/m 14,0 C 15,1 C 6,4 km/h (2 Bft) 100,00 %
04.06.2016 07:26 15,1 C 94 % 1010,3 hPa 0,0 l/m 3,2 km/h (1 Bft) SW 234 0 min 0,000 mm 0,0 UV-I 141 W/m 14,1 C 15,1 C 4,8 km/h (1 Bft) 100,00 %
04.06.2016 07:27 15,1 C 93 % 1010,3 hPa 0,0 l/m 2,9 km/h (1 Bft) SW 234 0 min 0,000 mm 0,0 UV-I 144 W/m 14,0 C 15,1 C 4,8 km/h (1 Bft) 100,00 %
04.06.2016 07:28 15,1 C 93 % 1010,3 hPa 0,0 l/m 4,3 km/h (1 Bft) SW 234 0 min 0,000 mm 0,0 UV-I 148 W/m 14,0 C 15,1 C 6,4 km/h (2 Bft) 100,00 %
04.06.2016 07:29 15,1 C 93 % 1010,4 hPa 0,0 l/m 2,8 km/h (1 Bft) SW 234 0 min 0,000 mm 0,5 UV-I 150 W/m 14,0 C 15,1 C 4,8 km/h (1 Bft) 100,00 %
04.06.2016 07:30 15,1 C 94 % 1010,4 hPa 0,0 l/m 4,2 km/h (1 Bft) SW 233 0 min 0,000 mm 0,5 UV-I 154 W/m 14,1 C 15,1 C 6,4 km/h (2 Bft) 100,00 %
04.06.2016 07:31 15,1 C 93 % 1010,4 hPa 0,0 l/m 4,2 km/h (1 Bft) SW 231 0 min 0,000 mm 0,5 UV-I 157 W/m 14,0 C 15,1 C 4,8 km/h (1 Bft) 100,00 %
04.06.2016 07:32 15,2 C 93 % 1010,3 hPa 0,0 l/m 2,7 km/h (1 Bft) SW 231 0 min 0,000 mm 0,5 UV-I 161 W/m 14,1 C 15,2 C 3,2 km/h (1 Bft) 100,00 %
04.06.2016 07:33 15,2 C 94 % 1010,3 hPa 0,0 l/m 2,4 km/h (1 Bft) SW 231 0 min 0,000 mm 0,5 UV-I 163 W/m 14,2 C 15,2 C 3,2 km/h (1 Bft) 100,00 %
04.06.2016 07:34 15,2 C 93 % 1010,4 hPa 0,0 l/m 2,6 km/h (1 Bft) SW 232 0 min 0,000 mm 0,5 UV-I 167 W/m 14,1 C 15,2 C 4,8 km/h (1 Bft) 95,65 %
04.06.2016 07:35 15,2 C 93 % 1010,4 hPa 0,0 l/m 5,0 km/h (1 Bft) W-SW 245 0 min 0,000 mm 0,5 UV-I 170 W/m 14,1 C 15,2 C 6,4 km/h (2 Bft) 95,83 %
04.06.2016 07:36 15,3 C 93 % 1010,4 hPa 0,0 l/m 6,6 km/h (2 Bft) W-SW 255 0 min 0,000 mm 0,5 UV-I 171 W/m 14,2 C 15,2 C 11,3 km/h (2 Bft) 100,00 %
04.06.2016 07:37 15,3 C 93 % 1010,4 hPa 0,0 l/m 4,2 km/h (1 Bft) W-SW 252 0 min 0,000 mm 0,5 UV-I 172 W/m 14,2 C 15,3 C 6,4 km/h (2 Bft) 93,33 %
04.06.2016 07:38 15,3 C 93 % 1010,4 hPa 0,0 l/m 4,2 km/h (1 Bft) W-SW 250 0 min 0,000 mm 0,5 UV-I 174 W/m 14,2 C 15,3 C 6,4 km/h (2 Bft) 100,00 %
04.06.2016 07:39 15,3 C 93 % 1010,4 hPa 0,0 l/m 4,5 km/h (1 Bft) W-SW 250 0 min 0,000 mm 0,5 UV-I 174 W/m 14,2 C 15,3 C 6,4 km/h (2 Bft) 96,15 %
04.06.2016 07:40 15,3 C 93 % 1010,4 hPa 0,0 l/m 4,8 km/h (1 Bft) W-SW 255 0 min 0,000 mm 0,6 UV-I 176 W/m 14,2 C 15,3 C 6,4 km/h (2 Bft) 100,00 %
04.06.2016 07:41 15,3 C 93 % 1010,4 hPa 0,0 l/m 5,1 km/h (1 Bft) W-SW 246 0 min 0,000 mm 0,6 UV-I 178 W/m 14,2 C 15,3 C 6,4 km/h (2 Bft) 91,30 %
04.06.2016 07:42 15,3 C 93 % 1010,4 hPa 0,0 l/m 4,1 km/h (1 Bft) W-SW 244 0 min 0,000 mm 0,6 UV-I 179 W/m 14,2 C 15,3 C 4,8 km/h (1 Bft) 100,00 %
04.06.2016 07:43 15,4 C 93 % 1010,5 hPa 0,0 l/m 2,7 km/h (1 Bft) W-SW 244 0 min 0,000 mm 0,6 UV-I 182 W/m 14,3 C 15,4 C 4,8 km/h (1 Bft) 96,15 %
04.06.2016 07:44 15,4 C 93 % 1010,5 hPa 0,0 l/m 3,1 km/h (1 Bft) W-SW 244 0 min 0,000 mm 0,6 UV-I 185 W/m 14,3 C 15,4 C 4,8 km/h (1 Bft) 95,83 %
04.06.2016 07:45 15,4 C 93 % 1010,5 hPa 0,0 l/m 3,4 km/h (1 Bft) W-SW 238 0 min 0,000 mm 0,6 UV-I 188 W/m 14,3 C 15,4 C 4,8 km/h (1 Bft) 100,00 %
04.06.2016 07:46 15,4 C 93 % 1010,5 hPa 0,0 l/m 4,1 km/h (1 Bft) SW 219 0 min 0,000 mm 0,6 UV-I 192 W/m 14,3 C 15,4 C 6,4 km/h (2 Bft) 95,83 %
04.06.2016 07:47 15,4 C 93 % 1010,5 hPa 0,0 l/m 2,2 km/h (1 Bft) SW 219 0 min 0,000 mm 0,6 UV-I 196 W/m 14,3 C 15,4 C 3,2 km/h (1 Bft) 96,15 %
04.06.2016 07:48 15,4 C 93 % 1010,5 hPa 0,0 l/m 1,8 km/h (1 Bft) SW 219 0 min 0,000 mm 0,7 UV-I 201 W/m 14,3 C 15,4 C 3,2 km/h (1 Bft) 95,83 %
04.06.2016 07:49 15,5 C 93 % 1010,5 hPa 0,0 l/m 2,8 km/h (1 Bft) W 273 0 min 0,000 mm 0,7 UV-I 207 W/m 14,4 C 15,5 C 4,8 km/h (1 Bft) 95,65 %
04.06.2016 07:50 15,6 C 93 % 1010,5 hPa 0,0 l/m 3,1 km/h (1 Bft) W 273 0 min 0,000 mm 0,7 UV-I 209 W/m 14,5 C 15,6 C 4,8 km/h (1 Bft) 95,83 %
04.06.2016 07:51 15,6 C 93 % 1010,5 hPa 0,0 l/m 3,7 km/h (1 Bft) W 273 0 min 0,000 mm 0,7 UV-I 213 W/m 14,5 C 15,6 C 4,8 km/h (1 Bft) 91,30 %
04.06.2016 07:52 15,6 C 93 % 1010,5 hPa 0,0 l/m 2,8 km/h (1 Bft) W 273 0 min 0,000 mm 0,7 UV-I 215 W/m 14,5 C 15,6 C 3,2 km/h (1 Bft) 100,00 %
04.06.2016 07:53 15,6 C 92 % 1010,5 hPa 0,0 l/m 2,7 km/h (1 Bft) W 273 0 min 0,000 mm 0,7 UV-I 218 W/m 14,3 C 15,6 C 3,2 km/h (1 Bft) 95,65 %
04.06.2016 07:54 15,6 C 93 % 1010,5 hPa 0,0 l/m 1,4 km/h (1 Bft) W 273 0 min 0,000 mm 0,7 UV-I 222 W/m 14,5 C 15,6 C 3,2 km/h (1 Bft) 100,00 %
04.06.2016 07:55 15,7 C 93 % 1010,5 hPa 0,0 l/m 1,3 km/h (1 Bft) W 273 0 min 0,000 mm 0,8 UV-I 227 W/m 14,6 C 15,7 C 3,2 km/h (1 Bft) 97,14 %
04.06.2016 07:56 15,7 C 92 % 1010,5 hPa 0,0 l/m 1,3 km/h (1 Bft) W 280 0 min 0,000 mm 0,8 UV-I 233 W/m 14,4 C 15,7 C 3,2 km/h (1 Bft) 100,00 %
04.06.2016 07:57 15,8 C 93 % 1010,5 hPa 0,0 l/m 1,5 km/h (1 Bft) W 280 1 min 0,000 mm 0,8 UV-I 242 W/m 14,7 C 15,8 C 3,2 km/h (1 Bft) 96,30 %
04.06.2016 07:58 15,8 C 93 % 1010,4 hPa 0,0 l/m 2,9 km/h (1 Bft) W 280 1 min 0,000 mm 0,8 UV-I 251 W/m 14,7 C 15,8 C 4,8 km/h (1 Bft) 95,65 %
04.06.2016 07:59 15,9 C 93 % 1010,5 hPa 0,0 l/m 4,7 km/h (1 Bft) W-NW 284 1 min 0,000 mm 0,9 UV-I 268 W/m 14,8 C 15,9 C 6,4 km/h (2 Bft) 92,59 %
04.06.2016 08:00 15,9 C 91 % 1010,4 hPa 0,0 l/m 5,3 km/h (1 Bft) W 259 1 min 0,076 mm 0,9 UV-I 313 W/m 14,4 C 15,9 C 8,0 km/h (2 Bft) 91,30 %
04.06.2016 08:01 15,9 C 91 % 1010,4 hPa 0,0 l/m 4,4 km/h (1 Bft) W-SW 244 1 min 0,000 mm 0,9 UV-I 327 W/m 14,4 C 15,9 C 8,0 km/h (2 Bft) 100,00 %
04.06.2016 08:02 15,9 C 89 % 1010,4 hPa 0,0 l/m 5,8 km/h (2 Bft) W 260 1 min 0,000 mm 1,0 UV-I 309 W/m 14,1 C 15,9 C 8,0 km/h (2 Bft) 95,65 %
04.06.2016 08:03 15,9 C 89 % 1010,4 hPa 0,0 l/m 4,8 km/h (1 Bft) W-SW 240 1 min 0,000 mm 1,0 UV-I 300 W/m 14,1 C 15,9 C 6,4 km/h (2 Bft) 100,00 %
04.06.2016 08:04 16,0 C 89 % 1010,4 hPa 0,0 l/m 3,9 km/h (1 Bft) W-SW 257 1 min 0,000 mm 1,0 UV-I 311 W/m 14,2 C 16,0 C 6,4 km/h (2 Bft) 95,65 %
04.06.2016 08:05 16,0 C 89 % 1010,5 hPa 0,0 l/m 3,2 km/h (1 Bft) W-SW 244 1 min 0,000 mm 1,0 UV-I 327 W/m 14,2 C 16,0 C 4,8 km/h (1 Bft) 100,00 %
04.06.2016 08:06 16,1 C 90 % 1010,5 hPa 0,0 l/m 4,7 km/h (1 Bft) W-SW 249 1 min 0,000 mm 1,1 UV-I 367 W/m 14,5 C 16,1 C 6,4 km/h (2 Bft) 91,30 %
04.06.2016 08:07 16,1 C 90 % 1010,5 hPa 0,0 l/m 5,3 km/h (1 Bft) W-SW 251 1 min 0,000 mm 1,1 UV-I 352 W/m 14,5 C 16,1 C 6,4 km/h (2 Bft) 100,00 %
04.06.2016 08:08 16,1 C 90 % 1010,5 hPa 0,0 l/m 3,1 km/h (1 Bft) W-SW 257 1 min 0,000 mm 1,1 UV-I 320 W/m 14,5 C 16,1 C 4,8 km/h (1 Bft) 100,00 %
04.06.2016 08:09 16,2 C 90 % 1010,4 hPa 0,0 l/m 3,6 km/h (1 Bft) W-SW 257 1 min 0,000 mm 1,1 UV-I 332 W/m 14,6 C 16,2 C 4,8 km/h (1 Bft) 100,00 %
04.06.2016 08:10 16,2 C 90 % 1010,5 hPa 0,0 l/m 2,6 km/h (1 Bft) W-SW 257 1 min 0,000 mm 1,1 UV-I 367 W/m 14,6 C 16,2 C 4,8 km/h (1 Bft) 100,00 %
04.06.2016 08:11 16,3 C 90 % 1010,5 hPa 0,0 l/m 1,5 km/h (1 Bft) W-SW 257 1 min 0,000 mm 1,1 UV-I 313 W/m 14,7 C 16,3 C 3,2 km/h (1 Bft) 100,00 %
04.06.2016 08:12 16,3 C 89 % 1010,5 hPa 0,0 l/m 1,0 km/h (0 Bft) W-SW 257 1 min 0,000 mm 1,1 UV-I 288 W/m 14,5 C 16,3 C 3,2 km/h (1 Bft) 100,00 %
04.06.2016 08:13 16,3 C 90 % 1010,5 hPa 0,0 l/m 4,6 km/h (1 Bft) W-SW 257 1 min 0,000 mm 1,1 UV-I 278 W/m 14,7 C 16,3 C 6,4 km/h (2 Bft) 95,83 %
04.06.2016 08:14 16,3 C 89 % 1010,5 hPa 0,0 l/m 2,2 km/h (1 Bft) W-SW 253 1 min 0,000 mm 1,1 UV-I 271 W/m 14,5 C 16,3 C 3,2 km/h (1 Bft) 100,00 %
04.06.2016 08:15 16,4 C 90 % 1010,5 hPa 0,0 l/m 3,0 km/h (1 Bft) W-SW 253 1 min 0,000 mm 1,1 UV-I 269 W/m 14,8 C 16,4 C 4,8 km/h (1 Bft) 100,00 %
04.06.2016 08:16 16,4 C 89 % 1010,6 hPa 0,0 l/m 2,5 km/h (1 Bft) W-SW 253 1 min 0,000 mm 1,1 UV-I 268 W/m 14,6 C 16,4 C 3,2 km/h (1 Bft) 100,00 %
04.06.2016 08:17 16,4 C 88 % 1010,5 hPa 0,0 l/m 1,7 km/h (1 Bft) W-SW 253 1 min 0,000 mm 1,1 UV-I 272 W/m 14,4 C 16,4 C 3,2 km/h (1 Bft) 92,31 %
04.06.2016 08:18 16,4 C 90 % 1010,5 hPa 0,0 l/m 1,4 km/h (1 Bft) W-SW 253 1 min 0,000 mm 1,1 UV-I 272 W/m 14,8 C 16,4 C 3,2 km/h (1 Bft) 100,00 %
04.06.2016 08:19 16,4 C 90 % 1010,6 hPa 0,0 l/m 0,6 km/h (0 Bft) W-SW 253 1 min 0,000 mm 1,1 UV-I 271 W/m 14,8 C 16,4 C 1,6 km/h (1 Bft) 100,00 %
04.06.2016 08:20 16,5 C 89 % 1010,5 hPa 0,0 l/m 1,1 km/h (1 Bft) W-SW 253 1 min 0,000 mm 1,1 UV-I 269 W/m 14,7 C 16,5 C 3,2 km/h (1 Bft) 100,00 %
04.06.2016 08:21 16,5 C 89 % 1010,5 hPa 0,0 l/m 2,3 km/h (1 Bft) W-SW 253 1 min 0,000 mm 1,1 UV-I 272 W/m 14,7 C 16,5 C 3,2 km/h (1 Bft) 100,00 %
04.06.2016 08:22 16,5 C 88 % 1010,5 hPa 0,0 l/m 0,7 km/h (0 Bft) W-SW 253 1 min 0,000 mm 1,1 UV-I 275 W/m 14,5 C 16,5 C 1,6 km/h (1 Bft) 100,00 %
04.06.2016 08:23 16,5 C 89 % 1010,6 hPa 0,0 l/m 0,1 km/h (0 Bft) W-SW 253 1 min 0,000 mm 1,2 UV-I 276 W/m 14,7 C 16,5 C 1,6 km/h (1 Bft) 100,00 %
04.06.2016 08:24 16,5 C 88 % 1010,5 hPa 0,0 l/m 2,6 km/h (1 Bft) W 259 1 min 0,000 mm 1,2 UV-I 273 W/m 14,5 C 16,5 C 4,8 km/h (1 Bft) 100,00 %
04.06.2016 08:25 16,5 C 88 % 1010,5 hPa 0,0 l/m 4,2 km/h (1 Bft) W-SW 248 0 min 0,000 mm 1,2 UV-I 266 W/m 14,5 C 16,5 C 4,8 km/h (1 Bft) 100,00 %
04.06.2016 08:26 16,5 C 88 % 1010,5 hPa 0,0 l/m 2,6 km/h (1 Bft) W-SW 248 0 min 0,000 mm 1,2 UV-I 256 W/m 14,5 C 16,5 C 3,2 km/h (1 Bft) 100,00 %
04.06.2016 08:27 16,5 C 88 % 1010,5 hPa 0,0 l/m 3,9 km/h (1 Bft) W 272 0 min 0,000 mm 1,2 UV-I 246 W/m 14,5 C 16,5 C 4,8 km/h (1 Bft) 100,00 %
04.06.2016 08:28 16,5 C 88 % 1010,5 hPa 0,0 l/m 3,4 km/h (1 Bft) W 272 0 min 0,000 mm 1,2 UV-I 241 W/m 14,5 C 16,5 C 4,8 km/h (1 Bft) 100,00 %
04.06.2016 08:29 16,5 C 87 % 1010,5 hPa 0,0 l/m 4,1 km/h (1 Bft) W-SW 245 0 min 0,000 mm 1,2 UV-I 240 W/m 14,3 C 16,5 C 6,4 km/h (2 Bft) 100,00 %
04.06.2016 08:30 16,5 C 87 % 1010,5 hPa 0,0 l/m 4,6 km/h (1 Bft) W-SW 239 0 min 0,000 mm 1,2 UV-I 243 W/m 14,3 C 16,5 C 6,4 km/h (2 Bft) 100,00 %
04.06.2016 08:31 16,5 C 87 % 1010,4 hPa 0,0 l/m 5,0 km/h (1 Bft) W 259 0 min 0,000 mm 1,2 UV-I 250 W/m 14,3 C 16,5 C 6,4 km/h (2 Bft) 100,00 %
04.06.2016 08:32 16,5 C 87 % 1010,4 hPa 0,0 l/m 4,3 km/h (1 Bft) W 277 0 min 0,000 mm 1,3 UV-I 257 W/m 14,3 C 16,5 C 6,4 km/h (2 Bft) 100,00 %
04.06.2016 08:33 16,4 C 87 % 1010,4 hPa 0,0 l/m 3,7 km/h (1 Bft) W 272 0 min 0,000 mm 1,3 UV-I 258 W/m 14,2 C 16,4 C 6,4 km/h (2 Bft) 100,00 %
04.06.2016 08:34 16,4 C 87 % 1010,5 hPa 0,0 l/m 1,1 km/h (1 Bft) W 272 0 min 0,000 mm 1,3 UV-I 260 W/m 14,2 C 16,4 C 1,6 km/h (1 Bft) 100,00 %
04.06.2016 08:35 16,5 C 88 % 1010,4 hPa 0,0 l/m 1,1 km/h (1 Bft) W 272 0 min 0,000 mm 1,3 UV-I 260 W/m 14,5 C 16,5 C 3,2 km/h (1 Bft) 100,00 %
04.06.2016 08:36 16,6 C 88 % 1010,5 hPa 0,0 l/m 0,7 km/h (0 Bft) W 272 0 min 0,000 mm 1,3 UV-I 260 W/m 14,6 C 16,6 C 1,6 km/h (1 Bft) 100,00 %
04.06.2016 08:37 16,6 C 88 % 1010,5 hPa 0,0 l/m 0,5 km/h (0 Bft) W 272 0 min 0,000 mm 1,3 UV-I 258 W/m 14,6 C 16,6 C 1,6 km/h (1 Bft) 100,00 %
04.06.2016 08:38 16,6 C 89 % 1010,5 hPa 0,0 l/m 1,5 km/h (1 Bft) W 265 0 min 0,000 mm 1,3 UV-I 254 W/m 14,8 C 16,6 C 3,2 km/h (1 Bft) 100,00 %
04.06.2016 08:39 16,7 C 88 % 1010,5 hPa 0,0 l/m 3,4 km/h (1 Bft) W 265 0 min 0,000 mm 1,3 UV-I 249 W/m 14,7 C 16,7 C 4,8 km/h (1 Bft) 100,00 %
04.06.2016 08:40 16,7 C 88 % 1010,5 hPa 0,0 l/m 2,9 km/h (1 Bft) W 265 0 min 0,000 mm 1,3 UV-I 248 W/m 14,7 C 16,7 C 4,8 km/h (1 Bft) 95,83 %
04.06.2016 08:41 16,7 C 87 % 1010,5 hPa 0,0 l/m 2,1 km/h (1 Bft) W 265 0 min 0,000 mm 1,3 UV-I 250 W/m 14,5 C 16,7 C 3,2 km/h (1 Bft) 95,83 %
04.06.2016 08:42 16,7 C 88 % 1010,5 hPa 0,0 l/m 0,6 km/h (0 Bft) W 265 0 min 0,000 mm 1,4 UV-I 251 W/m 14,7 C 16,7 C 3,2 km/h (1 Bft) 100,00 %
04.06.2016 08:43 16,7 C 88 % 1010,5 hPa 0,0 l/m 2,3 km/h (1 Bft) W 265 0 min 0,000 mm 1,4 UV-I 251 W/m 14,7 C 16,7 C 4,8 km/h (1 Bft) 100,00 %
04.06.2016 08:44 16,8 C 88 % 1010,5 hPa 0,0 l/m 1,6 km/h (1 Bft) W 279 0 min 0,000 mm 1,4 UV-I 248 W/m 14,8 C 16,8 C 3,2 km/h (1 Bft) 100,00 %
04.06.2016 08:45 16,8 C 88 % 1010,5 hPa 0,0 l/m 1,3 km/h (1 Bft) NW 304 0 min 0,000 mm 1,4 UV-I 248 W/m 14,8 C 16,8 C 4,8 km/h (1 Bft) 100,00 %
04.06.2016 08:46 16,8 C 88 % 1010,6 hPa 0,0 l/m 0,8 km/h (0 Bft) NW 304 0 min 0,000 mm 1,4 UV-I 249 W/m 14,8 C 16,8 C 3,2 km/h (1 Bft) 95,65 %
04.06.2016 08:47 16,8 C 88 % 1010,5 hPa 0,0 l/m 1,1 km/h (1 Bft) NW 304 0 min 0,000 mm 1,5 UV-I 253 W/m 14,8 C 16,8 C 1,6 km/h (1 Bft) 100,00 %
04.06.2016 08:48 16,8 C 88 % 1010,5 hPa 0,0 l/m 0,3 km/h (0 Bft) NW 304 0 min 0,000 mm 1,5 UV-I 264 W/m 14,8 C 16,8 C 3,2 km/h (1 Bft) 100,00 %
04.06.2016 08:49 16,8 C 88 % 1010,6 hPa 0,0 l/m 2,1 km/h (1 Bft) W-NW 292 0 min 0,000 mm 1,6 UV-I 299 W/m 14,8 C 16,8 C 4,8 km/h (1 Bft) 100,00 %
04.06.2016 08:50 16,8 C 88 % 1010,6 hPa 0,0 l/m 3,4 km/h (1 Bft) W 278 1 min 0,000 mm 1,7 UV-I 314 W/m 14,8 C 16,8 C 4,8 km/h (1 Bft) 100,00 %
04.06.2016 08:51 16,8 C 88 % 1010,6 hPa 0,0 l/m 2,3 km/h (1 Bft) S-SW 208 1 min 0,000 mm 1,7 UV-I 316 W/m 14,8 C 16,8 C 4,8 km/h (1 Bft) 100,00 %
04.06.2016 08:52 16,8 C 88 % 1010,6 hPa 0,0 l/m 1,1 km/h (1 Bft) S-SW 208 1 min 0,000 mm 1,7 UV-I 316 W/m 14,8 C 16,8 C 1,6 km/h (1 Bft) 95,83 %
04.06.2016 08:53 16,8 C 88 % 1010,6 hPa 0,0 l/m 0,2 km/h (0 Bft) S-SW 208 1 min 0,000 mm 1,8 UV-I 331 W/m 14,8 C 16,8 C 1,6 km/h (1 Bft) 100,00 %
04.06.2016 08:54 16,9 C 88 % 1010,6 hPa 0,0 l/m 0,4 km/h (0 Bft) SW 228 1 min 0,000 mm 1,9 UV-I 382 W/m 14,9 C 16,9 C 1,6 km/h (1 Bft) 100,00 %
04.06.2016 08:55 17,0 C 88 % 1010,6 hPa 0,0 l/m 2,9 km/h (1 Bft) W-SW 258 1 min 0,000 mm 1,9 UV-I 409 W/m 15,0 C 17,0 C 4,8 km/h (1 Bft) 100,00 %
04.06.2016 08:56 17,0 C 87 % 1010,6 hPa 0,0 l/m 2,4 km/h (1 Bft) W-SW 258 1 min 0,000 mm 1,9 UV-I 369 W/m 14,8 C 17,0 C 3,2 km/h (1 Bft) 100,00 %
04.06.2016 08:57 17,1 C 86 % 1010,6 hPa 0,0 l/m 1,8 km/h (1 Bft) W-SW 258 1 min 0,000 mm 2,1 UV-I 424 W/m 14,7 C 17,1 C 3,2 km/h (1 Bft) 100,00 %
04.06.2016 08:58 17,1 C 87 % 1010,6 hPa 0,0 l/m 0,7 km/h (0 Bft) W 259 1 min 0,000 mm 2,0 UV-I 515 W/m 14,9 C 17,1 C 3,2 km/h (1 Bft) 100,00 %
04.06.2016 08:59 17,1 C 86 % 1010,7 hPa 0,0 l/m 3,2 km/h (1 Bft) W-NW 298 1 min 0,000 mm 2,0 UV-I 463 W/m 14,7 C 17,1 C 4,8 km/h (1 Bft) 95,65 %
04.06.2016 09:00 17,2 C 87 % 1010,6 hPa 0,0 l/m 2,3 km/h (1 Bft) NW 304 1 min 0,153 mm 2,2 UV-I 501 W/m 15,0 C 17,2 C 3,2 km/h (1 Bft) 100,00 %
04.06.2016 09:01 17,2 C 86 % 1010,6 hPa 0,0 l/m 2,3 km/h (1 Bft) NW 304 1 min 0,000 mm 2,3 UV-I 495 W/m 14,8 C 17,2 C 4,8 km/h (1 Bft) 100,00 %
04.06.2016 09:02 17,3 C 86 % 1010,7 hPa 0,0 l/m 0,5 km/h (0 Bft) NW 304 1 min 0,000 mm 2,3 UV-I 552 W/m 14,9 C 17,3 C 1,6 km/h (1 Bft) 100,00 %
04.06.2016 09:03 17,3 C 86 % 1010,6 hPa 0,0 l/m 1,9 km/h (1 Bft) NW 323 1 min 0,000 mm 2,5 UV-I 605 W/m 14,9 C 17,3 C 3,2 km/h (1 Bft) 100,00 %
04.06.2016 09:04 17,4 C 86 % 1010,6 hPa 0,0 l/m 0,9 km/h (0 Bft) W-NW 298 1 min 0,000 mm 2,5 UV-I 587 W/m 15,0 C 17,4 C 1,6 km/h (1 Bft) 100,00 %
04.06.2016 09:05 17,5 C 86 % 1010,7 hPa 0,0 l/m 1,9 km/h (1 Bft) W 279 1 min 0,000 mm 2,5 UV-I 576 W/m 15,1 C 17,5 C 4,8 km/h (1 Bft) 100,00 %
04.06.2016 09:06 17,6 C 85 % 1010,7 hPa 0,0 l/m 2,3 km/h (1 Bft) W-NW 303 1 min 0,000 mm 2,6 UV-I 567 W/m 15,0 C 17,6 C 4,8 km/h (1 Bft) 100,00 %
04.06.2016 09:07 17,6 C 84 % 1010,7 hPa 0,0 l/m 0,5 km/h (0 Bft) NW 323 1 min 0,000 mm 2,6 UV-I 558 W/m 14,9 C 17,6 C 1,6 km/h (1 Bft) 95,65 %
04.06.2016 09:08 17,7 C 85 % 1010,7 hPa 0,0 l/m 2,8 km/h (1 Bft) N-NW 327 1 min 0,000 mm 2,6 UV-I 552 W/m 15,1 C 17,7 C 4,8 km/h (1 Bft) 100,00 %
04.06.2016 09:09 17,7 C 86 % 1010,6 hPa 0,0 l/m 1,3 km/h (1 Bft) N-NW 327 1 min 0,000 mm 2,6 UV-I 565 W/m 15,3 C 17,7 C 3,2 km/h (1 Bft) 95,65 %
04.06.2016 09:10 17,8 C 85 % 1010,7 hPa 0,0 l/m 2,5 km/h (1 Bft) N-NO 12 1 min 0,000 mm 2,6 UV-I 569 W/m 15,2 C 17,8 C 4,8 km/h (1 Bft) 95,83 %
04.06.2016 09:11 17,8 C 86 % 1010,7 hPa 0,0 l/m 3,7 km/h (1 Bft) N-NW 330 1 min 0,000 mm 2,7 UV-I 582 W/m 15,4 C 17,8 C 4,8 km/h (1 Bft) 95,65 %
04.06.2016 09:12 17,9 C 88 % 1010,7 hPa 0,0 l/m 1,2 km/h (1 Bft) NW 316 1 min 0,000 mm 2,7 UV-I 598 W/m 15,9 C 17,9 C 3,2 km/h (1 Bft) 100,00 %
04.06.2016 09:13 18,1 C 86 % 1010,6 hPa 0,0 l/m 2,1 km/h (1 Bft) NW 325 1 min 0,000 mm 2,7 UV-I 602 W/m 15,7 C 18,1 C 6,4 km/h (2 Bft) 100,00 %
04.06.2016 09:14 18,1 C 84 % 1010,6 hPa 0,0 l/m 2,9 km/h (1 Bft) N-NW 340 1 min 0,000 mm 2,7 UV-I 608 W/m 15,4 C 18,1 C 6,4 km/h (2 Bft) 100,00 %
04.06.2016 09:15 18,1 C 84 % 1010,6 hPa 0,0 l/m 3,4 km/h (1 Bft) N 355 1 min 0,000 mm 2,4 UV-I 542 W/m 15,4 C 18,1 C 4,8 km/h (1 Bft) 100,00 %
04.06.2016 09:16 18,1 C 85 % 1010,7 hPa 0,0 l/m 3,0 km/h (1 Bft) NW 310 1 min 0,000 mm 2,7 UV-I 457 W/m 15,5 C 18,1 C 4,8 km/h (1 Bft) 100,00 %
04.06.2016 09:17 18,1 C 85 % 1010,7 hPa 0,0 l/m 2,3 km/h (1 Bft) NW 323 1 min 0,000 mm 2,9 UV-I 590 W/m 15,5 C 18,1 C 3,2 km/h (1 Bft) 100,00 %
04.06.2016 09:18 18,2 C 86 % 1010,7 hPa 0,0 l/m 4,1 km/h (1 Bft) W 276 1 min 0,000 mm 2,9 UV-I 652 W/m 15,8 C 18,2 C 6,4 km/h (2 Bft) 95,65 %
04.06.2016 09:19 18,3 C 84 % 1010,7 hPa 0,0 l/m 3,8 km/h (1 Bft) W-SW 246 1 min 0,000 mm 2,9 UV-I 649 W/m 15,5 C 18,3 C 4,8 km/h (1 Bft) 100,00 %
04.06.2016 09:20 18,3 C 81 % 1010,7 hPa 0,0 l/m 6,6 km/h (2 Bft) S-SW 213 1 min 0,000 mm 2,9 UV-I 606 W/m 15,0 C 18,2 C 11,3 km/h (2 Bft) 100,00 %
04.06.2016 09:21 18,3 C 81 % 1010,7 hPa 0,0 l/m 7,0 km/h (2 Bft) SW 231 1 min 0,000 mm 2,8 UV-I 559 W/m 15,0 C 18,0 C 11,3 km/h (2 Bft) 100,00 %
04.06.2016 09:22 18,4 C 80 % 1010,7 hPa 0,0 l/m 5,3 km/h (1 Bft) W-SW 245 1 min 0,000 mm 2,9 UV-I 542 W/m 14,9 C 18,4 C 8,0 km/h (2 Bft) 100,00 %
04.06.2016 09:23 18,4 C 81 % 1010,7 hPa 0,0 l/m 3,1 km/h (1 Bft) NW 311 1 min 0,000 mm 2,8 UV-I 529 W/m 15,1 C 18,4 C 6,4 km/h (2 Bft) 100,00 %
04.06.2016 09:24 18,4 C 82 % 1010,7 hPa 0,0 l/m 2,3 km/h (1 Bft) NW 307 1 min 0,000 mm 2,9 UV-I 567 W/m 15,3 C 18,4 C 4,8 km/h (1 Bft) 100,00 %
04.06.2016 09:25 18,5 C 84 % 1010,7 hPa 0,0 l/m 5,5 km/h (1 Bft) W-SW 246 1 min 0,000 mm 2,9 UV-I 575 W/m 15,7 C 18,5 C 12,9 km/h (3 Bft) 100,00 %
04.06.2016 09:26 18,4 C 81 % 1010,7 hPa 0,0 l/m 6,6 km/h (2 Bft) W-SW 252 1 min 0,000 mm 2,9 UV-I 550 W/m 15,1 C 18,3 C 11,3 km/h (2 Bft) 100,00 %
04.06.2016 09:27 18,4 C 79 % 1010,7 hPa 0,0 l/m 5,0 km/h (1 Bft) W-SW 247 1 min 0,000 mm 2,9 UV-I 517 W/m 14,7 C 18,4 C 6,4 km/h (2 Bft) 100,00 %
04.06.2016 09:28 18,3 C 78 % 1010,6 hPa 0,0 l/m 4,4 km/h (1 Bft) W-SW 240 1 min 0,000 mm 3,2 UV-I 620 W/m 14,4 C 18,3 C 6,4 km/h (2 Bft) 100,00 %
04.06.2016 09:29 18,3 C 79 % 1010,7 hPa 0,0 l/m 3,8 km/h (1 Bft) W-SW 252 1 min 0,000 mm 3,1 UV-I 648 W/m 14,6 C 18,3 C 6,4 km/h (2 Bft) 100,00 %
04.06.2016 09:30 18,2 C 80 % 1010,7 hPa 0,0 l/m 4,3 km/h (1 Bft) SW 227 1 min 0,000 mm 3,1 UV-I 602 W/m 14,7 C 18,2 C 6,4 km/h (2 Bft) 100,00 %
04.06.2016 09:31 18,3 C 81 % 1010,7 hPa 0,0 l/m 2,8 km/h (1 Bft) W-SW 254 1 min 0,000 mm 3,0 UV-I 572 W/m 15,0 C 18,3 C 3,2 km/h (1 Bft) 100,00 %
04.06.2016 09:32 18,3 C 81 % 1010,7 hPa 0,0 l/m 0,9 km/h (0 Bft) W-SW 254 1 min 0,000 mm 3,1 UV-I 576 W/m 15,0 C 18,3 C 4,8 km/h (1 Bft) 86,96 %
04.06.2016 09:33 18,3 C 81 % 1010,7 hPa 0,0 l/m 5,6 km/h (1 Bft) W 271 1 min 0,000 mm 3,1 UV-I 576 W/m 15,0 C 18,3 C 8,0 km/h (2 Bft) 100,00 %
04.06.2016 09:34 18,3 C 80 % 1010,7 hPa 0,0 l/m 5,6 km/h (1 Bft) SW 223 1 min 0,000 mm 3,1 UV-I 585 W/m 14,8 C 18,3 C 8,0 km/h (2 Bft) 95,65 %
04.06.2016 09:35 18,2 C 79 % 1010,6 hPa 0,0 l/m 3,2 km/h (1 Bft) S-SW 203 1 min 0,000 mm 3,0 UV-I 519 W/m 14,5 C 18,2 C 4,8 km/h (1 Bft) 100,00 %
04.06.2016 09:36 18,2 C 82 % 1010,6 hPa 0,0 l/m 1,4 km/h (1 Bft) S-SW 204 1 min 0,000 mm 2,9 UV-I 462 W/m 15,1 C 18,2 C 3,2 km/h (1 Bft) 96,15 %
04.06.2016 09:37 18,3 C 83 % 1010,7 hPa 0,0 l/m 3,3 km/h (1 Bft) W 275 1 min 0,000 mm 3,1 UV-I 522 W/m 15,4 C 18,3 C 11,3 km/h (2 Bft) 95,83 %
04.06.2016 09:38 18,3 C 82 % 1010,7 hPa 0,0 l/m 6,0 km/h (2 Bft) NW 309 1 min 0,000 mm 3,2 UV-I 566 W/m 15,2 C 18,3 C 11,3 km/h (2 Bft) 100,00 %
04.06.2016 09:39 18,4 C 79 % 1010,7 hPa 0,0 l/m 2,4 km/h (1 Bft) W-NW 303 1 min 0,000 mm 3,3 UV-I 647 W/m 14,7 C 18,4 C 3,2 km/h (1 Bft) 91,30 %
04.06.2016 09:40 18,4 C 79 % 1010,6 hPa 0,0 l/m 3,4 km/h (1 Bft) W-NW 289 1 min 0,000 mm 3,4 UV-I 664 W/m 14,7 C 18,4 C 4,8 km/h (1 Bft) 100,00 %
04.06.2016 09:41 18,4 C 81 % 1010,6 hPa 0,0 l/m 2,0 km/h (1 Bft) W-NW 289 1 min 0,000 mm 3,3 UV-I 622 W/m 15,1 C 18,4 C 3,2 km/h (1 Bft) 95,65 %
04.06.2016 09:42 18,6 C 81 % 1010,7 hPa 0,0 l/m 4,0 km/h (1 Bft) W 267 1 min 0,000 mm 3,2 UV-I 526 W/m 15,3 C 18,6 C 6,4 km/h (2 Bft) 100,00 %
04.06.2016 09:43 18,7 C 78 % 1010,7 hPa 0,0 l/m 1,9 km/h (1 Bft) NW 312 1 min 0,000 mm 3,4 UV-I 522 W/m 14,8 C 18,7 C 6,4 km/h (2 Bft) 91,30 %
04.06.2016 09:44 18,7 C 80 % 1010,7 hPa 0,0 l/m 4,4 km/h (1 Bft) N-NW 337 1 min 0,000 mm 3,4 UV-I 575 W/m 15,2 C 18,7 C 6,4 km/h (2 Bft) 100,00 %
04.06.2016 09:45 18,7 C 76 % 1010,7 hPa 0,0 l/m 3,1 km/h (1 Bft) N 355 1 min 0,000 mm 3,3 UV-I 638 W/m 14,4 C 18,7 C 6,4 km/h (2 Bft) 91,30 %
04.06.2016 09:46 18,7 C 78 % 1010,7 hPa 0,0 l/m 3,5 km/h (1 Bft) N 11 1 min 0,000 mm 3,4 UV-I 678 W/m 14,8 C 18,7 C 4,8 km/h (1 Bft) 95,83 %
04.06.2016 09:47 18,7 C 78 % 1010,7 hPa 0,0 l/m 2,5 km/h (1 Bft) W-NW 296 1 min 0,000 mm 3,5 UV-I 703 W/m 14,8 C 18,7 C 6,4 km/h (2 Bft) 100,00 %
04.06.2016 09:48 18,8 C 79 % 1010,6 hPa 0,0 l/m 0,6 km/h (0 Bft) W-NW 292 1 min 0,000 mm 3,5 UV-I 692 W/m 15,1 C 18,8 C 1,6 km/h (1 Bft) 96,30 %
04.06.2016 09:49 18,8 C 79 % 1010,7 hPa 0,0 l/m 3,3 km/h (1 Bft) W 265 1 min 0,000 mm 3,4 UV-I 603 W/m 15,1 C 18,8 C 4,8 km/h (1 Bft) 100,00 %
04.06.2016 09:50 18,8 C 76 % 1010,6 hPa 0,0 l/m 5,9 km/h (2 Bft) SW 232 1 min 0,000 mm 3,2 UV-I 566 W/m 14,5 C 18,8 C 11,3 km/h (2 Bft) 95,83 %
04.06.2016 09:51 18,8 C 76 % 1010,6 hPa 0,0 l/m 6,4 km/h (2 Bft) SW 217 1 min 0,000 mm 3,1 UV-I 566 W/m 14,5 C 18,8 C 9,7 km/h (2 Bft) 100,00 %
04.06.2016 09:52 18,7 C 77 % 1010,6 hPa 0,0 l/m 5,2 km/h (1 Bft) W-SW 238 1 min 0,000 mm 3,4 UV-I 541 W/m 14,6 C 18,7 C 8,0 km/h (2 Bft) 95,83 %
04.06.2016 09:53 18,7 C 76 % 1010,6 hPa 0,0 l/m 6,0 km/h (2 Bft) S 178 1 min 0,000 mm 3,3 UV-I 502 W/m 14,4 C 18,7 C 9,7 km/h (2 Bft) 95,65 %
04.06.2016 09:54 18,6 C 76 % 1010,6 hPa 0,0 l/m 4,4 km/h (1 Bft) SW 227 1 min 0,000 mm 3,1 UV-I 433 W/m 14,3 C 18,6 C 6,4 km/h (2 Bft) 100,00 %
04.06.2016 09:55 18,6 C 76 % 1010,6 hPa 0,0 l/m 7,0 km/h (2 Bft) S 184 1 min 0,000 mm 3,0 UV-I 386 W/m 14,3 C 18,3 C 9,7 km/h (2 Bft) 86,96 %
04.06.2016 09:56 18,5 C 74 % 1010,6 hPa 0,0 l/m 7,5 km/h (2 Bft) W-SW 242 0 min 0,000 mm 2,9 UV-I 312 W/m 13,8 C 18,0 C 11,3 km/h (2 Bft) 100,00 %
04.06.2016 09:57 18,4 C 74 % 1010,6 hPa 0,0 l/m 4,2 km/h (1 Bft) S-SW 192 0 min 0,000 mm 2,9 UV-I 336 W/m 13,7 C 18,4 C 4,8 km/h (1 Bft) 95,83 %
04.06.2016 09:58 18,4 C 75 % 1010,6 hPa 0,0 l/m 2,7 km/h (1 Bft) S 182 0 min 0,000 mm 2,8 UV-I 376 W/m 13,9 C 18,4 C 4,8 km/h (1 Bft) 100,00 %
04.06.2016 09:59 18,3 C 75 % 1010,6 hPa 0,0 l/m 4,2 km/h (1 Bft) S-SW 201 0 min 0,000 mm 2,8 UV-I 280 W/m 13,8 C 18,3 C 6,4 km/h (2 Bft) 95,83 %
04.06.2016 10:00 18,3 C 77 % 1010,6 hPa 0,0 l/m 1,8 km/h (1 Bft) W 281 0 min 0,305 mm 2,9 UV-I 327 W/m 14,2 C 18,3 C 4,8 km/h (1 Bft) 100,00 %
04.06.2016 10:01 18,4 C 78 % 1010,6 hPa 0,0 l/m 3,1 km/h (1 Bft) W-SW 257 0 min 0,000 mm 3,7 UV-I 327 W/m 14,5 C 18,4 C 6,4 km/h (2 Bft) 95,83 %
04.06.2016 10:02 18,6 C 79 % 1010,6 hPa 0,0 l/m 4,9 km/h (1 Bft) W 266 1 min 0,000 mm 3,9 UV-I 497 W/m 14,9 C 18,6 C 6,4 km/h (2 Bft) 78,26 %
04.06.2016 10:03 18,7 C 76 % 1010,6 hPa 0,0 l/m 1,1 km/h (1 Bft) W 266 1 min 0,000 mm 3,8 UV-I 736 W/m 14,4 C 18,7 C 3,2 km/h (1 Bft) 100,00 %
04.06.2016 10:04 18,7 C 78 % 1010,6 hPa 0,0 l/m 3,8 km/h (1 Bft) W 268 1 min 0,000 mm 3,7 UV-I 737 W/m 14,8 C 18,7 C 9,7 km/h (2 Bft) 100,00 %
04.06.2016 10:05 18,9 C 80 % 1010,6 hPa 0,0 l/m 5,4 km/h (1 Bft) W-NW 288 1 min 0,000 mm 3,6 UV-I 686 W/m 15,4 C 18,9 C 6,4 km/h (2 Bft) 100,00 %
04.06.2016 10:06 18,9 C 77 % 1010,6 hPa 0,0 l/m 5,4 km/h (1 Bft) W 267 1 min 0,000 mm 3,3 UV-I 679 W/m 14,8 C 18,9 C 6,4 km/h (2 Bft) 95,65 %
04.06.2016 10:07 19,0 C 78 % 1010,6 hPa 0,0 l/m 2,0 km/h (1 Bft) W 267 1 min 0,000 mm 3,4 UV-I 573 W/m 15,1 C 19,0 C 4,8 km/h (1 Bft) 100,00 %
04.06.2016 10:08 19,0 C 77 % 1010,6 hPa 0,0 l/m 1,2 km/h (1 Bft) W-NW 292 0 min 0,000 mm 3,2 UV-I 361 W/m 14,9 C 19,0 C 3,2 km/h (1 Bft) 100,00 %
04.06.2016 10:09 18,9 C 76 % 1010,6 hPa 0,0 l/m 2,6 km/h (1 Bft) W 266 0 min 0,000 mm 3,1 UV-I 369 W/m 14,6 C 18,9 C 4,8 km/h (1 Bft) 96,30 %
04.06.2016 10:10 18,9 C 75 % 1010,7 hPa 0,0 l/m 3,6 km/h (1 Bft) S 180 0 min 0,000 mm 3,1 UV-I 343 W/m 14,4 C 18,9 C 6,4 km/h (2 Bft) 100,00 %
04.06.2016 10:11 18,8 C 75 % 1010,7 hPa 0,0 l/m 3,0 km/h (1 Bft) S-SW 200 0 min 0,000 mm 3,1 UV-I 349 W/m 14,3 C 18,8 C 6,4 km/h (2 Bft) 100,00 %
04.06.2016 10:12 18,8 C 77 % 1010,6 hPa 0,0 l/m 0,9 km/h (0 Bft) S-SW 206 1 min 0,000 mm 3,5 UV-I 441 W/m 14,7 C 18,8 C 4,8 km/h (1 Bft) 100,00 %
04.06.2016 10:13 18,9 C 78 % 1010,7 hPa 0,0 l/m 1,4 km/h (1 Bft) SW 215 1 min 0,000 mm 3,7 UV-I 441 W/m 15,0 C 18,9 C 1,6 km/h (1 Bft) 95,83 %
04.06.2016 10:14 18,8 C 76 % 1010,7 hPa 0,0 l/m 4,9 km/h (1 Bft) W-SW 250 1 min 0,000 mm 3,6 UV-I 441 W/m 14,5 C 18,8 C 9,7 km/h (2 Bft) 95,65 %
04.06.2016 10:15 18,9 C 74 % 1010,7 hPa 0,0 l/m 6,6 km/h (2 Bft) SW 236 1 min 0,000 mm 4,1 UV-I 441 W/m 14,2 C 18,8 C 8,0 km/h (2 Bft) 100,00 %
04.06.2016 10:16 18,9 C 74 % 1010,7 hPa 0,0 l/m 3,6 km/h (1 Bft) W-SW 245 1 min 0,000 mm 3,9 UV-I 441 W/m 14,2 C 18,9 C 4,8 km/h (1 Bft) 100,00 %
04.06.2016 10:17 19,0 C 75 % 1010,7 hPa 0,0 l/m 2,2 km/h (1 Bft) W 273 1 min 0,000 mm 4,0 UV-I 598 W/m 14,5 C 19,0 C 3,2 km/h (1 Bft) 100,00 %
04.06.2016 10:18 19,1 C 78 % 1010,7 hPa 0,0 l/m 2,8 km/h (1 Bft) W 272 1 min 0,000 mm 4,1 UV-I 612 W/m 15,2 C 19,1 C 4,8 km/h (1 Bft) 100,00 %
04.06.2016 10:19 19,1 C 74 % 1010,7 hPa 0,0 l/m 5,9 km/h (2 Bft) W-SW 237 1 min 0,000 mm 4,0 UV-I 612 W/m 14,4 C 19,1 C 9,7 km/h (2 Bft) 100,00 %
04.06.2016 10:20 19,2 C 75 % 1010,6 hPa 0,0 l/m 3,2 km/h (1 Bft) NW 321 1 min 0,000 mm 4,2 UV-I 685 W/m 14,7 C 19,2 C 4,8 km/h (1 Bft) 100,00 %
04.06.2016 10:21 19,2 C 76 % 1010,7 hPa 0,0 l/m 1,8 km/h (1 Bft) W-NW 301 1 min 0,000 mm 4,3 UV-I 764 W/m 14,9 C 19,2 C 4,8 km/h (1 Bft) 95,65 %
04.06.2016 10:22 19,2 C 76 % 1010,7 hPa 0,0 l/m 1,7 km/h (1 Bft) N-NO 21 1 min 0,000 mm 4,3 UV-I 768 W/m 14,9 C 19,2 C 4,8 km/h (1 Bft) 100,00 %
04.06.2016 10:23 19,3 C 77 % 1010,7 hPa 0,0 l/m 2,1 km/h (1 Bft) N 355 1 min 0,000 mm 4,3 UV-I 766 W/m 15,2 C 19,3 C 4,8 km/h (1 Bft) 95,65 %
04.06.2016 10:24 19,3 C 77 % 1010,6 hPa 0,0 l/m 1,7 km/h (1 Bft) W-NW 302 1 min 0,000 mm 4,4 UV-I 778 W/m 15,2 C 19,3 C 3,2 km/h (1 Bft) 95,83 %
04.06.2016 10:25 19,4 C 78 % 1010,7 hPa 0,0 l/m 3,0 km/h (1 Bft) NW 314 1 min 0,000 mm 4,5 UV-I 778 W/m 15,5 C 19,4 C 4,8 km/h (1 Bft) 100,00 %
04.06.2016 10:26 19,6 C 76 % 1010,7 hPa 0,0 l/m 0,9 km/h (0 Bft) NW 315 1 min 0,000 mm 4,5 UV-I 776 W/m 15,2 C 19,6 C 1,6 km/h (1 Bft) 100,00 %
04.06.2016 10:27 19,7 C 76 % 1010,7 hPa 0,0 l/m 1,5 km/h (1 Bft) N-NW 329 1 min 0,000 mm 4,5 UV-I 776 W/m 15,3 C 19,7 C 3,2 km/h (1 Bft) 95,65 %
04.06.2016 10:28 19,7 C 77 % 1010,7 hPa 0,0 l/m 3,0 km/h (1 Bft) N-NW 333 1 min 0,000 mm 4,5 UV-I 769 W/m 15,5 C 19,7 C 4,8 km/h (1 Bft) 100,00 %
04.06.2016 10:29 19,8 C 76 % 1010,7 hPa 0,0 l/m 1,0 km/h (0 Bft) N-NW 335 1 min 0,000 mm 4,5 UV-I 761 W/m 15,4 C 19,8 C 1,6 km/h (1 Bft) 100,00 %
04.06.2016 10:30 19,8 C 75 % 1010,7 hPa 0,0 l/m 0,9 km/h (0 Bft) N-NW 335 1 min 0,000 mm 4,5 UV-I 756 W/m 15,2 C 19,8 C 1,6 km/h (1 Bft) 95,83 %
04.06.2016 10:31 19,7 C 74 % 1010,7 hPa 0,0 l/m 0,4 km/h (0 Bft) N-NW 335 1 min 0,000 mm 4,5 UV-I 758 W/m 14,9 C 19,7 C 1,6 km/h (1 Bft) 91,67 %
04.06.2016 10:32 19,6 C 74 % 1010,7 hPa 0,0 l/m 1,2 km/h (1 Bft) NW 324 1 min 0,000 mm 4,6 UV-I 756 W/m 14,8 C 19,6 C 3,2 km/h (1 Bft) 100,00 %
04.06.2016 10:33 19,7 C 80 % 1010,7 hPa 0,0 l/m 3,3 km/h (1 Bft) W 277 1 min 0,000 mm 4,7 UV-I 757 W/m 16,1 C 19,7 C 6,4 km/h (2 Bft) 100,00 %
04.06.2016 10:34 19,7 C 76 % 1010,7 hPa 0,0 l/m 4,8 km/h (1 Bft) NW 325 1 min 0,000 mm 4,7 UV-I 759 W/m 15,3 C 19,7 C 8,0 km/h (2 Bft) 100,00 %
04.06.2016 10:35 19,7 C 75 % 1010,7 hPa 0,0 l/m 3,3 km/h (1 Bft) NW 321 1 min 0,000 mm 4,7 UV-I 754 W/m 15,1 C 19,7 C 6,4 km/h (2 Bft) 100,00 %
04.06.2016 10:36 19,7 C 76 % 1010,7 hPa 0,0 l/m 3,9 km/h (1 Bft) NW 318 1 min 0,000 mm 4,7 UV-I 754 W/m 15,3 C 19,7 C 6,4 km/h (2 Bft) 100,00 %
04.06.2016 10:37 19,8 C 77 % 1010,7 hPa 0,0 l/m 1,2 km/h (1 Bft) NW 321 1 min 0,000 mm 4,5 UV-I 750 W/m 15,6 C 19,8 C 3,2 km/h (1 Bft) 100,00 %
04.06.2016 10:38 19,8 C 75 % 1010,7 hPa 0,0 l/m 3,3 km/h (1 Bft) NW 321 1 min 0,000 mm 4,4 UV-I 745 W/m 15,2 C 19,8 C 4,8 km/h (1 Bft) 100,00 %
04.06.2016 10:39 19,8 C 73 % 1010,7 hPa 0,0 l/m 3,2 km/h (1 Bft) W-SW 257 1 min 0,000 mm 4,5 UV-I 745 W/m 14,8 C 19,8 C 4,8 km/h (1 Bft) 100,00 %
04.06.2016 10:40 19,7 C 73 % 1010,7 hPa 0,0 l/m 3,1 km/h (1 Bft) W-SW 243 1 min 0,000 mm 4,5 UV-I 669 W/m 14,7 C 19,7 C 4,8 km/h (1 Bft) 95,65 %
04.06.2016 10:41 19,7 C 75 % 1010,7 hPa 0,0 l/m 2,2 km/h (1 Bft) N-NO 23 1 min 0,000 mm 4,5 UV-I 676 W/m 15,1 C 19,7 C 4,8 km/h (1 Bft) 100,00 %
04.06.2016 10:42 19,8 C 79 % 1010,7 hPa 0,0 l/m 3,7 km/h (1 Bft) W 261 1 min 0,000 mm 4,9 UV-I 770 W/m 16,0 C 19,8 C 4,8 km/h (1 Bft) 95,65 %
04.06.2016 10:43 19,8 C 74 % 1010,6 hPa 0,0 l/m 5,9 km/h (2 Bft) W-SW 238 1 min 0,000 mm 4,8 UV-I 763 W/m 15,0 C 19,8 C 8,0 km/h (2 Bft) 100,00 %
04.06.2016 10:44 19,7 C 74 % 1010,7 hPa 0,0 l/m 4,5 km/h (1 Bft) W-SW 237 1 min 0,000 mm 4,9 UV-I 791 W/m 14,9 C 19,7 C 8,0 km/h (2 Bft) 95,65 %
04.06.2016 10:45 19,7 C 75 % 1010,6 hPa 0,0 l/m 3,0 km/h (1 Bft) W-SW 238 1 min 0,000 mm 5,0 UV-I 809 W/m 15,1 C 19,7 C 6,4 km/h (2 Bft) 100,00 %
04.06.2016 10:46 19,7 C 75 % 1010,7 hPa 0,0 l/m 4,6 km/h (1 Bft) SW 232 1 min 0,000 mm 5,0 UV-I 821 W/m 15,1 C 19,7 C 8,0 km/h (2 Bft) 100,00 %
04.06.2016 10:47 19,8 C 77 % 1010,7 hPa 0,0 l/m 4,7 km/h (1 Bft) SW 232 1 min 0,000 mm 4,9 UV-I 792 W/m 15,6 C 19,8 C 8,0 km/h (2 Bft) 100,00 %
04.06.2016 10:48 19,9 C 76 % 1010,7 hPa 0,0 l/m 4,4 km/h (1 Bft) S 183 1 min 0,000 mm 5,0 UV-I 767 W/m 15,5 C 19,9 C 8,0 km/h (2 Bft) 100,00 %
04.06.2016 10:49 19,8 C 73 % 1010,7 hPa 0,0 l/m 3,8 km/h (1 Bft) SW 229 1 min 0,000 mm 4,9 UV-I 775 W/m 14,8 C 19,8 C 4,8 km/h (1 Bft) 100,00 %
04.06.2016 10:50 19,8 C 76 % 1010,7 hPa 0,0 l/m 1,7 km/h (1 Bft) S-SW 198 1 min 0,000 mm 5,2 UV-I 777 W/m 15,4 C 19,8 C 3,2 km/h (1 Bft) 100,00 %
04.06.2016 10:51 19,9 C 76 % 1010,7 hPa 0,0 l/m 3,0 km/h (1 Bft) S 184 1 min 0,000 mm 5,0 UV-I 777 W/m 15,5 C 19,9 C 3,2 km/h (1 Bft) 100,00 %
04.06.2016 10:52 20,1 C 76 % 1010,7 hPa 0,0 l/m 1,0 km/h (0 Bft) S 184 1 min 0,000 mm 5,1 UV-I 798 W/m 15,7 C 20,1 C 3,2 km/h (1 Bft) 100,00 %
04.06.2016 10:53 20,2 C 76 % 1010,7 hPa 0,0 l/m 1,3 km/h (1 Bft) W 264 1 min 0,000 mm 5,2 UV-I 853 W/m 15,8 C 20,2 C 3,2 km/h (1 Bft) 100,00 %
04.06.2016 10:54 20,4 C 79 % 1010,7 hPa 0,0 l/m 6,2 km/h (2 Bft) N-NW 338 1 min 0,000 mm 4,9 UV-I 775 W/m 16,6 C 20,4 C 11,3 km/h (2 Bft) 100,00 %
04.06.2016 10:55 20,3 C 74 % 1010,7 hPa 0,0 l/m 2,7 km/h (1 Bft) N-NW 328 1 min 0,000 mm 4,1 UV-I 775 W/m 15,5 C 20,3 C 6,4 km/h (2 Bft) 100,00 %
04.06.2016 10:56 20,3 C 74 % 1010,7 hPa 0,0 l/m 3,0 km/h (1 Bft) NW 309 1 min 0,000 mm 3,4 UV-I 468 W/m 15,5 C 20,3 C 4,8 km/h (1 Bft) 100,00 %
04.06.2016 10:57 20,1 C 70 % 1010,7 hPa 0,0 l/m 2,9 km/h (1 Bft) N-NW 329 0 min 0,000 mm 3,2 UV-I 272 W/m 14,5 C 20,1 C 4,8 km/h (1 Bft) 100,00 %
04.06.2016 10:58 19,9 C 73 % 1010,7 hPa 0,0 l/m 2,0 km/h (1 Bft) NW 323 0 min 0,000 mm 3,3 UV-I 235 W/m 14,9 C 19,9 C 3,2 km/h (1 Bft) 100,00 %
04.06.2016 10:59 19,8 C 70 % 1010,7 hPa 0,0 l/m 2,2 km/h (1 Bft) NW 318 0 min 0,000 mm 3,5 UV-I 319 W/m 14,2 C 19,8 C 4,8 km/h (1 Bft) 100,00 %
04.06.2016 11:00 19,7 C 71 % 1010,7 hPa 0,0 l/m 3,0 km/h (1 Bft) NW 323 0 min 0,381 mm 3,5 UV-I 341 W/m 14,3 C 19,7 C 6,4 km/h (2 Bft) 95,83 %
04.06.2016 11:01 19,7 C 74 % 1010,7 hPa 0,0 l/m 1,5 km/h (1 Bft) N-NW 339 1 min 0,000 mm 4,3 UV-I 526 W/m 14,9 C 19,7 C 3,2 km/h (1 Bft) 95,65 %
04.06.2016 11:02 19,7 C 73 % 1010,7 hPa 0,0 l/m 1,7 km/h (1 Bft) N-NO 24 1 min 0,000 mm 4,4 UV-I 710 W/m 14,7 C 19,7 C 6,4 km/h (2 Bft) 100,00 %
04.06.2016 11:03 19,7 C 74 % 1010,7 hPa 0,0 l/m 9,6 km/h (2 Bft) NO 41 1 min 0,000 mm 4,0 UV-I 568 W/m 14,9 C 18,4 C 12,9 km/h (3 Bft) 91,30 %
04.06.2016 11:04 19,7 C 72 % 1010,7 hPa 0,0 l/m 6,6 km/h (2 Bft) N-NO 19 1 min 0,000 mm 3,8 UV-I 461 W/m 14,5 C 19,6 C 8,0 km/h (2 Bft) 100,00 %
04.06.2016 11:05 19,8 C 75 % 1010,7 hPa 0,0 l/m 3,6 km/h (1 Bft) NW 325 1 min 0,000 mm 4,1 UV-I 454 W/m 15,2 C 19,8 C 8,0 km/h (2 Bft) 100,00 %
04.06.2016 11:06 19,9 C 78 % 1010,8 hPa 0,0 l/m 1,5 km/h (1 Bft) NW 315 1 min 0,000 mm 3,8 UV-I 450 W/m 15,9 C 19,9 C 3,2 km/h (1 Bft) 100,00 %
04.06.2016 11:07 19,9 C 77 % 1010,8 hPa 0,0 l/m 1,7 km/h (1 Bft) N-NO 13 0 min 0,000 mm 3,7 UV-I 445 W/m 15,7 C 19,9 C 4,8 km/h (1 Bft) 95,65 %
04.06.2016 11:08 20,0 C 75 % 1010,7 hPa 0,0 l/m 1,7 km/h (1 Bft) N-NW 332 0 min 0,000 mm 4,0 UV-I 445 W/m 15,4 C 20,0 C 3,2 km/h (1 Bft) 100,00 %
04.06.2016 11:09 20,0 C 77 % 1010,7 hPa 0,0 l/m 2,5 km/h (1 Bft) N-NW 342 1 min 0,000 mm 4,0 UV-I 493 W/m 15,8 C 20,0 C 4,8 km/h (1 Bft) 100,00 %
04.06.2016 11:10 20,1 C 78 % 1010,7 hPa 0,0 l/m 3,6 km/h (1 Bft) N-NO 19 1 min 0,000 mm 3,5 UV-I 472 W/m 16,1 C 20,1 C 6,4 km/h (2 Bft) 100,00 %
04.06.2016 11:11 20,1 C 76 % 1010,7 hPa 0,0 l/m 2,6 km/h (1 Bft) N-NO 20 1 min 0,000 mm 4,0 UV-I 504 W/m 15,7 C 20,1 C 6,4 km/h (2 Bft) 95,65 %
04.06.2016 11:12 20,2 C 79 % 1010,7 hPa 0,0 l/m 3,2 km/h (1 Bft) N-NO 19 1 min 0,000 mm 4,9 UV-I 504 W/m 16,4 C 20,2 C 6,4 km/h (2 Bft) 100,00 %
04.06.2016 11:13 20,3 C 74 % 1010,7 hPa 0,0 l/m 1,0 km/h (0 Bft) N-NW 343 1 min 0,000 mm 4,9 UV-I 504 W/m 15,5 C 20,3 C 1,6 km/h (1 Bft) 100,00 %
04.06.2016 11:14 20,3 C 76 % 1010,7 hPa 0,0 l/m 1,7 km/h (1 Bft) N 5 1 min 0,000 mm 4,4 UV-I 504 W/m 15,9 C 20,3 C 3,2 km/h (1 Bft) 100,00 %
04.06.2016 11:15 20,3 C 76 % 1010,7 hPa 0,0 l/m 2,9 km/h (1 Bft) N 11 1 min 0,000 mm 3,9 UV-I 504 W/m 15,9 C 20,3 C 4,8 km/h (1 Bft) 100,00 %
04.06.2016 11:16 20,3 C 75 % 1010,7 hPa 0,0 l/m 6,2 km/h (2 Bft) NO 38 0 min 0,000 mm 3,8 UV-I 442 W/m 15,7 C 20,3 C 8,0 km/h (2 Bft) 100,00 %
04.06.2016 11:17 20,2 C 74 % 1010,6 hPa 0,0 l/m 4,0 km/h (1 Bft) N-NO 28 1 min 0,000 mm 4,6 UV-I 480 W/m 15,4 C 20,2 C 6,4 km/h (2 Bft) 100,00 %
04.06.2016 11:18 20,2 C 73 % 1010,6 hPa 0,0 l/m 1,9 km/h (1 Bft) NW 304 1 min 0,000 mm 5,0 UV-I 480 W/m 15,2 C 20,2 C 3,2 km/h (1 Bft) 95,65 %
04.06.2016 11:19 20,3 C 71 % 1010,6 hPa 0,0 l/m 3,6 km/h (1 Bft) N-NW 333 1 min 0,000 mm 5,2 UV-I 480 W/m 14,9 C 20,3 C 4,8 km/h (1 Bft) 100,00 %
04.06.2016 11:20 20,3 C 70 % 1010,6 hPa 0,0 l/m 3,3 km/h (1 Bft) W 279 1 min 0,000 mm 5,7 UV-I 480 W/m 14,6 C 20,3 C 6,4 km/h (2 Bft) 100,00 %
04.06.2016 11:21 20,3 C 72 % 1010,6 hPa 0,0 l/m 1,9 km/h (1 Bft) W 279 1 min 0,000 mm 5,8 UV-I 480 W/m 15,1 C 20,3 C 4,8 km/h (1 Bft) 100,00 %
04.06.2016 11:22 20,5 C 75 % 1010,6 hPa 0,0 l/m 1,3 km/h (1 Bft) N-NO 27 1 min 0,000 mm 5,4 UV-I 480 W/m 15,9 C 20,5 C 3,2 km/h (1 Bft) 100,00 %
04.06.2016 11:23 20,6 C 74 % 1010,6 hPa 0,0 l/m 3,4 km/h (1 Bft) N-NO 22 1 min 0,000 mm 4,1 UV-I 476 W/m 15,8 C 20,6 C 8,0 km/h (2 Bft) 100,00 %
04.06.2016 11:24 20,6 C 71 % 1010,6 hPa 0,0 l/m 5,3 km/h (1 Bft) N 9 1 min 0,000 mm 4,2 UV-I 507 W/m 15,2 C 20,6 C 9,7 km/h (2 Bft) 100,00 %
04.06.2016 11:25 20,6 C 75 % 1010,6 hPa 0,0 l/m 2,3 km/h (1 Bft) N-NO 17 1 min 0,000 mm 4,5 UV-I 519 W/m 16,0 C 20,6 C 4,8 km/h (1 Bft) 100,00 %
04.06.2016 11:26 20,6 C 74 % 1010,6 hPa 0,0 l/m 3,9 km/h (1 Bft) N 10 0 min 0,000 mm 4,2 UV-I 451 W/m 15,8 C 20,6 C 6,4 km/h (2 Bft) 100,00 %
04.06.2016 11:27 20,5 C 72 % 1010,6 hPa 0,0 l/m 3,4 km/h (1 Bft) N-NW 345 1 min 0,000 mm 3,9 UV-I 500 W/m 15,3 C 20,5 C 8,0 km/h (2 Bft) 100,00 %
04.06.2016 11:28 20,4 C 72 % 1010,6 hPa 0,0 l/m 0,9 km/h (0 Bft) N-NW 345 1 min 0,000 mm 4,0 UV-I 493 W/m 15,2 C 20,4 C 1,6 km/h (1 Bft) 100,00 %
04.06.2016 11:29 20,4 C 73 % 1010,6 hPa 0,0 l/m 0,5 km/h (0 Bft) N-NW 345 1 min 0,000 mm 3,9 UV-I 503 W/m 15,4 C 20,4 C 1,6 km/h (1 Bft) 96,15 %
04.06.2016 11:30 20,4 C 72 % 1010,6 hPa 0,0 l/m 4,0 km/h (1 Bft) N-NO 27 1 min 0,000 mm 3,6 UV-I 492 W/m 15,2 C 20,4 C 4,8 km/h (1 Bft) 95,83 %
04.06.2016 11:31 20,4 C 70 % 1010,6 hPa 0,0 l/m 4,1 km/h (1 Bft) NO 48 1 min 0,000 mm 4,0 UV-I 491 W/m 14,7 C 20,4 C 6,4 km/h (2 Bft) 100,00 %
04.06.2016 11:32 20,6 C 73 % 1010,6 hPa 0,0 l/m 2,6 km/h (1 Bft) N-NO 20 1 min 0,000 mm 4,1 UV-I 510 W/m 15,6 C 20,6 C 6,4 km/h (2 Bft) 95,83 %
04.06.2016 11:33 20,6 C 74 % 1010,6 hPa 0,0 l/m 4,0 km/h (1 Bft) N 5 1 min 0,000 mm 4,2 UV-I 513 W/m 15,8 C 20,6 C 6,4 km/h (2 Bft) 100,00 %
04.06.2016 11:34 20,6 C 71 % 1010,6 hPa 0,0 l/m 1,7 km/h (1 Bft) N-NW 327 1 min 0,000 mm 4,1 UV-I 523 W/m 15,2 C 20,6 C 3,2 km/h (1 Bft) 95,83 %
04.06.2016 11:35 20,5 C 71 % 1010,6 hPa 0,0 l/m 3,8 km/h (1 Bft) N-NW 327 1 min 0,000 mm 4,4 UV-I 540 W/m 15,1 C 20,5 C 6,4 km/h (2 Bft) 96,15 %
04.06.2016 11:36 20,6 C 71 % 1010,6 hPa 0,0 l/m 3,3 km/h (1 Bft) N-NW 348 1 min 0,000 mm 4,1 UV-I 525 W/m 15,2 C 20,6 C 6,4 km/h (2 Bft) 100,00 %
04.06.2016 11:37 20,5 C 71 % 1010,6 hPa 0,0 l/m 3,3 km/h (1 Bft) NW 319 1 min 0,000 mm 4,1 UV-I 512 W/m 15,1 C 20,5 C 6,4 km/h (2 Bft) 95,65 %
04.06.2016 11:38 20,5 C 71 % 1010,6 hPa 0,0 l/m 2,5 km/h (1 Bft) N 5 1 min 0,000 mm 4,3 UV-I 538 W/m 15,1 C 20,5 C 4,8 km/h (1 Bft) 100,00 %
04.06.2016 11:39 20,6 C 74 % 1010,6 hPa 0,0 l/m 1,5 km/h (1 Bft) N 355 1 min 0,000 mm 4,3 UV-I 540 W/m 15,8 C 20,6 C 3,2 km/h (1 Bft) 95,65 %
04.06.2016 11:40 20,6 C 73 % 1010,7 hPa 0,0 l/m 1,2 km/h (1 Bft) N-NW 331 1 min 0,000 mm 4,3 UV-I 567 W/m 15,6 C 20,6 C 1,6 km/h (1 Bft) 91,67 %
04.06.2016 11:41 20,7 C 69 % 1010,6 hPa 0,0 l/m 1,8 km/h (1 Bft) W-NW 300 1 min 0,000 mm 5,4 UV-I 612 W/m 14,8 C 20,7 C 3,2 km/h (1 Bft) 92,86 %
04.06.2016 11:42 20,8 C 70 % 1010,6 hPa 0,0 l/m 2,2 km/h (1 Bft) N-NW 336 1 min 0,000 mm 6,1 UV-I 612 W/m 15,1 C 20,8 C 4,8 km/h (1 Bft) 100,00 %
04.06.2016 11:43 20,8 C 68 % 1010,6 hPa 0,0 l/m 1,5 km/h (1 Bft) NW 324 1 min 0,000 mm 4,5 UV-I 612 W/m 14,7 C 20,8 C 3,2 km/h (1 Bft) 95,65 %
04.06.2016 11:44 20,9 C 69 % 1010,6 hPa 0,0 l/m 2,0 km/h (1 Bft) W-NW 284 1 min 0,000 mm 4,1 UV-I 504 W/m 15,0 C 20,9 C 4,8 km/h (1 Bft) 100,00 %
04.06.2016 11:45 20,8 C 64 % 1010,7 hPa 0,0 l/m 2,3 km/h (1 Bft) W-NW 289 0 min 0,000 mm 4,0 UV-I 468 W/m 13,7 C 20,8 C 4,8 km/h (1 Bft) 95,65 %
04.06.2016 11:46 20,8 C 65 % 1010,7 hPa 0,0 l/m 1,8 km/h (1 Bft) NW 322 1 min 0,000 mm 4,2 UV-I 517 W/m 14,0 C 20,8 C 4,8 km/h (1 Bft) 100,00 %
04.06.2016 11:47 20,8 C 66 % 1010,6 hPa 0,0 l/m 0,7 km/h (0 Bft) NW 325 1 min 0,000 mm 4,4 UV-I 503 W/m 14,2 C 20,8 C 1,6 km/h (1 Bft) 91,30 %
04.06.2016 11:48 20,8 C 67 % 1010,6 hPa 0,0 l/m 0,6 km/h (0 Bft) N-NW 329 1 min 0,000 mm 4,2 UV-I 503 W/m 14,4 C 20,8 C 1,6 km/h (1 Bft) 95,83 %
04.06.2016 11:49 20,7 C 65 % 1010,6 hPa 0,0 l/m 1,5 km/h (1 Bft) N-NW 338 0 min 0,000 mm 4,1 UV-I 466 W/m 13,9 C 20,7 C 3,2 km/h (1 Bft) 100,00 %
04.06.2016 11:50 20,7 C 68 % 1010,6 hPa 0,0 l/m 1,9 km/h (1 Bft) N-NW 346 0 min 0,000 mm 4,0 UV-I 426 W/m 14,6 C 20,7 C 3,2 km/h (1 Bft) 95,65 %
04.06.2016 11:51 20,7 C 70 % 1010,6 hPa 0,0 l/m 1,5 km/h (1 Bft) N-NW 346 0 min 0,000 mm 4,1 UV-I 432 W/m 15,0 C 20,7 C 4,8 km/h (1 Bft) 100,00 %
04.06.2016 11:52 20,6 C 70 % 1010,6 hPa 0,0 l/m 2,6 km/h (1 Bft) W-NW 298 0 min 0,000 mm 4,1 UV-I 433 W/m 14,9 C 20,6 C 4,8 km/h (1 Bft) 91,30 %
04.06.2016 11:53 20,6 C 66 % 1010,6 hPa 0,0 l/m 0,5 km/h (0 Bft) W-NW 298 0 min 0,000 mm 4,5 UV-I 452 W/m 14,0 C 20,6 C 1,6 km/h (1 Bft) 95,83 %
04.06.2016 11:54 20,5 C 67 % 1010,6 hPa 0,0 l/m 0,9 km/h (0 Bft) W-NW 285 0 min 0,000 mm 5,1 UV-I 452 W/m 14,2 C 20,5 C 1,6 km/h (1 Bft) 95,65 %
04.06.2016 11:55 20,4 C 67 % 1010,6 hPa 0,0 l/m 3,2 km/h (1 Bft) S-SW 193 0 min 0,000 mm 4,9 UV-I 452 W/m 14,1 C 20,4 C 6,4 km/h (2 Bft) 95,83 %
04.06.2016 11:56 20,4 C 65 % 1010,6 hPa 0,0 l/m 2,3 km/h (1 Bft) S-SW 193 1 min 0,000 mm 6,0 UV-I 948 W/m 13,6 C 20,4 C 6,4 km/h (2 Bft) 100,00 %
04.06.2016 11:57 20,5 C 68 % 1010,6 hPa 0,0 l/m 1,2 km/h (1 Bft) S-SW 193 1 min 0,000 mm 6,5 UV-I 1053 W/m 14,4 C 20,5 C 4,8 km/h (1 Bft) 95,83 %
04.06.2016 11:58 20,7 C 68 % 1010,6 hPa 0,0 l/m 1,7 km/h (1 Bft) S-SW 193 1 min 0,000 mm 5,9 UV-I 1053 W/m 14,6 C 20,7 C 3,2 km/h (1 Bft) 100,00 %
04.06.2016 11:59 20,9 C 68 % 1010,6 hPa 0,0 l/m 1,8 km/h (1 Bft) S-SW 193 1 min 0,000 mm 7,0 UV-I 1068 W/m 14,8 C 20,9 C 3,2 km/h (1 Bft) 95,83 %
04.06.2016 12:00 21,2 C 68 % 1010,5 hPa 0,0 l/m 0,9 km/h (0 Bft) S-SW 192 1 min 0,000 mm 7,0 UV-I 1086 W/m 15,1 C 21,2 C 3,2 km/h (1 Bft) 100,00 %
04.06.2016 12:01 21,4 C 65 % 1010,6 hPa 0,0 l/m 4,5 km/h (1 Bft) O 83 1 min 0,355 mm 7,0 UV-I 1079 W/m 14,5 C 21,4 C 6,4 km/h (2 Bft) 100,00 %
04.06.2016 12:02 21,4 C 64 % 1010,5 hPa 0,0 l/m 3,8 km/h (1 Bft) O 84 1 min 0,000 mm 6,9 UV-I 1067 W/m 14,3 C 21,4 C 6,4 km/h (2 Bft) 100,00 %
04.06.2016 12:03 21,4 C 64 % 1010,5 hPa 0,0 l/m 2,9 km/h (1 Bft) O 80 1 min 0,000 mm 7,0 UV-I 1056 W/m 14,3 C 21,4 C 4,8 km/h (1 Bft) 100,00 %
04.06.2016 12:04 21,5 C 70 % 1010,5 hPa 0,0 l/m 2,7 km/h (1 Bft) O-NO 60 1 min 0,000 mm 6,6 UV-I 974 W/m 15,8 C 21,5 C 4,8 km/h (1 Bft) 100,00 %
04.06.2016 12:05 21,6 C 67 % 1010,5 hPa 0,0 l/m 1,8 km/h (1 Bft) NO 36 1 min 0,000 mm 7,1 UV-I 1028 W/m 15,2 C 21,6 C 3,2 km/h (1 Bft) 100,00 %
04.06.2016 12:06 21,6 C 66 % 1010,5 hPa 0,0 l/m 4,5 km/h (1 Bft) N-NW 346 1 min 0,000 mm 7,2 UV-I 1099 W/m 15,0 C 21,6 C 8,0 km/h (2 Bft) 95,65 %
04.06.2016 12:07 21,6 C 69 % 1010,4 hPa 0,0 l/m 3,3 km/h (1 Bft) W-NW 294 1 min 0,000 mm 7,2 UV-I 1106 W/m 15,7 C 21,6 C 6,4 km/h (2 Bft) 100,00 %
04.06.2016 12:08 21,7 C 69 % 1010,4 hPa 0,0 l/m 1,7 km/h (1 Bft) N 11 1 min 0,000 mm 7,2 UV-I 1091 W/m 15,8 C 21,7 C 3,2 km/h (1 Bft) 95,65 %
04.06.2016 12:09 21,8 C 67 % 1010,5 hPa 0,0 l/m 2,6 km/h (1 Bft) N-NW 338 1 min 0,000 mm 6,7 UV-I 1090 W/m 15,4 C 21,8 C 4,8 km/h (1 Bft) 100,00 %
04.06.2016 12:10 21,7 C 68 % 1010,4 hPa 0,0 l/m 1,3 km/h (1 Bft) N 355 1 min 0,000 mm 4,8 UV-I 863 W/m 15,5 C 21,7 C 3,2 km/h (1 Bft) 100,00 %
04.06.2016 12:11 21,6 C 67 % 1010,5 hPa 0,0 l/m 1,3 km/h (1 Bft) N 9 0 min 0,000 mm 4,5 UV-I 404 W/m 15,2 C 21,6 C 3,2 km/h (1 Bft) 95,83 %
04.06.2016 12:12 21,4 C 62 % 1010,5 hPa 0,0 l/m 1,3 km/h (1 Bft) N 9 0 min 0,000 mm 4,5 UV-I 393 W/m 13,8 C 21,4 C 3,2 km/h (1 Bft) 100,00 %
04.06.2016 12:13 21,3 C 65 % 1010,4 hPa 0,0 l/m 1,9 km/h (1 Bft) N 11 0 min 0,000 mm 6,0 UV-I 390 W/m 14,4 C 21,3 C 4,8 km/h (1 Bft) 100,00 %
04.06.2016 12:14 21,3 C 67 % 1010,4 hPa 0,0 l/m 5,8 km/h (2 Bft) NO 40 0 min 0,000 mm 7,3 UV-I 420 W/m 14,9 C 21,3 C 9,7 km/h (2 Bft) 100,00 %
04.06.2016 12:15 21,5 C 69 % 1010,4 hPa 0,0 l/m 8,3 km/h (2 Bft) N-NO 25 1 min 0,000 mm 7,4 UV-I 1119 W/m 15,6 C 20,8 C 14,5 km/h (3 Bft) 100,00 %
04.06.2016 12:16 21,8 C 69 % 1010,4 hPa 0,0 l/m 10,1 km/h (2 Bft) N-NO 16 1 min 0,000 mm 7,3 UV-I 1113 W/m 15,9 C 20,6 C 17,7 km/h (3 Bft) 100,00 %
04.06.2016 12:17 21,9 C 67 % 1010,4 hPa 0,0 l/m 3,8 km/h (1 Bft) NO 40 1 min 0,000 mm 7,4 UV-I 1115 W/m 15,5 C 21,9 C 6,4 km/h (2 Bft) 100,00 %
04.06.2016 12:18 22,2 C 69 % 1010,4 hPa 0,0 l/m 5,2 km/h (1 Bft) N-NO 19 1 min 0,000 mm 7,4 UV-I 1118 W/m 16,2 C 22,2 C 8,0 km/h (2 Bft) 100,00 %
04.06.2016 12:19 22,2 C 69 % 1010,4 hPa 0,0 l/m 3,7 km/h (1 Bft) O 80 1 min 0,000 mm 7,5 UV-I 1125 W/m 16,2 C 22,2 C 8,0 km/h (2 Bft) 95,65 %
04.06.2016 12:20 22,2 C 61 % 1010,4 hPa 0,0 l/m 3,1 km/h (1 Bft) O-NO 61 1 min 0,000 mm 7,4 UV-I 1127 W/m 14,3 C 22,2 C 6,4 km/h (2 Bft) 100,00 %
04.06.2016 12:21 22,2 C 66 % 1010,4 hPa 0,0 l/m 1,2 km/h (1 Bft) N-NO 16 1 min 0,000 mm 7,4 UV-I 1117 W/m 15,5 C 22,2 C 3,2 km/h (1 Bft) 100,00 %
04.06.2016 12:22 22,3 C 70 % 1010,4 hPa 0,0 l/m 3,6 km/h (1 Bft) NO 40 1 min 0,000 mm 7,4 UV-I 1098 W/m 16,6 C 22,3 C 8,0 km/h (2 Bft) 100,00 %
04.06.2016 12:23 22,4 C 68 % 1010,4 hPa 0,0 l/m 5,4 km/h (1 Bft) NO 42 1 min 0,000 mm 7,5 UV-I 1145 W/m 16,2 C 22,4 C 8,0 km/h (2 Bft) 100,00 %
04.06.2016 12:24 22,4 C 64 % 1010,4 hPa 0,0 l/m 7,7 km/h (2 Bft) N-NO 13 1 min 0,000 mm 6,9 UV-I 1153 W/m 15,2 C 22,0 C 12,9 km/h (3 Bft) 100,00 %
04.06.2016 12:25 22,4 C 70 % 1010,4 hPa 0,0 l/m 7,0 km/h (2 Bft) N 9 1 min 0,000 mm 6,6 UV-I 907 W/m 16,7 C 22,2 C 11,3 km/h (2 Bft) 100,00 %
04.06.2016 12:26 22,4 C 67 % 1010,4 hPa 0,0 l/m 5,5 km/h (1 Bft) N 5 1 min 0,000 mm 6,9 UV-I 858 W/m 16,0 C 22,4 C 8,0 km/h (2 Bft) 100,00 %
04.06.2016 12:27 22,3 C 64 % 1010,4 hPa 0,0 l/m 1,7 km/h (1 Bft) NW 321 1 min 0,000 mm 6,7 UV-I 858 W/m 15,2 C 22,3 C 4,8 km/h (1 Bft) 100,00 %
04.06.2016 12:28 22,2 C 64 % 1010,4 hPa 0,0 l/m 2,4 km/h (1 Bft) NO 50 1 min 0,000 mm 5,1 UV-I 858 W/m 15,1 C 22,2 C 4,8 km/h (1 Bft) 100,00 %
04.06.2016 12:29 22,2 C 65 % 1010,3 hPa 0,0 l/m 8,7 km/h (2 Bft) N-NO 16 1 min 0,000 mm 6,1 UV-I 858 W/m 15,3 C 21,4 C 12,9 km/h (3 Bft) 95,65 %
04.06.2016 12:30 22,2 C 63 % 1010,3 hPa 0,0 l/m 6,4 km/h (2 Bft) N-NO 17 1 min 0,000 mm 7,1 UV-I 1011 W/m 14,8 C 22,2 C 9,7 km/h (2 Bft) 100,00 %
04.06.2016 12:31 22,1 C 62 % 1010,3 hPa 0,0 l/m 2,9 km/h (1 Bft) N-NO 27 1 min 0,000 mm 7,0 UV-I 1072 W/m 14,5 C 22,1 C 4,8 km/h (1 Bft) 100,00 %
04.06.2016 12:32 22,1 C 66 % 1010,3 hPa 0,0 l/m 2,1 km/h (1 Bft) N-NO 27 1 min 0,000 mm 7,1 UV-I 1066 W/m 15,4 C 22,1 C 4,8 km/h (1 Bft) 100,00 %
04.06.2016 12:33 22,1 C 62 % 1010,3 hPa 0,0 l/m 1,4 km/h (1 Bft) N-NO 27 1 min 0,000 mm 7,1 UV-I 1094 W/m 14,5 C 22,1 C 3,2 km/h (1 Bft) 96,15 %
04.06.2016 12:34 22,2 C 67 % 1010,3 hPa 0,0 l/m 4,1 km/h (1 Bft) N-NO 30 1 min 0,000 mm 6,8 UV-I 1107 W/m 15,8 C 22,2 C 8,0 km/h (2 Bft) 100,00 %
04.06.2016 12:35 22,3 C 67 % 1010,3 hPa 0,0 l/m 6,0 km/h (2 Bft) N-NO 13 1 min 0,000 mm 7,3 UV-I 1087 W/m 15,9 C 22,3 C 8,0 km/h (2 Bft) 100,00 %
04.06.2016 12:36 22,3 C 67 % 1010,3 hPa 0,0 l/m 6,3 km/h (2 Bft) N-NO 21 1 min 0,000 mm 7,2 UV-I 1064 W/m 15,9 C 22,3 C 8,0 km/h (2 Bft) 91,30 %
04.06.2016 12:37 22,4 C 69 % 1010,2 hPa 0,0 l/m 7,2 km/h (2 Bft) N 5 1 min 0,000 mm 7,1 UV-I 1051 W/m 16,4 C 22,1 C 9,7 km/h (2 Bft) 95,83 %
04.06.2016 12:38 22,6 C 71 % 1010,3 hPa 0,0 l/m 3,5 km/h (1 Bft) N-NO 27 1 min 0,000 mm 7,1 UV-I 1056 W/m 17,1 C 22,6 C 6,4 km/h (2 Bft) 100,00 %
04.06.2016 12:39 22,6 C 70 % 1010,3 hPa 0,0 l/m 4,3 km/h (1 Bft) NW 311 1 min 0,000 mm 7,2 UV-I 1052 W/m 16,8 C 22,6 C 12,9 km/h (3 Bft) 95,83 %
04.06.2016 12:40 22,7 C 68 % 1010,2 hPa 0,0 l/m 4,4 km/h (1 Bft) N-NW 331 1 min 0,000 mm 7,1 UV-I 1047 W/m 16,5 C 22,7 C 8,0 km/h (2 Bft) 96,15 %
04.06.2016 12:41 22,6 C 66 % 1010,2 hPa 0,0 l/m 2,3 km/h (1 Bft) N-NO 17 1 min 0,000 mm 7,2 UV-I 1062 W/m 15,9 C 22,6 C 3,2 km/h (1 Bft) 100,00 %
04.06.2016 12:42 22,6 C 65 % 1010,2 hPa 0,0 l/m 5,3 km/h (1 Bft) N-NW 347 1 min 0,000 mm 7,1 UV-I 1053 W/m 15,7 C 22,6 C 12,9 km/h (3 Bft) 100,00 %
04.06.2016 12:43 22,5 C 67 % 1010,2 hPa 0,0 l/m 4,8 km/h (1 Bft) W-NW 301 1 min 0,000 mm 7,0 UV-I 1038 W/m 16,1 C 22,5 C 8,0 km/h (2 Bft) 100,00 %
04.06.2016 12:44 22,4 C 63 % 1010,2 hPa 0,0 l/m 2,9 km/h (1 Bft) W-NW 292 1 min 0,000 mm 6,9 UV-I 1018 W/m 15,0 C 22,4 C 8,0 km/h (2 Bft) 100,00 %
04.06.2016 12:45 22,3 C 64 % 1010,3 hPa 0,0 l/m 5,8 km/h (2 Bft) NW 306 1 min 0,000 mm 6,9 UV-I 1020 W/m 15,2 C 22,3 C 9,7 km/h (2 Bft) 100,00 %
04.06.2016 12:46 22,2 C 66 % 1010,3 hPa 0,0 l/m 3,0 km/h (1 Bft) N-NW 327 1 min 0,000 mm 6,7 UV-I 1020 W/m 15,5 C 22,2 C 6,4 km/h (2 Bft) 100,00 %
04.06.2016 12:47 22,2 C 63 % 1010,2 hPa 0,0 l/m 3,4 km/h (1 Bft) N 350 1 min 0,000 mm 6,8 UV-I 1021 W/m 14,8 C 22,2 C 4,8 km/h (1 Bft) 100,00 %
04.06.2016 12:48 22,2 C 63 % 1010,2 hPa 0,0 l/m 2,3 km/h (1 Bft) W 278 1 min 0,000 mm 6,8 UV-I 1021 W/m 14,8 C 22,2 C 3,2 km/h (1 Bft) 100,00 %
04.06.2016 12:49 22,2 C 67 % 1010,2 hPa 0,0 l/m 1,8 km/h (1 Bft) N-NW 330 1 min 0,000 mm 7,0 UV-I 1027 W/m 15,8 C 22,2 C 3,2 km/h (1 Bft) 100,00 %
04.06.2016 12:50 22,3 C 65 % 1010,2 hPa 0,0 l/m 1,4 km/h (1 Bft) N-NW 337 1 min 0,000 mm 7,1 UV-I 1027 W/m 15,4 C 22,3 C 3,2 km/h (1 Bft) 100,00 %
04.06.2016 12:51 22,4 C 67 % 1010,3 hPa 0,0 l/m 3,1 km/h (1 Bft) N-NO 27 1 min 0,000 mm 7,1 UV-I 974 W/m 16,0 C 22,4 C 6,4 km/h (2 Bft) 100,00 %
04.06.2016 12:52 22,6 C 70 % 1010,2 hPa 0,0 l/m 3,5 km/h (1 Bft) N-NO 28 1 min 0,000 mm 7,1 UV-I 1019 W/m 16,8 C 22,6 C 6,4 km/h (2 Bft) 100,00 %
04.06.2016 12:53 22,7 C 67 % 1010,3 hPa 0,0 l/m 5,2 km/h (1 Bft) N-NO 28 1 min 0,000 mm 7,1 UV-I 1044 W/m 16,2 C 22,7 C 9,7 km/h (2 Bft) 100,00 %
04.06.2016 12:54 22,7 C 68 % 1010,2 hPa 0,0 l/m 2,8 km/h (1 Bft) N-NO 28 1 min 0,000 mm 7,1 UV-I 1040 W/m 16,5 C 22,7 C 6,4 km/h (2 Bft) 100,00 %
04.06.2016 12:55 22,7 C 67 % 1010,3 hPa 0,0 l/m 4,2 km/h (1 Bft) N-NO 13 1 min 0,000 mm 7,1 UV-I 1020 W/m 16,2 C 22,7 C 6,4 km/h (2 Bft) 100,00 %
04.06.2016 12:56 22,7 C 64 % 1010,3 hPa 0,0 l/m 8,6 km/h (2 Bft) N-NO 20 1 min 0,000 mm 7,0 UV-I 997 W/m 15,5 C 22,0 C 14,5 km/h (3 Bft) 95,83 %
04.06.2016 12:57 22,8 C 67 % 1010,2 hPa 0,0 l/m 3,9 km/h (1 Bft) N-NO 25 1 min 0,000 mm 7,1 UV-I 1025 W/m 16,3 C 22,8 C 6,4 km/h (2 Bft) 100,00 %
04.06.2016 12:58 22,7 C 67 % 1010,3 hPa 0,0 l/m 3,6 km/h (1 Bft) N-NW 344 1 min 0,000 mm 7,2 UV-I 1042 W/m 16,2 C 22,7 C 8,0 km/h (2 Bft) 100,00 %
04.06.2016 12:59 22,6 C 63 % 1010,3 hPa 0,0 l/m 2,8 km/h (1 Bft) N 9 1 min 0,000 mm 7,2 UV-I 1043 W/m 15,2 C 22,6 C 4,8 km/h (1 Bft) 100,00 %
04.06.2016 13:00 22,6 C 64 % 1010,2 hPa 0,0 l/m 3,0 km/h (1 Bft) N-NO 13 1 min 0,610 mm 7,2 UV-I 1042 W/m 15,4 C 22,6 C 4,8 km/h (1 Bft) 100,00 %
04.06.2016 13:01 22,6 C 69 % 1010,2 hPa 0,0 l/m 3,3 km/h (1 Bft) N-NO 13 1 min 0,000 mm 7,2 UV-I 1041 W/m 16,6 C 22,6 C 6,4 km/h (2 Bft) 100,00 %
04.06.2016 13:02 22,5 C 65 % 1010,2 hPa 0,0 l/m 2,4 km/h (1 Bft) N 355 1 min 0,000 mm 7,2 UV-I 1046 W/m 15,6 C 22,5 C 3,2 km/h (1 Bft) 100,00 %
04.06.2016 13:03 22,4 C 60 % 1010,3 hPa 0,0 l/m 1,1 km/h (1 Bft) N 355 1 min 0,000 mm 7,2 UV-I 1040 W/m 14,2 C 22,4 C 3,2 km/h (1 Bft) 100,00 %
04.06.2016 13:04 22,3 C 63 % 1010,2 hPa 0,0 l/m 1,1 km/h (1 Bft) N 355 1 min 0,000 mm 7,0 UV-I 1022 W/m 14,9 C 22,3 C 1,6 km/h (1 Bft) 100,00 %
04.06.2016 13:05 22,2 C 60 % 1010,2 hPa 0,0 l/m 1,6 km/h (1 Bft) N-NW 342 1 min 0,000 mm 7,0 UV-I 1020 W/m 14,1 C 22,2 C 3,2 km/h (1 Bft) 100,00 %
04.06.2016 13:06 22,1 C 59 % 1010,1 hPa 0,0 l/m 1,5 km/h (1 Bft) N-NW 342 1 min 0,000 mm 7,0 UV-I 1030 W/m 13,7 C 22,1 C 3,2 km/h (1 Bft) 100,00 %
04.06.2016 13:07 22,1 C 60 % 1010,2 hPa 0,0 l/m 3,5 km/h (1 Bft) S-SW 209 1 min 0,000 mm 7,1 UV-I 1039 W/m 14,0 C 22,1 C 6,4 km/h (2 Bft) 100,00 %
04.06.2016 13:08 22,2 C 65 % 1010,1 hPa 0,0 l/m 3,1 km/h (1 Bft) S-SW 208 1 min 0,000 mm 7,1 UV-I 1044 W/m 15,3 C 22,2 C 6,4 km/h (2 Bft) 100,00 %
04.06.2016 13:09 22,3 C 64 % 1010,1 hPa 0,0 l/m 1,8 km/h (1 Bft) S-SO 165 1 min 0,000 mm 6,9 UV-I 1036 W/m 15,2 C 22,3 C 3,2 km/h (1 Bft) 100,00 %
04.06.2016 13:10 22,3 C 60 % 1010,1 hPa 0,0 l/m 1,5 km/h (1 Bft) SO 144 1 min 0,000 mm 6,9 UV-I 1034 W/m 14,2 C 22,3 C 3,2 km/h (1 Bft) 95,65 %
04.06.2016 13:11 22,4 C 66 % 1010,1 hPa 0,0 l/m 1,4 km/h (1 Bft) S-SO 153 1 min 0,000 mm 6,9 UV-I 1042 W/m 15,7 C 22,4 C 1,6 km/h (1 Bft) 91,67 %
04.06.2016 13:12 22,6 C 64 % 1010,1 hPa 0,0 l/m 1,8 km/h (1 Bft) N-NO 26 1 min 0,000 mm 6,5 UV-I 1013 W/m 15,4 C 22,6 C 4,8 km/h (1 Bft) 100,00 %
04.06.2016 13:13 22,6 C 67 % 1010,1 hPa 0,0 l/m 2,1 km/h (1 Bft) N 355 1 min 0,000 mm 6,9 UV-I 1010 W/m 16,2 C 22,6 C 4,8 km/h (1 Bft) 100,00 %
04.06.2016 13:14 22,6 C 64 % 1010,1 hPa 0,0 l/m 1,5 km/h (1 Bft) N 5 1 min 0,000 mm 6,6 UV-I 994 W/m 15,4 C 22,6 C 3,2 km/h (1 Bft) 100,00 %
04.06.2016 13:15 22,6 C 67 % 1010,0 hPa 0,0 l/m 6,1 km/h (2 Bft) NW 319 1 min 0,000 mm 6,7 UV-I 1017 W/m 16,2 C 22,6 C 12,9 km/h (3 Bft) 100,00 %
04.06.2016 13:16 22,6 C 67 % 1010,1 hPa 0,0 l/m 2,5 km/h (1 Bft) NW 325 1 min 0,000 mm 6,9 UV-I 1027 W/m 16,2 C 22,6 C 4,8 km/h (1 Bft) 95,65 %
04.06.2016 13:17 22,7 C 64 % 1010,1 hPa 0,0 l/m 3,9 km/h (1 Bft) N-NW 330 1 min 0,000 mm 6,9 UV-I 1027 W/m 15,5 C 22,7 C 4,8 km/h (1 Bft) 100,00 %
04.06.2016 13:18 22,7 C 63 % 1010,0 hPa 0,0 l/m 3,3 km/h (1 Bft) N-NW 344 1 min 0,000 mm 6,8 UV-I 1017 W/m 15,3 C 22,7 C 6,4 km/h (2 Bft) 100,00 %
04.06.2016 13:19 22,7 C 64 % 1010,1 hPa 0,0 l/m 5,5 km/h (1 Bft) W-NW 297 1 min 0,000 mm 6,1 UV-I 993 W/m 15,5 C 22,7 C 9,7 km/h (2 Bft) 95,83 %
04.06.2016 13:20 22,5 C 65 % 1010,1 hPa 0,0 l/m 5,2 km/h (1 Bft) N-NW 335 1 min 0,000 mm 4,3 UV-I 821 W/m 15,6 C 22,5 C 11,3 km/h (2 Bft) 91,30 %
04.06.2016 13:21 22,3 C 62 % 1010,1 hPa 0,0 l/m 4,3 km/h (1 Bft) N-NW 333 0 min 0,000 mm 4,0 UV-I 297 W/m 14,7 C 22,3 C 8,0 km/h (2 Bft) 95,83 %
04.06.2016 13:22 22,2 C 63 % 1010,1 hPa 0,0 l/m 2,0 km/h (1 Bft) NW 315 0 min 0,000 mm 3,8 UV-I 280 W/m 14,8 C 22,2 C 3,2 km/h (1 Bft) 100,00 %
04.06.2016 13:23 22,1 C 66 % 1010,0 hPa 0,0 l/m 1,9 km/h (1 Bft) N-NW 327 0 min 0,000 mm 3,8 UV-I 276 W/m 15,4 C 22,1 C 4,8 km/h (1 Bft) 95,83 %
04.06.2016 13:24 21,9 C 64 % 1010,1 hPa 0,0 l/m 3,2 km/h (1 Bft) NW 313 0 min 0,000 mm 3,8 UV-I 282 W/m 14,8 C 21,9 C 4,8 km/h (1 Bft) 95,65 %
04.06.2016 13:25 21,8 C 61 % 1010,0 hPa 0,0 l/m 1,4 km/h (1 Bft) NW 313 0 min 0,000 mm 4,9 UV-I 283 W/m 13,9 C 21,8 C 3,2 km/h (1 Bft) 91,67 %
04.06.2016 13:26 21,7 C 65 % 1010,0 hPa 0,0 l/m 1,5 km/h (1 Bft) NW 313 0 min 0,000 mm 5,9 UV-I 454 W/m 14,8 C 21,7 C 3,2 km/h (1 Bft) 95,65 %
04.06.2016 13:27 21,7 C 67 % 1010,0 hPa 0,0 l/m 1,9 km/h (1 Bft) NW 312 1 min 0,000 mm 5,8 UV-I 870 W/m 15,3 C 21,7 C 4,8 km/h (1 Bft) 95,83 %
04.06.2016 13:28 21,8 C 68 % 1010,0 hPa 0,0 l/m 2,1 km/h (1 Bft) NW 312 1 min 0,000 mm 5,5 UV-I 740 W/m 15,6 C 21,8 C 3,2 km/h (1 Bft) 96,15 %
04.06.2016 13:29 21,9 C 62 % 1010,0 hPa 0,0 l/m 0,6 km/h (0 Bft) NW 312 1 min 0,000 mm 5,1 UV-I 647 W/m 14,3 C 21,9 C 1,6 km/h (1 Bft) 100,00 %
04.06.2016 13:30 21,9 C 59 % 1010,0 hPa 0,0 l/m 1,6 km/h (1 Bft) NW 312 1 min 0,000 mm 4,9 UV-I 593 W/m 13,5 C 21,9 C 3,2 km/h (1 Bft) 95,65 %
04.06.2016 13:31 21,9 C 59 % 1010,0 hPa 0,0 l/m 0,7 km/h (0 Bft) NW 312 1 min 0,000 mm 4,7 UV-I 561 W/m 13,5 C 21,9 C 1,6 km/h (1 Bft) 100,00 %
04.06.2016 13:32 21,8 C 58 % 1010,0 hPa 0,0 l/m 0,2 km/h (0 Bft) NW 312 1 min 0,000 mm 4,6 UV-I 557 W/m 13,2 C 21,8 C 1,6 km/h (1 Bft) 95,83 %
04.06.2016 13:33 21,7 C 57 % 1010,0 hPa 0,0 l/m 1,1 km/h (1 Bft) NW 314 1 min 0,000 mm 4,4 UV-I 533 W/m 12,8 C 21,7 C 3,2 km/h (1 Bft) 100,00 %
04.06.2016 13:34 21,8 C 57 % 1010,0 hPa 0,0 l/m 1,5 km/h (1 Bft) NW 319 1 min 0,000 mm 4,3 UV-I 517 W/m 12,9 C 21,8 C 3,2 km/h (1 Bft) 95,83 %
04.06.2016 13:35 21,8 C 62 % 1009,9 hPa 0,0 l/m 3,6 km/h (1 Bft) N-NO 19 1 min 0,000 mm 4,5 UV-I 556 W/m 14,2 C 21,8 C 4,8 km/h (1 Bft) 100,00 %
04.06.2016 13:36 21,9 C 62 % 1010,0 hPa 0,0 l/m 2,5 km/h (1 Bft) N-NO 26 1 min 0,000 mm 4,7 UV-I 610 W/m 14,3 C 21,9 C 3,2 km/h (1 Bft) 95,83 %
04.06.2016 13:37 22,0 C 60 % 1010,0 hPa 0,0 l/m 2,1 km/h (1 Bft) N-NO 26 1 min 0,000 mm 4,8 UV-I 605 W/m 13,9 C 22,0 C 3,2 km/h (1 Bft) 95,65 %
04.06.2016 13:38 22,1 C 61 % 1010,0 hPa 0,0 l/m 1,0 km/h (0 Bft) N-NO 26 1 min 0,000 mm 4,8 UV-I 633 W/m 14,2 C 22,1 C 3,2 km/h (1 Bft) 100,00 %
04.06.2016 13:39 22,1 C 61 % 1010,0 hPa 0,0 l/m 2,7 km/h (1 Bft) N-NO 26 1 min 0,000 mm 4,9 UV-I 664 W/m 14,2 C 22,1 C 3,2 km/h (1 Bft) 95,65 %
04.06.2016 13:40 22,1 C 57 % 1009,9 hPa 0,0 l/m 3,0 km/h (1 Bft) NO 40 1 min 0,000 mm 5,0 UV-I 664 W/m 13,2 C 22,1 C 4,8 km/h (1 Bft) 91,67 %
04.06.2016 13:41 22,0 C 61 % 1009,9 hPa 0,0 l/m 2,8 km/h (1 Bft) O-NO 75 1 min 0,000 mm 5,2 UV-I 735 W/m 14,1 C 22,0 C 4,8 km/h (1 Bft) 95,65 %
04.06.2016 13:42 22,0 C 60 % 1009,9 hPa 0,0 l/m 3,8 km/h (1 Bft) O 86 1 min 0,000 mm 5,4 UV-I 746 W/m 13,9 C 22,0 C 8,0 km/h (2 Bft) 100,00 %
04.06.2016 13:43 22,1 C 59 % 1009,9 hPa 0,0 l/m 4,1 km/h (1 Bft) O-SO 110 1 min 0,000 mm 5,6 UV-I 815 W/m 13,7 C 22,1 C 6,4 km/h (2 Bft) 95,65 %
04.06.2016 13:44 22,1 C 59 % 1009,9 hPa 0,0 l/m 4,4 km/h (1 Bft) O-SO 116 1 min 0,000 mm 5,7 UV-I 815 W/m 13,7 C 22,1 C 6,4 km/h (2 Bft) 100,00 %
04.06.2016 13:45 22,0 C 57 % 1009,9 hPa 0,0 l/m 3,1 km/h (1 Bft) O-SO 121 1 min 0,000 mm 5,9 UV-I 864 W/m 13,1 C 22,0 C 4,8 km/h (1 Bft) 96,15 %
04.06.2016 13:46 22,1 C 60 % 1009,9 hPa 0,0 l/m 2,4 km/h (1 Bft) S-SO 163 1 min 0,000 mm 5,9 UV-I 883 W/m 14,0 C 22,1 C 4,8 km/h (1 Bft) 95,83 %
04.06.2016 13:47 22,2 C 58 % 1009,9 hPa 0,0 l/m 2,3 km/h (1 Bft) S-SO 167 1 min 0,000 mm 5,8 UV-I 847 W/m 13,5 C 22,2 C 4,8 km/h (1 Bft) 100,00 %
04.06.2016 13:48 22,3 C 60 % 1009,9 hPa 0,0 l/m 2,1 km/h (1 Bft) W 270 1 min 0,000 mm 5,6 UV-I 804 W/m 14,2 C 22,3 C 4,8 km/h (1 Bft) 95,83 %
04.06.2016 13:49 22,3 C 58 % 1009,8 hPa 0,0 l/m 3,9 km/h (1 Bft) NW 306 1 min 0,000 mm 5,8 UV-I 808 W/m 13,6 C 22,3 C 6,4 km/h (2 Bft) 100,00 %
04.06.2016 13:50 22,4 C 60 % 1009,8 hPa 0,0 l/m 3,4 km/h (1 Bft) W-NW 287 1 min 0,000 mm 5,6 UV-I 812 W/m 14,2 C 22,4 C 6,4 km/h (2 Bft) 95,83 %
04.06.2016 13:51 22,6 C 60 % 1009,7 hPa 0,0 l/m 5,6 km/h (1 Bft) W 280 1 min 0,000 mm 5,6 UV-I 804 W/m 14,4 C 22,6 C 9,7 km/h (2 Bft) 100,00 %
04.06.2016 13:52 22,6 C 64 % 1009,8 hPa 0,0 l/m 5,0 km/h (1 Bft) NW 318 1 min 0,000 mm 5,2 UV-I 793 W/m 15,4 C 22,6 C 11,3 km/h (2 Bft) 100,00 %
04.06.2016 13:53 22,7 C 61 % 1009,8 hPa 0,0 l/m 1,9 km/h (1 Bft) N 351 1 min 0,000 mm 5,0 UV-I 646 W/m 14,8 C 22,7 C 3,2 km/h (1 Bft) 96,30 %
04.06.2016 13:54 22,7 C 63 % 1009,8 hPa 0,0 l/m 2,6 km/h (1 Bft) N-NW 338 1 min 0,000 mm 4,8 UV-I 564 W/m 15,3 C 22,7 C 4,8 km/h (1 Bft) 100,00 %
04.06.2016 13:55 22,7 C 62 % 1009,8 hPa 0,0 l/m 2,2 km/h (1 Bft) NW 325 1 min 0,000 mm 5,2 UV-I 561 W/m 15,0 C 22,7 C 3,2 km/h (1 Bft) 100,00 %
04.06.2016 13:56 22,6 C 60 % 1009,8 hPa 0,0 l/m 2,7 km/h (1 Bft) N-NO 16 1 min 0,000 mm 5,0 UV-I 561 W/m 14,4 C 22,6 C 4,8 km/h (1 Bft) 97,14 %
04.06.2016 13:57 22,6 C 62 % 1009,8 hPa 0,0 l/m 5,7 km/h (1 Bft) N-NO 12 1 min 0,000 mm 5,9 UV-I 561 W/m 14,9 C 22,6 C 9,7 km/h (2 Bft) 100,00 %
04.06.2016 13:58 22,6 C 59 % 1009,7 hPa 0,0 l/m 2,3 km/h (1 Bft) N-NO 12 1 min 0,000 mm 6,0 UV-I 784 W/m 14,2 C 22,6 C 3,2 km/h (1 Bft) 100,00 %
04.06.2016 13:59 22,6 C 63 % 1009,8 hPa 0,0 l/m 2,3 km/h (1 Bft) N-NW 346 1 min 0,000 mm 6,2 UV-I 938 W/m 15,2 C 22,6 C 3,2 km/h (1 Bft) 100,00 %
04.06.2016 14:00 22,7 C 60 % 1009,7 hPa 0,0 l/m 1,4 km/h (1 Bft) N-NW 344 1 min 0,482 mm 6,1 UV-I 906 W/m 14,5 C 22,7 C 3,2 km/h (1 Bft) 100,00 %
04.06.2016 14:01 22,8 C 62 % 1009,7 hPa 0,0 l/m 3,7 km/h (1 Bft) W 262 1 min 0,000 mm 6,0 UV-I 891 W/m 15,1 C 22,8 C 6,4 km/h (2 Bft) 100,00 %
04.06.2016 14:02 22,7 C 62 % 1009,7 hPa 0,0 l/m 1,6 km/h (1 Bft) W 262 1 min 0,000 mm 6,3 UV-I 946 W/m 15,0 C 22,7 C 3,2 km/h (1 Bft) 96,15 %
04.06.2016 14:03 22,7 C 57 % 1009,7 hPa 0,0 l/m 1,3 km/h (1 Bft) W-SW 238 1 min 0,000 mm 6,2 UV-I 902 W/m 13,7 C 22,7 C 3,2 km/h (1 Bft) 95,83 %
04.06.2016 14:04 22,7 C 57 % 1009,6 hPa 0,0 l/m 1,4 km/h (1 Bft) SW 228 1 min 0,000 mm 5,9 UV-I 844 W/m 13,7 C 22,7 C 3,2 km/h (1 Bft) 91,30 %
04.06.2016 14:05 22,7 C 57 % 1009,6 hPa 0,0 l/m 1,2 km/h (1 Bft) SW 228 1 min 0,000 mm 5,6 UV-I 807 W/m 13,7 C 22,7 C 1,6 km/h (1 Bft) 95,83 %
04.06.2016 14:06 22,7 C 58 % 1009,6 hPa 0,0 l/m 0,4 km/h (0 Bft) SW 228 1 min 0,000 mm 5,8 UV-I 819 W/m 14,0 C 22,7 C 1,6 km/h (1 Bft) 100,00 %
04.06.2016 14:07 22,7 C 58 % 1009,6 hPa 0,0 l/m 1,2 km/h (1 Bft) SO 142 1 min 0,000 mm 5,4 UV-I 746 W/m 14,0 C 22,7 C 3,2 km/h (1 Bft) 100,00 %
04.06.2016 14:08 22,6 C 57 % 1009,6 hPa 0,0 l/m 4,3 km/h (1 Bft) O 94 1 min 0,000 mm 5,2 UV-I 707 W/m 13,6 C 22,6 C 6,4 km/h (2 Bft) 100,00 %
04.06.2016 14:09 22,6 C 59 % 1009,6 hPa 0,0 l/m 4,9 km/h (1 Bft) O-NO 71 1 min 0,000 mm 5,1 UV-I 683 W/m 14,2 C 22,6 C 6,4 km/h (2 Bft) 100,00 %
04.06.2016 14:10 22,6 C 60 % 1009,6 hPa 0,0 l/m 3,7 km/h (1 Bft) O-SO 103 1 min 0,000 mm 4,7 UV-I 602 W/m 14,4 C 22,6 C 6,4 km/h (2 Bft) 100,00 %
04.06.2016 14:11 22,6 C 60 % 1009,6 hPa 0,0 l/m 2,6 km/h (1 Bft) O-SO 103 1 min 0,000 mm 4,2 UV-I 578 W/m 14,4 C 22,6 C 4,8 km/h (1 Bft) 95,65 %
04.06.2016 14:12 22,7 C 63 % 1009,6 hPa 0,0 l/m 1,3 km/h (1 Bft) O 94 0 min 0,000 mm 3,9 UV-I 421 W/m 15,3 C 22,7 C 3,2 km/h (1 Bft) 100,00 %
04.06.2016 14:13 22,6 C 63 % 1009,7 hPa 0,0 l/m 1,9 km/h (1 Bft) N 355 0 min 0,000 mm 4,0 UV-I 426 W/m 15,2 C 22,6 C 3,2 km/h (1 Bft) 100,00 %
04.06.2016 14:14 22,6 C 63 % 1009,7 hPa 0,0 l/m 2,3 km/h (1 Bft) N 9 0 min 0,000 mm 4,0 UV-I 444 W/m 15,2 C 22,6 C 4,8 km/h (1 Bft) 100,00 %
04.06.2016 14:15 22,4 C 64 % 1009,7 hPa 0,0 l/m 5,1 km/h (1 Bft) N-NO 14 0 min 0,000 mm 4,1 UV-I 449 W/m 15,2 C 22,4 C 8,0 km/h (2 Bft) 100,00 %
04.06.2016 14:16 22,4 C 68 % 1009,7 hPa 0,0 l/m 2,1 km/h (1 Bft) N-NO 14 1 min 0,000 mm 4,1 UV-I 487 W/m 16,2 C 22,4 C 3,2 km/h (1 Bft) 100,00 %
04.06.2016 14:17 22,5 C 65 % 1009,7 hPa 0,0 l/m 1,4 km/h (1 Bft) N-NO 27 1 min 0,000 mm 4,7 UV-I 509 W/m 15,6 C 22,5 C 3,2 km/h (1 Bft) 100,00 %
04.06.2016 14:18 22,5 C 65 % 1009,7 hPa 0,0 l/m 4,1 km/h (1 Bft) N-NO 30 1 min 0,000 mm 4,6 UV-I 621 W/m 15,6 C 22,5 C 6,4 km/h (2 Bft) 100,00 %
04.06.2016 14:19 22,6 C 65 % 1009,7 hPa 0,0 l/m 1,3 km/h (1 Bft) N 355 1 min 0,000 mm 4,1 UV-I 568 W/m 15,7 C 22,6 C 4,8 km/h (1 Bft) 100,00 %
04.06.2016 14:20 22,6 C 66 % 1009,7 hPa 0,0 l/m 4,2 km/h (1 Bft) N-NO 20 0 min 0,000 mm 3,8 UV-I 433 W/m 15,9 C 22,6 C 8,0 km/h (2 Bft) 100,00 %
04.06.2016 14:21 22,5 C 64 % 1009,7 hPa 0,0 l/m 7,3 km/h (2 Bft) N-NO 28 0 min 0,000 mm 3,7 UV-I 419 W/m 15,3 C 22,2 C 11,3 km/h (2 Bft) 100,00 %
04.06.2016 14:22 22,4 C 65 % 1009,7 hPa 0,0 l/m 7,6 km/h (2 Bft) N-NO 20 0 min 0,000 mm 3,7 UV-I 433 W/m 15,5 C 22,0 C 12,9 km/h (3 Bft) 100,00 %
04.06.2016 14:23 22,4 C 67 % 1009,6 hPa 0,0 l/m 7,3 km/h (2 Bft) N-NO 28 0 min 0,000 mm 3,5 UV-I 385 W/m 16,0 C 22,1 C 11,3 km/h (2 Bft) 91,67 %
04.06.2016 14:24 22,3 C 63 % 1009,7 hPa 0,0 l/m 4,7 km/h (1 Bft) NO 56 0 min 0,000 mm 3,8 UV-I 403 W/m 14,9 C 22,3 C 6,4 km/h (2 Bft) 100,00 %
04.06.2016 14:25 22,3 C 63 % 1009,7 hPa 0,0 l/m 6,0 km/h (2 Bft) NO 54 1 min 0,000 mm 4,0 UV-I 478 W/m 14,9 C 22,3 C 8,0 km/h (2 Bft) 100,00 %
04.06.2016 14:26 22,3 C 65 % 1009,7 hPa 0,0 l/m 4,3 km/h (1 Bft) NO 45 1 min 0,000 mm 4,2 UV-I 523 W/m 15,4 C 22,3 C 4,8 km/h (1 Bft) 100,00 %
04.06.2016 14:27 22,4 C 62 % 1009,7 hPa 0,0 l/m 3,1 km/h (1 Bft) NO 45 1 min 0,000 mm 4,3 UV-I 591 W/m 14,8 C 22,4 C 4,8 km/h (1 Bft) 95,83 %
04.06.2016 14:28 22,5 C 65 % 1009,7 hPa 0,0 l/m 5,0 km/h (1 Bft) N-NO 27 1 min 0,000 mm 4,5 UV-I 646 W/m 15,6 C 22,5 C 6,4 km/h (2 Bft) 100,00 %
04.06.2016 14:29 22,6 C 62 % 1009,7 hPa 0,0 l/m 5,2 km/h (1 Bft) NO 51 1 min 0,000 mm 4,7 UV-I 698 W/m 14,9 C 22,6 C 6,4 km/h (2 Bft) 100,00 %
04.06.2016 14:30 22,6 C 59 % 1009,7 hPa 0,0 l/m 3,0 km/h (1 Bft) O-NO 65 1 min 0,000 mm 4,9 UV-I 715 W/m 14,2 C 22,6 C 4,8 km/h (1 Bft) 100,00 %
04.06.2016 14:31 22,6 C 56 % 1009,7 hPa 0,0 l/m 2,2 km/h (1 Bft) O-SO 104 1 min 0,000 mm 5,0 UV-I 738 W/m 13,4 C 22,6 C 4,8 km/h (1 Bft) 100,00 %
04.06.2016 14:32 22,7 C 60 % 1009,6 hPa 0,0 l/m 2,7 km/h (1 Bft) O-SO 104 1 min 0,000 mm 4,7 UV-I 710 W/m 14,5 C 22,7 C 4,8 km/h (1 Bft) 100,00 %
04.06.2016 14:33 22,7 C 57 % 1009,6 hPa 0,0 l/m 3,2 km/h (1 Bft) SO 130 1 min 0,000 mm 4,4 UV-I 629 W/m 13,7 C 22,7 C 4,8 km/h (1 Bft) 100,00 %
04.06.2016 14:34 22,7 C 58 % 1009,7 hPa 0,0 l/m 2,9 km/h (1 Bft) SO 130 1 min 0,000 mm 4,7 UV-I 654 W/m 14,0 C 22,7 C 4,8 km/h (1 Bft) 100,00 %
04.06.2016 14:35 22,7 C 59 % 1009,6 hPa 0,0 l/m 0,7 km/h (0 Bft) SO 130 1 min 0,000 mm 5,1 UV-I 749 W/m 14,3 C 22,7 C 1,6 km/h (1 Bft) 100,00 %
04.06.2016 14:36 22,8 C 60 % 1009,6 hPa 0,0 l/m 0,4 km/h (0 Bft) SO 130 1 min 0,000 mm 5,4 UV-I 818 W/m 14,6 C 22,8 C 1,6 km/h (1 Bft) 100,00 %
04.06.2016 14:37 22,9 C 60 % 1009,6 hPa 0,0 l/m 1,0 km/h (0 Bft) SO 130 1 min 0,000 mm 5,5 UV-I 848 W/m 14,7 C 22,9 C 3,2 km/h (1 Bft) 100,00 %
04.06.2016 14:38 22,9 C 59 % 1009,6 hPa 0,0 l/m 1,4 km/h (1 Bft) SO 128 1 min 0,000 mm 5,6 UV-I 851 W/m 14,5 C 22,9 C 3,2 km/h (1 Bft) 95,65 %
04.06.2016 14:39 22,9 C 60 % 1009,5 hPa 0,0 l/m 3,0 km/h (1 Bft) W 266 1 min 0,000 mm 5,4 UV-I 825 W/m 14,7 C 22,9 C 6,4 km/h (2 Bft) 100,00 %
04.06.2016 14:40 23,0 C 55 % 1009,5 hPa 0,0 l/m 5,0 km/h (1 Bft) W-SW 255 1 min 0,000 mm 5,3 UV-I 792 W/m 13,5 C 23,0 C 6,4 km/h (2 Bft) 95,65 %
04.06.2016 14:41 23,0 C 56 % 1009,6 hPa 0,0 l/m 5,0 km/h (1 Bft) W 267 1 min 0,000 mm 5,4 UV-I 816 W/m 13,7 C 23,0 C 6,4 km/h (2 Bft) 100,00 %
04.06.2016 14:42 23,1 C 59 % 1009,6 hPa 0,0 l/m 2,6 km/h (1 Bft) W 268 1 min 0,000 mm 5,4 UV-I 825 W/m 14,6 C 23,1 C 3,2 km/h (1 Bft) 95,65 %
04.06.2016 14:43 23,1 C 56 % 1009,5 hPa 0,0 l/m 2,3 km/h (1 Bft) N-NO 15 1 min 0,000 mm 5,3 UV-I 808 W/m 13,8 C 23,1 C 4,8 km/h (1 Bft) 100,00 %
04.06.2016 14:44 23,2 C 58 % 1009,5 hPa 0,0 l/m 1,9 km/h (1 Bft) NW 322 1 min 0,000 mm 5,3 UV-I 808 W/m 14,5 C 23,2 C 3,2 km/h (1 Bft) 95,65 %
04.06.2016 14:45 23,2 C 60 % 1009,5 hPa 0,0 l/m 3,8 km/h (1 Bft) W-NW 298 1 min 0,000 mm 5,3 UV-I 817 W/m 15,0 C 23,2 C 6,4 km/h (2 Bft) 100,00 %
04.06.2016 14:46 23,3 C 55 % 1009,5 hPa 0,0 l/m 3,8 km/h (1 Bft) W-NW 300 1 min 0,000 mm 5,4 UV-I 841 W/m 13,7 C 23,3 C 4,8 km/h (1 Bft) 100,00 %
04.06.2016 14:47 23,3 C 54 % 1009,5 hPa 0,0 l/m 3,3 km/h (1 Bft) W-NW 302 1 min 0,000 mm 5,6 UV-I 868 W/m 13,5 C 23,3 C 4,8 km/h (1 Bft) 100,00 %
04.06.2016 14:48 23,2 C 53 % 1009,5 hPa 0,0 l/m 1,8 km/h (1 Bft) W-NW 303 1 min 0,000 mm 5,7 UV-I 900 W/m 13,1 C 23,2 C 3,2 km/h (1 Bft) 96,15 %
04.06.2016 14:49 23,2 C 53 % 1009,5 hPa 0,0 l/m 2,9 km/h (1 Bft) W-NW 288 1 min 0,000 mm 5,7 UV-I 892 W/m 13,1 C 23,2 C 4,8 km/h (1 Bft) 100,00 %
04.06.2016 14:50 23,2 C 59 % 1009,5 hPa 0,0 l/m 2,7 km/h (1 Bft) W-NW 288 1 min 0,000 mm 5,6 UV-I 869 W/m 14,7 C 23,2 C 4,8 km/h (1 Bft) 100,00 %
04.06.2016 14:51 23,4 C 56 % 1009,5 hPa 0,0 l/m 0,8 km/h (0 Bft) W-NW 288 1 min 0,000 mm 5,4 UV-I 866 W/m 14,1 C 23,4 C 1,6 km/h (1 Bft) 100,00 %
04.06.2016 14:52 23,4 C 53 % 1009,5 hPa 0,0 l/m 3,6 km/h (1 Bft) O-SO 105 1 min 0,000 mm 5,1 UV-I 863 W/m 13,3 C 23,4 C 6,4 km/h (2 Bft) 100,00 %
04.06.2016 14:53 23,3 C 53 % 1009,5 hPa 0,0 l/m 2,3 km/h (1 Bft) O 88 1 min 0,000 mm 4,9 UV-I 780 W/m 13,2 C 23,3 C 3,2 km/h (1 Bft) 100,00 %
04.06.2016 14:54 23,4 C 58 % 1009,5 hPa 0,0 l/m 5,0 km/h (1 Bft) O 100 1 min 0,000 mm 4,1 UV-I 683 W/m 14,7 C 23,4 C 12,9 km/h (3 Bft) 100,00 %
04.06.2016 14:55 23,4 C 56 % 1009,5 hPa 0,0 l/m 6,8 km/h (2 Bft) O-NO 69 1 min 0,000 mm 4,4 UV-I 489 W/m 14,1 C 23,3 C 11,3 km/h (2 Bft) 100,00 %
04.06.2016 14:56 23,3 C 51 % 1009,5 hPa 0,0 l/m 5,0 km/h (1 Bft) SO 128 1 min 0,000 mm 4,6 UV-I 612 W/m 12,6 C 23,3 C 6,4 km/h (2 Bft) 100,00 %
04.06.2016 14:57 23,2 C 52 % 1009,5 hPa 0,0 l/m 4,0 km/h (1 Bft) SO 132 1 min 0,000 mm 4,7 UV-I 712 W/m 12,8 C 23,2 C 6,4 km/h (2 Bft) 100,00 %
04.06.2016 14:58 23,2 C 54 % 1009,5 hPa 0,0 l/m 5,3 km/h (1 Bft) SO 129 1 min 0,000 mm 4,9 UV-I 758 W/m 13,4 C 23,2 C 9,7 km/h (2 Bft) 100,00 %
04.06.2016 14:59 23,1 C 52 % 1009,5 hPa 0,0 l/m 1,9 km/h (1 Bft) SO 128 1 min 0,000 mm 5,0 UV-I 789 W/m 12,7 C 23,1 C 4,8 km/h (1 Bft) 95,65 %
04.06.2016 15:00 23,1 C 53 % 1009,6 hPa 0,0 l/m 0,9 km/h (0 Bft) S-SO 147 1 min 0,000 mm 4,9 UV-I 764 W/m 13,0 C 23,1 C 1,6 km/h (1 Bft) 95,83 %
04.06.2016 15:01 23,1 C 54 % 1009,6 hPa 0,0 l/m 5,2 km/h (1 Bft) S 177 1 min 0,432 mm 4,9 UV-I 769 W/m 13,3 C 23,1 C 6,4 km/h (2 Bft) 96,15 %
04.06.2016 15:02 23,2 C 54 % 1009,6 hPa 0,0 l/m 6,0 km/h (2 Bft) S-SO 166 1 min 0,000 mm 4,8 UV-I 768 W/m 13,4 C 23,2 C 8,0 km/h (2 Bft) 100,00 %
04.06.2016 15:03 23,2 C 53 % 1009,6 hPa 0,0 l/m 6,2 km/h (2 Bft) S 175 1 min 0,000 mm 5,0 UV-I 826 W/m 13,1 C 23,2 C 9,7 km/h (2 Bft) 100,00 %
04.06.2016 15:04 23,1 C 52 % 1009,6 hPa 0,0 l/m 3,1 km/h (1 Bft) S-SO 168 1 min 0,000 mm 5,2 UV-I 860 W/m 12,7 C 23,1 C 8,0 km/h (2 Bft) 95,83 %
04.06.2016 15:05 23,1 C 54 % 1009,6 hPa 0,0 l/m 1,7 km/h (1 Bft) SW 223 1 min 0,000 mm 5,2 UV-I 905 W/m 13,3 C 23,1 C 3,2 km/h (1 Bft) 100,00 %
04.06.2016 15:06 23,2 C 54 % 1009,5 hPa 0,0 l/m 4,0 km/h (1 Bft) SW 227 1 min 0,000 mm 5,2 UV-I 926 W/m 13,4 C 23,2 C 6,4 km/h (2 Bft) 100,00 %
04.06.2016 15:07 23,3 C 54 % 1009,6 hPa 0,0 l/m 4,5 km/h (1 Bft) W-NW 284 1 min 0,000 mm 5,3 UV-I 925 W/m 13,5 C 23,3 C 6,4 km/h (2 Bft) 100,00 %
04.06.2016 15:08 23,4 C 55 % 1009,5 hPa 0,0 l/m 3,4 km/h (1 Bft) SW 221 1 min 0,000 mm 5,1 UV-I 867 W/m 13,8 C 23,4 C 4,8 km/h (1 Bft) 95,83 %
04.06.2016 15:09 23,6 C 55 % 1009,6 hPa 0,0 l/m 5,4 km/h (1 Bft) SO 134 1 min 0,000 mm 4,9 UV-I 857 W/m 14,0 C 23,6 C 11,3 km/h (2 Bft) 100,00 %
04.06.2016 15:10 23,7 C 55 % 1009,6 hPa 0,0 l/m 7,2 km/h (2 Bft) O-SO 107 1 min 0,000 mm 5,0 UV-I 893 W/m 14,1 C 23,5 C 11,3 km/h (2 Bft) 100,00 %
04.06.2016 15:11 23,8 C 56 % 1009,6 hPa 0,0 l/m 5,2 km/h (1 Bft) S-SO 159 1 min 0,000 mm 4,8 UV-I 896 W/m 14,5 C 23,8 C 9,7 km/h (2 Bft) 100,00 %
04.06.2016 15:12 23,8 C 57 % 1009,6 hPa 0,0 l/m 4,8 km/h (1 Bft) S 184 1 min 0,000 mm 3,5 UV-I 685 W/m 14,8 C 23,8 C 8,0 km/h (2 Bft) 100,00 %
04.06.2016 15:13 23,8 C 54 % 1009,6 hPa 0,0 l/m 7,2 km/h (2 Bft) S-SO 157 0 min 0,000 mm 3,3 UV-I 411 W/m 13,9 C 23,6 C 11,3 km/h (2 Bft) 100,00 %
04.06.2016 15:14 23,8 C 55 % 1009,6 hPa 0,0 l/m 7,6 km/h (2 Bft) S-SW 194 0 min 0,000 mm 3,2 UV-I 386 W/m 14,2 C 23,5 C 11,3 km/h (2 Bft) 90,91 %
04.06.2016 15:15 23,7 C 53 % 1009,6 hPa 0,0 l/m 5,9 km/h (2 Bft) S-SO 161 0 min 0,000 mm 3,1 UV-I 370 W/m 13,5 C 23,7 C 8,0 km/h (2 Bft) 94,44 %
04.06.2016 15:16 23,7 C 53 % 1009,6 hPa 0,0 l/m 4,0 km/h (1 Bft) S-SO 163 0 min 0,000 mm 3,1 UV-I 359 W/m 13,5 C 23,7 C 8,0 km/h (2 Bft) 95,65 %
04.06.2016 15:17 23,4 C 52 % 1009,6 hPa 0,0 l/m 0,4 km/h (0 Bft) S-SO 163 0 min 0,000 mm 3,1 UV-I 358 W/m 13,0 C 23,4 C 1,6 km/h (1 Bft) 100,00 %
04.06.2016 15:18 23,3 C 52 % 1009,6 hPa 0,0 l/m 0,4 km/h (0 Bft) S-SO 163 0 min 0,000 mm 3,1 UV-I 363 W/m 12,9 C 23,3 C 1,6 km/h (1 Bft) 96,15 %
04.06.2016 15:19 23,1 C 55 % 1009,5 hPa 0,0 l/m 0,9 km/h (0 Bft) S-SO 163 0 min 0,000 mm 3,3 UV-I 379 W/m 13,6 C 23,1 C 3,2 km/h (1 Bft) 100,00 %
04.06.2016 15:20 23,0 C 55 % 1009,5 hPa 0,0 l/m 1,6 km/h (1 Bft) S-SO 155 0 min 0,000 mm 3,5 UV-I 414 W/m 13,5 C 23,0 C 4,8 km/h (1 Bft) 96,15 %
04.06.2016 15:21 23,0 C 58 % 1009,5 hPa 0,0 l/m 2,9 km/h (1 Bft) W-SW 248 0 min 0,000 mm 3,5 UV-I 415 W/m 14,3 C 23,0 C 4,8 km/h (1 Bft) 95,83 %
04.06.2016 15:22 23,1 C 59 % 1009,5 hPa 0,0 l/m 1,7 km/h (1 Bft) W-NW 298 0 min 0,000 mm 4,1 UV-I 413 W/m 14,6 C 23,1 C 3,2 km/h (1 Bft) 100,00 %
04.06.2016 15:23 23,2 C 57 % 1009,5 hPa 0,0 l/m 4,8 km/h (1 Bft) O 84 1 min 0,000 mm 4,7 UV-I 523 W/m 14,2 C 23,2 C 6,4 km/h (2 Bft) 95,83 %
04.06.2016 15:24 23,2 C 58 % 1009,4 hPa 0,0 l/m 6,2 km/h (2 Bft) O-NO 62 1 min 0,000 mm 4,6 UV-I 790 W/m 14,5 C 23,2 C 9,7 km/h (2 Bft) 100,00 %
04.06.2016 15:25 23,4 C 59 % 1009,4 hPa 0,0 l/m 6,4 km/h (2 Bft) O-NO 63 1 min 0,000 mm 4,3 UV-I 760 W/m 14,9 C 23,4 C 9,7 km/h (2 Bft) 93,33 %
04.06.2016 15:26 23,5 C 56 % 1009,3 hPa 0,0 l/m 11,2 km/h (2 Bft) O 98 1 min 0,000 mm 4,3 UV-I 718 W/m 14,2 C 22,2 C 14,5 km/h (3 Bft) 100,00 %
04.06.2016 15:27 23,6 C 56 % 1009,4 hPa 0,0 l/m 8,4 km/h (2 Bft) O 93 1 min 0,000 mm 4,3 UV-I 744 W/m 14,3 C 23,0 C 11,3 km/h (2 Bft) 92,31 %
04.06.2016 15:28 23,6 C 54 % 1009,3 hPa 0,0 l/m 6,6 km/h (2 Bft) O-SO 117 1 min 0,000 mm 4,1 UV-I 680 W/m 13,7 C 23,5 C 9,7 km/h (2 Bft) 100,00 %
04.06.2016 15:29 23,5 C 52 % 1009,3 hPa 0,0 l/m 7,0 km/h (2 Bft) NO 55 1 min 0,000 mm 3,9 UV-I 677 W/m 13,1 C 23,3 C 9,7 km/h (2 Bft) 91,30 %
04.06.2016 15:30 23,5 C 58 % 1009,3 hPa 0,0 l/m 6,4 km/h (2 Bft) N-NO 28 1 min 0,000 mm 4,0 UV-I 684 W/m 14,7 C 23,5 C 9,7 km/h (2 Bft) 95,83 %
04.06.2016 15:31 23,5 C 56 % 1009,3 hPa 0,0 l/m 6,5 km/h (2 Bft) N-NO 23 1 min 0,000 mm 3,8 UV-I 665 W/m 14,2 C 23,5 C 9,7 km/h (2 Bft) 100,00 %
04.06.2016 15:32 23,4 C 54 % 1009,3 hPa 0,0 l/m 4,2 km/h (1 Bft) N-NO 23 1 min 0,000 mm 3,8 UV-I 645 W/m 13,6 C 23,4 C 6,4 km/h (2 Bft) 95,83 %
04.06.2016 15:33 23,4 C 54 % 1009,3 hPa 0,0 l/m 3,0 km/h (1 Bft) NO 52 1 min 0,000 mm 3,7 UV-I 632 W/m 13,6 C 23,4 C 4,8 km/h (1 Bft) 100,00 %
04.06.2016 15:34 23,4 C 58 % 1009,3 hPa 0,0 l/m 6,2 km/h (2 Bft) O-NO 71 1 min 0,000 mm 3,5 UV-I 555 W/m 14,7 C 23,4 C 9,7 km/h (2 Bft) 95,83 %
04.06.2016 15:35 23,4 C 53 % 1009,3 hPa 0,0 l/m 3,4 km/h (1 Bft) O 99 1 min 0,000 mm 3,4 UV-I 544 W/m 13,3 C 23,4 C 4,8 km/h (1 Bft) 96,15 %
04.06.2016 15:36 23,3 C 54 % 1009,3 hPa 0,0 l/m 3,4 km/h (1 Bft) NO 36 1 min 0,000 mm 3,3 UV-I 547 W/m 13,5 C 23,3 C 6,4 km/h (2 Bft) 95,83 %
04.06.2016 15:37 23,3 C 51 % 1009,3 hPa 0,0 l/m 6,6 km/h (2 Bft) NO 47 1 min 0,000 mm 3,4 UV-I 552 W/m 12,6 C 23,2 C 9,7 km/h (2 Bft) 95,65 %
04.06.2016 15:38 23,3 C 57 % 1009,3 hPa 0,0 l/m 5,5 km/h (1 Bft) NO 56 1 min 0,000 mm 3,2 UV-I 506 W/m 14,3 C 23,3 C 9,7 km/h (2 Bft) 100,00 %
04.06.2016 15:39 23,3 C 53 % 1009,3 hPa 0,0 l/m 4,4 km/h (1 Bft) NO 42 1 min 0,000 mm 3,2 UV-I 529 W/m 13,2 C 23,3 C 6,4 km/h (2 Bft) 95,65 %
04.06.2016 15:40 23,3 C 53 % 1009,3 hPa 0,0 l/m 4,5 km/h (1 Bft) O 86 1 min 0,000 mm 3,1 UV-I 504 W/m 13,2 C 23,3 C 6,4 km/h (2 Bft) 100,00 %
04.06.2016 15:41 23,3 C 54 % 1009,3 hPa 0,0 l/m 4,8 km/h (1 Bft) O 87 1 min 0,000 mm 3,2 UV-I 518 W/m 13,5 C 23,3 C 6,4 km/h (2 Bft) 91,30 %
04.06.2016 15:42 23,3 C 53 % 1009,3 hPa 0,0 l/m 3,7 km/h (1 Bft) NO 53 1 min 0,000 mm 3,2 UV-I 510 W/m 13,2 C 23,3 C 4,8 km/h (1 Bft) 100,00 %
04.06.2016 15:43 23,3 C 54 % 1009,3 hPa 0,0 l/m 4,1 km/h (1 Bft) NO 36 1 min 0,000 mm 3,2 UV-I 513 W/m 13,5 C 23,3 C 6,4 km/h (2 Bft) 95,65 %
04.06.2016 15:44 23,3 C 55 % 1009,3 hPa 0,0 l/m 3,6 km/h (1 Bft) NO 36 1 min 0,000 mm 3,1 UV-I 503 W/m 13,7 C 23,3 C 4,8 km/h (1 Bft) 95,83 %
04.06.2016 15:45 23,3 C 55 % 1009,3 hPa 0,0 l/m 3,8 km/h (1 Bft) O 94 1 min 0,000 mm 3,0 UV-I 508 W/m 13,7 C 23,3 C 9,7 km/h (2 Bft) 100,00 %
04.06.2016 15:46 23,3 C 58 % 1009,3 hPa 0,0 l/m 6,0 km/h (2 Bft) S-SO 165 1 min 0,000 mm 2,9 UV-I 483 W/m 14,6 C 23,3 C 11,3 km/h (2 Bft) 95,65 %
04.06.2016 15:47 23,3 C 56 % 1009,3 hPa 0,0 l/m 2,5 km/h (1 Bft) S-SO 153 1 min 0,000 mm 2,9 UV-I 472 W/m 14,0 C 23,3 C 4,8 km/h (1 Bft) 100,00 %
04.06.2016 15:48 23,4 C 55 % 1009,3 hPa 0,0 l/m 2,7 km/h (1 Bft) S-SO 150 1 min 0,000 mm 2,9 UV-I 460 W/m 13,8 C 23,4 C 4,8 km/h (1 Bft) 100,00 %
04.06.2016 15:49 23,4 C 56 % 1009,3 hPa 0,0 l/m 2,2 km/h (1 Bft) SO 124 1 min 0,000 mm 2,8 UV-I 461 W/m 14,1 C 23,4 C 4,8 km/h (1 Bft) 100,00 %
04.06.2016 15:50 23,4 C 55 % 1009,3 hPa 0,0 l/m 3,8 km/h (1 Bft) NO 52 1 min 0,000 mm 2,8 UV-I 449 W/m 13,8 C 23,4 C 4,8 km/h (1 Bft) 95,65 %
04.06.2016 15:51 23,5 C 59 % 1009,3 hPa 0,0 l/m 5,9 km/h (2 Bft) O-SO 108 1 min 0,000 mm 2,9 UV-I 446 W/m 15,0 C 23,5 C 8,0 km/h (2 Bft) 100,00 %
04.06.2016 15:52 23,5 C 54 % 1009,3 hPa 0,0 l/m 5,0 km/h (1 Bft) O-NO 59 1 min 0,000 mm 2,8 UV-I 459 W/m 13,6 C 23,5 C 6,4 km/h (2 Bft) 100,00 %
04.06.2016 15:53 23,5 C 53 % 1009,2 hPa 0,0 l/m 6,0 km/h (2 Bft) SO 136 1 min 0,000 mm 3,0 UV-I 501 W/m 13,4 C 23,5 C 9,7 km/h (2 Bft) 100,00 %
04.06.2016 15:54 23,4 C 54 % 1009,3 hPa 0,0 l/m 11,3 km/h (2 Bft) SO 134 1 min 0,000 mm 2,9 UV-I 465 W/m 13,6 C 22,1 C 14,5 km/h (3 Bft) 100,00 %
04.06.2016 15:55 23,4 C 54 % 1009,2 hPa 0,0 l/m 10,2 km/h (2 Bft) O-SO 123 1 min 0,000 mm 2,8 UV-I 454 W/m 13,6 C 22,3 C 12,9 km/h (3 Bft) 100,00 %
04.06.2016 15:56 23,3 C 54 % 1009,3 hPa 0,0 l/m 5,1 km/h (1 Bft) O-SO 108 1 min 0,000 mm 2,9 UV-I 473 W/m 13,5 C 23,3 C 6,4 km/h (2 Bft) 95,65 %
04.06.2016 15:57 23,3 C 55 % 1009,3 hPa 0,0 l/m 2,5 km/h (1 Bft) O-SO 109 1 min 0,000 mm 2,9 UV-I 495 W/m 13,7 C 23,3 C 3,2 km/h (1 Bft) 100,00 %
04.06.2016 15:58 23,3 C 55 % 1009,3 hPa 0,0 l/m 4,9 km/h (1 Bft) SO 126 1 min 0,000 mm 2,9 UV-I 494 W/m 13,7 C 23,3 C 8,0 km/h (2 Bft) 100,00 %
04.06.2016 15:59 23,3 C 54 % 1009,2 hPa 0,0 l/m 3,9 km/h (1 Bft) O 88 1 min 0,000 mm 2,9 UV-I 488 W/m 13,5 C 23,3 C 6,4 km/h (2 Bft) 100,00 %
04.06.2016 16:00 23,3 C 56 % 1009,3 hPa 0,0 l/m 4,0 km/h (1 Bft) O-SO 119 1 min 0,000 mm 2,8 UV-I 466 W/m 14,0 C 23,3 C 6,4 km/h (2 Bft) 100,00 %
04.06.2016 16:01 23,3 C 56 % 1009,3 hPa 0,0 l/m 4,6 km/h (1 Bft) S-SO 161 1 min 0,381 mm 2,8 UV-I 465 W/m 14,0 C 23,3 C 8,0 km/h (2 Bft) 100,00 %
04.06.2016 16:02 23,3 C 58 % 1009,3 hPa 0,0 l/m 6,0 km/h (2 Bft) O 95 1 min 0,000 mm 2,9 UV-I 507 W/m 14,6 C 23,3 C 9,7 km/h (2 Bft) 95,65 %
04.06.2016 16:03 23,3 C 58 % 1009,2 hPa 0,0 l/m 4,4 km/h (1 Bft) O-SO 106 1 min 0,000 mm 3,0 UV-I 540 W/m 14,6 C 23,3 C 6,4 km/h (2 Bft) 100,00 %
04.06.2016 16:04 23,3 C 57 % 1009,2 hPa 0,0 l/m 2,7 km/h (1 Bft) S-SO 165 1 min 0,000 mm 2,9 UV-I 523 W/m 14,3 C 23,3 C 4,8 km/h (1 Bft) 100,00 %
04.06.2016 16:05 23,3 C 57 % 1009,2 hPa 0,0 l/m 7,4 km/h (2 Bft) S 173 1 min 0,000 mm 3,1 UV-I 585 W/m 14,3 C 23,0 C 12,9 km/h (3 Bft) 100,00 %
04.06.2016 16:06 23,4 C 56 % 1009,2 hPa 0,0 l/m 7,7 km/h (2 Bft) S-SW 200 1 min 0,000 mm 3,0 UV-I 585 W/m 14,1 C 23,0 C 11,3 km/h (2 Bft) 100,00 %
04.06.2016 16:07 23,4 C 55 % 1009,3 hPa 0,0 l/m 5,5 km/h (1 Bft) SO 141 1 min 0,000 mm 2,9 UV-I 555 W/m 13,8 C 23,4 C 8,0 km/h (2 Bft) 95,65 %
04.06.2016 16:08 23,4 C 54 % 1009,3 hPa 0,0 l/m 6,7 km/h (2 Bft) SO 137 1 min 0,000 mm 2,8 UV-I 554 W/m 13,6 C 23,3 C 9,7 km/h (2 Bft) 100,00 %
04.06.2016 16:09 23,5 C 54 % 1009,3 hPa 0,0 l/m 5,4 km/h (1 Bft) S-SO 160 1 min 0,000 mm 2,8 UV-I 570 W/m 13,6 C 23,5 C 11,3 km/h (2 Bft) 100,00 %
04.06.2016 16:10 23,6 C 54 % 1009,3 hPa 0,0 l/m 4,4 km/h (1 Bft) S-SO 155 1 min 0,000 mm 2,7 UV-I 565 W/m 13,7 C 23,6 C 8,0 km/h (2 Bft) 100,00 %
04.06.2016 16:11 23,5 C 53 % 1009,3 hPa 0,0 l/m 5,8 km/h (2 Bft) S-SO 159 1 min 0,000 mm 2,6 UV-I 540 W/m 13,4 C 23,5 C 11,3 km/h (2 Bft) 100,00 %
04.06.2016 16:12 23,5 C 54 % 1009,3 hPa 0,0 l/m 4,4 km/h (1 Bft) S-SO 155 1 min 0,000 mm 2,5 UV-I 533 W/m 13,6 C 23,5 C 6,4 km/h (2 Bft) 100,00 %
04.06.2016 16:13 23,5 C 53 % 1009,2 hPa 0,0 l/m 7,1 km/h (2 Bft) S-SO 159 1 min 0,000 mm 2,4 UV-I 521 W/m 13,4 C 23,3 C 11,3 km/h (2 Bft) 100,00 %
04.06.2016 16:14 23,5 C 53 % 1009,3 hPa 0,0 l/m 3,4 km/h (1 Bft) SO 131 1 min 0,000 mm 2,3 UV-I 478 W/m 13,4 C 23,5 C 8,0 km/h (2 Bft) 100,00 %
04.06.2016 16:15 23,5 C 51 % 1009,3 hPa 0,0 l/m 4,4 km/h (1 Bft) SO 138 1 min 0,000 mm 2,2 UV-I 443 W/m 12,8 C 23,5 C 6,4 km/h (2 Bft) 95,65 %
04.06.2016 16:16 23,4 C 52 % 1009,2 hPa 0,0 l/m 4,2 km/h (1 Bft) O-NO 71 1 min 0,000 mm 2,0 UV-I 396 W/m 13,0 C 23,4 C 6,4 km/h (2 Bft) 100,00 %
04.06.2016 16:17 23,4 C 54 % 1009,2 hPa 0,0 l/m 7,8 km/h (2 Bft) O-NO 67 1 min 0,000 mm 2,0 UV-I 400 W/m 13,6 C 23,0 C 12,9 km/h (3 Bft) 100,00 %
04.06.2016 16:18 23,4 C 57 % 1009,2 hPa 0,0 l/m 9,4 km/h (2 Bft) O-SO 109 1 min 0,000 mm 2,0 UV-I 454 W/m 14,4 C 22,5 C 12,9 km/h (3 Bft) 100,00 %
04.06.2016 16:19 23,4 C 56 % 1009,3 hPa 0,0 l/m 9,3 km/h (2 Bft) SO 130 1 min 0,000 mm 2,0 UV-I 484 W/m 14,1 C 22,6 C 14,5 km/h (3 Bft) 100,00 %
04.06.2016 16:20 23,4 C 55 % 1009,3 hPa 0,0 l/m 9,4 km/h (2 Bft) O-NO 67 1 min 0,000 mm 1,8 UV-I 451 W/m 13,8 C 22,5 C 12,9 km/h (3 Bft) 100,00 %
04.06.2016 16:21 23,4 C 57 % 1009,3 hPa 0,0 l/m 8,0 km/h (2 Bft) O 84 1 min 0,000 mm 1,6 UV-I 421 W/m 14,4 C 22,9 C 12,9 km/h (3 Bft) 95,65 %
04.06.2016 16:22 23,4 C 57 % 1009,3 hPa 0,0 l/m 6,7 km/h (2 Bft) O-NO 70 0 min 0,000 mm 1,4 UV-I 363 W/m 14,4 C 23,3 C 12,9 km/h (3 Bft) 100,00 %
04.06.2016 16:23 23,4 C 56 % 1009,3 hPa 0,0 l/m 14,7 km/h (3 Bft) O 84 0 min 0,000 mm 1,3 UV-I 346 W/m 14,1 C 21,4 C 17,7 km/h (3 Bft) 95,65 %
04.06.2016 16:24 23,3 C 59 % 1009,3 hPa 0,0 l/m 10,9 km/h (2 Bft) O-NO 67 0 min 0,000 mm 1,2 UV-I 336 W/m 14,8 C 22,1 C 16,1 km/h (3 Bft) 95,83 %
04.06.2016 16:25 23,3 C 59 % 1009,3 hPa 0,0 l/m 8,9 km/h (2 Bft) O 80 0 min 0,000 mm 0,9 UV-I 220 W/m 14,8 C 22,6 C 16,1 km/h (3 Bft) 100,00 %
04.06.2016 16:26 23,1 C 59 % 1009,4 hPa 0,0 l/m 14,6 km/h (3 Bft) O-NO 68 0 min 0,000 mm 0,9 UV-I 179 W/m 14,6 C 21,1 C 20,9 km/h (4 Bft) 100,00 %
04.06.2016 16:27 23,0 C 59 % 1009,3 hPa 0,0 l/m 10,4 km/h (2 Bft) O-SO 110 0 min 0,000 mm 0,9 UV-I 179 W/m 14,5 C 21,9 C 17,7 km/h (3 Bft) 100,00 %
04.06.2016 16:28 22,9 C 62 % 1009,4 hPa 0,0 l/m 7,6 km/h (2 Bft) O 93 0 min 0,000 mm 1,0 UV-I 182 W/m 15,2 C 22,5 C 12,9 km/h (3 Bft) 100,00 %
04.06.2016 16:29 22,7 C 61 % 1009,3 hPa 0,0 l/m 11,7 km/h (2 Bft) O-NO 73 0 min 0,000 mm 1,0 UV-I 185 W/m 14,8 C 21,2 C 17,7 km/h (3 Bft) 100,00 %
04.06.2016 16:30 22,6 C 61 % 1009,4 hPa 0,0 l/m 12,5 km/h (3 Bft) O 94 0 min 0,000 mm 0,9 UV-I 185 W/m 14,7 C 20,9 C 20,9 km/h (4 Bft) 95,65 %
04.06.2016 16:31 22,5 C 62 % 1009,4 hPa 0,0 l/m 16,3 km/h (3 Bft) O-SO 115 0 min 0,000 mm 0,9 UV-I 165 W/m 14,8 C 20,0 C 19,3 km/h (3 Bft) 100,00 %
04.06.2016 16:32 22,4 C 61 % 1009,3 hPa 0,0 l/m 11,8 km/h (2 Bft) O-SO 111 0 min 0,000 mm 0,9 UV-I 173 W/m 14,5 C 20,8 C 16,1 km/h (3 Bft) 100,00 %
04.06.2016 16:33 22,3 C 62 % 1009,4 hPa 0,0 l/m 6,4 km/h (2 Bft) O-NO 68 0 min 0,000 mm 0,9 UV-I 170 W/m 14,7 C 22,3 C 11,3 km/h (2 Bft) 100,00 %
04.06.2016 16:34 22,2 C 63 % 1009,4 hPa 0,0 l/m 7,9 km/h (2 Bft) O-SO 105 0 min 0,000 mm 0,8 UV-I 163 W/m 14,8 C 21,7 C 12,9 km/h (3 Bft) 100,00 %
04.06.2016 16:35 22,1 C 62 % 1009,4 hPa 0,0 l/m 8,6 km/h (2 Bft) SO 126 0 min 0,000 mm 0,8 UV-I 157 W/m 14,5 C 21,4 C 12,9 km/h (3 Bft) 100,00 %
04.06.2016 16:36 22,0 C 64 % 1009,3 hPa 0,0 l/m 8,3 km/h (2 Bft) O-NO 58 0 min 0,000 mm 0,8 UV-I 136 W/m 14,9 C 21,4 C 11,3 km/h (2 Bft) 100,00 %
04.06.2016 16:37 21,9 C 63 % 1009,3 hPa 0,0 l/m 10,6 km/h (2 Bft) O-SO 113 0 min 0,000 mm 0,7 UV-I 146 W/m 14,5 C 20,6 C 12,9 km/h (3 Bft) 100,00 %
04.06.2016 16:38 21,9 C 63 % 1009,4 hPa 0,0 l/m 5,7 km/h (1 Bft) O-SO 105 0 min 0,000 mm 0,7 UV-I 121 W/m 14,5 C 21,9 C 9,7 km/h (2 Bft) 100,00 %
04.06.2016 16:39 21,9 C 63 % 1009,3 hPa 0,0 l/m 8,2 km/h (2 Bft) O 84 0 min 0,000 mm 0,7 UV-I 122 W/m 14,5 C 21,3 C 14,5 km/h (3 Bft) 100,00 %
04.06.2016 16:40 21,8 C 65 % 1009,3 hPa 0,0 l/m 6,8 km/h (2 Bft) O-NO 73 0 min 0,000 mm 0,7 UV-I 125 W/m 14,9 C 21,7 C 9,7 km/h (2 Bft) 100,00 %
04.06.2016 16:41 21,8 C 65 % 1009,4 hPa 0,0 l/m 4,8 km/h (1 Bft) O-NO 76 0 min 0,000 mm 0,7 UV-I 143 W/m 14,9 C 21,8 C 8,0 km/h (2 Bft) 100,00 %
04.06.2016 16:42 21,8 C 64 % 1009,3 hPa 0,0 l/m 4,4 km/h (1 Bft) O 96 0 min 0,000 mm 0,7 UV-I 157 W/m 14,7 C 21,8 C 6,4 km/h (2 Bft) 100,00 %
04.06.2016 16:43 21,7 C 65 % 1009,3 hPa 0,0 l/m 9,7 km/h (2 Bft) O-NO 68 0 min 0,000 mm 0,7 UV-I 158 W/m 14,8 C 20,6 C 14,5 km/h (3 Bft) 100,00 %
04.06.2016 16:44 21,7 C 64 % 1009,3 hPa 0,0 l/m 7,2 km/h (2 Bft) O 79 0 min 0,000 mm 0,7 UV-I 160 W/m 14,6 C 21,4 C 12,9 km/h (3 Bft) 100,00 %
04.06.2016 16:45 21,7 C 66 % 1009,4 hPa 0,0 l/m 4,1 km/h (1 Bft) O 100 0 min 0,000 mm 0,7 UV-I 157 W/m 15,1 C 21,7 C 6,4 km/h (2 Bft) 95,83 %
04.06.2016 16:46 21,7 C 67 % 1009,4 hPa 0,0 l/m 9,8 km/h (2 Bft) O-NO 78 0 min 0,000 mm 0,7 UV-I 154 W/m 15,3 C 20,6 C 16,1 km/h (3 Bft) 100,00 %
04.06.2016 16:47 21,6 C 67 % 1009,4 hPa 0,0 l/m 11,1 km/h (2 Bft) O 87 0 min 0,000 mm 0,7 UV-I 149 W/m 15,2 C 20,1 C 17,7 km/h (3 Bft) 100,00 %
04.06.2016 16:48 21,6 C 67 % 1009,4 hPa 0,0 l/m 11,7 km/h (2 Bft) O-SO 111 0 min 0,000 mm 0,7 UV-I 143 W/m 15,2 C 19,9 C 17,7 km/h (3 Bft) 100,00 %
04.06.2016 16:49 21,5 C 67 % 1009,4 hPa 0,0 l/m 11,2 km/h (2 Bft) O 92 0 min 0,000 mm 0,6 UV-I 136 W/m 15,1 C 20,0 C 19,3 km/h (3 Bft) 100,00 %
04.06.2016 16:50 21,4 C 66 % 1009,4 hPa 0,0 l/m 12,5 km/h (3 Bft) O-SO 123 0 min 0,000 mm 0,6 UV-I 130 W/m 14,8 C 19,5 C 20,9 km/h (4 Bft) 100,00 %
04.06.2016 16:51 21,3 C 67 % 1009,5 hPa 0,0 l/m 9,5 km/h (2 Bft) O 100 0 min 0,000 mm 0,6 UV-I 126 W/m 14,9 C 20,2 C 17,7 km/h (3 Bft) 95,65 %
04.06.2016 16:52 21,1 C 69 % 1009,5 hPa 0,0 l/m 7,7 km/h (2 Bft) O-SO 115 0 min 0,000 mm 0,6 UV-I 124 W/m 15,2 C 20,6 C 11,3 km/h (2 Bft) 100,00 %
04.06.2016 16:53 20,9 C 71 % 1009,5 hPa 0,0 l/m 9,0 km/h (2 Bft) O-NO 71 0 min 0,000 mm 0,6 UV-I 122 W/m 15,4 C 20,0 C 12,9 km/h (3 Bft) 100,00 %
04.06.2016 16:54 20,8 C 72 % 1009,5 hPa 0,0 l/m 9,2 km/h (2 Bft) O 101 0 min 0,000 mm 0,5 UV-I 120 W/m 15,6 C 19,8 C 14,5 km/h (3 Bft) 100,00 %
04.06.2016 16:55 20,7 C 73 % 1009,5 hPa 0,0 l/m 12,1 km/h (2 Bft) O-SO 119 0 min 0,000 mm 0,5 UV-I 118 W/m 15,7 C 18,8 C 14,5 km/h (3 Bft) 100,00 %
04.06.2016 16:56 20,6 C 73 % 1009,5 hPa 0,0 l/m 12,3 km/h (3 Bft) O-SO 113 0 min 0,000 mm 0,5 UV-I 116 W/m 15,6 C 18,6 C 16,1 km/h (3 Bft) 100,00 %
04.06.2016 16:57 20,4 C 73 % 1009,5 hPa 0,0 l/m 9,6 km/h (2 Bft) O 101 0 min 0,000 mm 0,5 UV-I 116 W/m 15,4 C 19,2 C 14,5 km/h (3 Bft) 100,00 %
04.06.2016 16:58 20,4 C 74 % 1009,5 hPa 0,0 l/m 9,7 km/h (2 Bft) O 96 0 min 0,000 mm 0,5 UV-I 115 W/m 15,6 C 19,2 C 12,9 km/h (3 Bft) 95,83 %
04.06.2016 16:59 20,3 C 73 % 1009,5 hPa 0,0 l/m 9,6 km/h (2 Bft) O 82 0 min 0,000 mm 0,5 UV-I 113 W/m 15,3 C 19,1 C 14,5 km/h (3 Bft) 100,00 %
04.06.2016 17:00 20,3 C 75 % 1009,5 hPa 0,0 l/m 9,5 km/h (2 Bft) O-NO 61 0 min 0,000 mm 0,5 UV-I 112 W/m 15,7 C 19,1 C 12,9 km/h (3 Bft) 100,00 %
04.06.2016 17:01 20,2 C 74 % 1009,5 hPa 0,0 l/m 7,4 km/h (2 Bft) O-NO 75 0 min 0,229 mm 0,5 UV-I 111 W/m 15,4 C 19,8 C 11,3 km/h (2 Bft) 100,00 %
04.06.2016 17:02 20,2 C 74 % 1009,5 hPa 0,0 l/m 7,8 km/h (2 Bft) O-SO 112 0 min 0,000 mm 0,5 UV-I 107 W/m 15,4 C 19,6 C 11,3 km/h (2 Bft) 100,00 %
04.06.2016 17:03 20,2 C 75 % 1009,5 hPa 0,0 l/m 11,0 km/h (2 Bft) O-SO 108 0 min 0,000 mm 0,5 UV-I 104 W/m 15,6 C 18,6 C 16,1 km/h (3 Bft) 100,00 %
04.06.2016 17:04 20,1 C 75 % 1009,5 hPa 0,0 l/m 12,0 km/h (2 Bft) O 99 0 min 0,000 mm 0,0 UV-I 100 W/m 15,5 C 18,1 C 16,1 km/h (3 Bft) 100,00 %
04.06.2016 17:05 20,1 C 76 % 1009,5 hPa 0,0 l/m 12,0 km/h (2 Bft) O 84 0 min 0,000 mm 0,0 UV-I 96 W/m 15,7 C 18,1 C 16,1 km/h (3 Bft) 100,00 %
04.06.2016 17:06 20,0 C 75 % 1009,5 hPa 0,0 l/m 10,8 km/h (2 Bft) O-SO 105 0 min 0,000 mm 0,0 UV-I 92 W/m 15,4 C 18,4 C 14,5 km/h (3 Bft) 100,00 %
04.06.2016 17:07 19,9 C 75 % 1009,6 hPa 0,0 l/m 8,8 km/h (2 Bft) O 92 0 min 0,000 mm 0,0 UV-I 88 W/m 15,3 C 18,9 C 14,5 km/h (3 Bft) 96,15 %
04.06.2016 17:08 19,9 C 75 % 1009,6 hPa 0,0 l/m 6,4 km/h (2 Bft) O-SO 105 0 min 0,000 mm 0,0 UV-I 85 W/m 15,3 C 19,9 C 11,3 km/h (2 Bft) 100,00 %
04.06.2016 17:09 19,9 C 76 % 1009,6 hPa 0,0 l/m 10,3 km/h (2 Bft) O-SO 102 0 min 0,000 mm 0,0 UV-I 83 W/m 15,5 C 18,4 C 12,9 km/h (3 Bft) 95,83 %
04.06.2016 17:10 19,9 C 75 % 1009,6 hPa 0,0 l/m 7,7 km/h (2 Bft) SO 125 0 min 0,000 mm 0,0 UV-I 82 W/m 15,3 C 19,4 C 14,5 km/h (3 Bft) 100,00 %
04.06.2016 17:11 19,8 C 75 % 1009,6 hPa 0,0 l/m 9,6 km/h (2 Bft) O 82 0 min 0,000 mm 0,0 UV-I 81 W/m 15,2 C 18,6 C 12,9 km/h (3 Bft) 91,67 %
04.06.2016 17:12 19,9 C 77 % 1009,7 hPa 0,0 l/m 9,0 km/h (2 Bft) SO 133 0 min 0,000 mm 0,0 UV-I 81 W/m 15,7 C 18,9 C 16,1 km/h (3 Bft) 100,00 %
04.06.2016 17:13 19,8 C 76 % 1009,8 hPa 0,0 l/m 9,2 km/h (2 Bft) O-SO 115 0 min 0,000 mm 0,0 UV-I 81 W/m 15,4 C 18,7 C 14,5 km/h (3 Bft) 95,83 %
04.06.2016 17:14 19,8 C 75 % 1009,8 hPa 0,0 l/m 11,1 km/h (2 Bft) O-SO 113 0 min 0,000 mm 0,0 UV-I 81 W/m 15,2 C 18,1 C 12,9 km/h (3 Bft) 91,30 %
04.06.2016 17:15 19,8 C 76 % 1009,8 hPa 0,0 l/m 8,2 km/h (2 Bft) SO 133 0 min 0,000 mm 0,0 UV-I 82 W/m 15,4 C 19,1 C 12,9 km/h (3 Bft) 95,83 %
04.06.2016 17:16 19,8 C 76 % 1009,8 hPa 0,0 l/m 8,9 km/h (2 Bft) O-SO 110 0 min 0,000 mm 0,0 UV-I 85 W/m 15,4 C 18,8 C 14,5 km/h (3 Bft) 91,30 %
04.06.2016 17:17 19,8 C 75 % 1009,8 hPa 0,0 l/m 8,9 km/h (2 Bft) O-SO 117 0 min 0,000 mm 0,0 UV-I 87 W/m 15,2 C 18,8 C 14,5 km/h (3 Bft) 100,00 %
04.06.2016 17:18 19,8 C 76 % 1009,8 hPa 0,0 l/m 8,2 km/h (2 Bft) SO 126 0 min 0,000 mm 0,0 UV-I 90 W/m 15,4 C 19,1 C 12,9 km/h (3 Bft) 95,65 %
04.06.2016 17:19 19,8 C 75 % 1009,8 hPa 0,0 l/m 6,2 km/h (2 Bft) O-SO 105 0 min 0,000 mm 0,0 UV-I 90 W/m 15,2 C 19,8 C 11,3 km/h (2 Bft) 100,00 %
04.06.2016 17:20 19,8 C 75 % 1009,8 hPa 0,0 l/m 7,9 km/h (2 Bft) O-SO 110 0 min 0,000 mm 0,0 UV-I 92 W/m 15,2 C 19,2 C 11,3 km/h (2 Bft) 91,30 %
04.06.2016 17:21 19,8 C 76 % 1009,7 hPa 0,0 l/m 6,6 km/h (2 Bft) O 97 0 min 0,000 mm 0,0 UV-I 94 W/m 15,4 C 19,7 C 11,3 km/h (2 Bft) 100,00 %
04.06.2016 17:22 19,8 C 76 % 1009,8 hPa 0,0 l/m 9,3 km/h (2 Bft) O-SO 107 0 min 0,000 mm 0,0 UV-I 95 W/m 15,4 C 18,7 C 12,9 km/h (3 Bft) 92,31 %
04.06.2016 17:23 19,8 C 75 % 1009,8 hPa 0,0 l/m 6,9 km/h (2 Bft) O-SO 105 0 min 0,000 mm 0,0 UV-I 95 W/m 15,2 C 19,6 C 12,9 km/h (3 Bft) 91,67 %
04.06.2016 17:24 19,8 C 75 % 1009,7 hPa 0,0 l/m 5,0 km/h (1 Bft) O-SO 120 0 min 0,000 mm 0,0 UV-I 95 W/m 15,2 C 19,8 C 6,4 km/h (2 Bft) 95,83 %
04.06.2016 17:25 19,7 C 76 % 1009,7 hPa 0,0 l/m 6,0 km/h (2 Bft) O-SO 118 0 min 0,000 mm 0,0 UV-I 95 W/m 15,3 C 19,7 C 9,7 km/h (2 Bft) 91,30 %
04.06.2016 17:26 19,7 C 76 % 1009,7 hPa 0,0 l/m 6,7 km/h (2 Bft) O-SO 112 0 min 0,000 mm 0,0 UV-I 95 W/m 15,3 C 19,6 C 11,3 km/h (2 Bft) 100,00 %
04.06.2016 17:27 19,7 C 77 % 1009,6 hPa 0,0 l/m 5,2 km/h (1 Bft) S-SO 162 0 min 0,000 mm 0,0 UV-I 94 W/m 15,5 C 19,7 C 11,3 km/h (2 Bft) 95,65 %
04.06.2016 17:28 19,7 C 76 % 1009,6 hPa 0,0 l/m 3,1 km/h (1 Bft) S-SO 161 0 min 0,000 mm 0,0 UV-I 93 W/m 15,3 C 19,7 C 4,8 km/h (1 Bft) 100,00 %
04.06.2016 17:29 19,7 C 76 % 1009,7 hPa 0,0 l/m 4,6 km/h (1 Bft) O-SO 121 0 min 0,000 mm 0,0 UV-I 91 W/m 15,3 C 19,7 C 11,3 km/h (2 Bft) 96,15 %
04.06.2016 17:30 19,7 C 75 % 1009,6 hPa 0,0 l/m 6,3 km/h (2 Bft) SO 139 0 min 0,000 mm 0,0 UV-I 90 W/m 15,1 C 19,7 C 12,9 km/h (3 Bft) 100,00 %
04.06.2016 17:31 19,7 C 76 % 1009,6 hPa 0,0 l/m 4,1 km/h (1 Bft) S-SO 160 0 min 0,000 mm 0,0 UV-I 90 W/m 15,3 C 19,7 C 6,4 km/h (2 Bft) 95,65 %
04.06.2016 17:32 19,7 C 76 % 1009,6 hPa 0,0 l/m 3,2 km/h (1 Bft) SO 143 0 min 0,000 mm 0,0 UV-I 88 W/m 15,3 C 19,7 C 4,8 km/h (1 Bft) 96,30 %
04.06.2016 17:33 19,7 C 76 % 1009,6 hPa 0,0 l/m 5,3 km/h (1 Bft) SO 144 0 min 0,000 mm 0,0 UV-I 86 W/m 15,3 C 19,7 C 8,0 km/h (2 Bft) 95,65 %
04.06.2016 17:34 19,7 C 78 % 1009,7 hPa 0,0 l/m 4,6 km/h (1 Bft) S-SO 166 0 min 0,000 mm 0,0 UV-I 83 W/m 15,8 C 19,7 C 6,4 km/h (2 Bft) 95,83 %
04.06.2016 17:35 19,7 C 78 % 1009,6 hPa 0,0 l/m 2,7 km/h (1 Bft) S-SO 150 0 min 0,000 mm 0,0 UV-I 81 W/m 15,8 C 19,7 C 6,4 km/h (2 Bft) 100,00 %
04.06.2016 17:36 19,7 C 78 % 1009,6 hPa 0,0 l/m 4,6 km/h (1 Bft) S-SO 162 0 min 0,000 mm 0,0 UV-I 79 W/m 15,8 C 19,7 C 9,7 km/h (2 Bft) 95,83 %
04.06.2016 17:37 19,6 C 76 % 1009,6 hPa 0,0 l/m 3,4 km/h (1 Bft) SO 144 0 min 0,000 mm 0,0 UV-I 77 W/m 15,2 C 19,6 C 8,0 km/h (2 Bft) 100,00 %
04.06.2016 17:38 19,6 C 77 % 1009,6 hPa 0,0 l/m 2,5 km/h (1 Bft) S-SO 154 0 min 0,000 mm 0,0 UV-I 75 W/m 15,5 C 19,6 C 6,4 km/h (2 Bft) 95,83 %
04.06.2016 17:39 19,6 C 77 % 1009,6 hPa 0,0 l/m 2,8 km/h (1 Bft) S-SO 160 0 min 0,000 mm 0,0 UV-I 73 W/m 15,5 C 19,6 C 6,4 km/h (2 Bft) 95,65 %
04.06.2016 17:40 19,6 C 76 % 1009,6 hPa 0,0 l/m 4,6 km/h (1 Bft) S-SO 159 0 min 0,000 mm 0,0 UV-I 71 W/m 15,2 C 19,6 C 6,4 km/h (2 Bft) 91,67 %
04.06.2016 17:41 19,6 C 77 % 1009,7 hPa 0,0 l/m 5,5 km/h (1 Bft) SO 146 0 min 0,000 mm 0,0 UV-I 69 W/m 15,5 C 19,6 C 9,7 km/h (2 Bft) 100,00 %
04.06.2016 17:42 19,6 C 77 % 1009,7 hPa 0,0 l/m 4,3 km/h (1 Bft) S-SO 168 0 min 0,000 mm 0,0 UV-I 69 W/m 15,5 C 19,6 C 8,0 km/h (2 Bft) 100,00 %
04.06.2016 17:43 19,6 C 78 % 1009,6 hPa 0,0 l/m 2,7 km/h (1 Bft) S-SO 167 0 min 0,000 mm 0,0 UV-I 67 W/m 15,7 C 19,6 C 8,0 km/h (2 Bft) 100,00 %
04.06.2016 17:44 19,6 C 78 % 1009,7 hPa 0,0 l/m 3,8 km/h (1 Bft) S-SO 166 0 min 0,000 mm 0,0 UV-I 67 W/m 15,7 C 19,6 C 6,4 km/h (2 Bft) 100,00 %
04.06.2016 17:45 19,6 C 78 % 1009,7 hPa 0,0 l/m 4,2 km/h (1 Bft) S-SO 150 0 min 0,000 mm 0,0 UV-I 67 W/m 15,7 C 19,6 C 8,0 km/h (2 Bft) 100,00 %
04.06.2016 17:46 19,5 C 78 % 1009,7 hPa 0,0 l/m 4,6 km/h (1 Bft) S-SO 168 0 min 0,000 mm 0,0 UV-I 67 W/m 15,6 C 19,5 C 8,0 km/h (2 Bft) 95,65 %
04.06.2016 17:47 19,4 C 79 % 1009,7 hPa 0,0 l/m 3,8 km/h (1 Bft) S-SO 153 0 min 0,000 mm 0,0 UV-I 67 W/m 15,7 C 19,4 C 4,8 km/h (1 Bft) 95,83 %
04.06.2016 17:48 19,4 C 79 % 1009,7 hPa 0,0 l/m 3,4 km/h (1 Bft) S-SO 151 0 min 0,000 mm 0,0 UV-I 67 W/m 15,7 C 19,4 C 6,4 km/h (2 Bft) 100,00 %
04.06.2016 17:49 19,4 C 78 % 1009,7 hPa 0,0 l/m 2,3 km/h (1 Bft) S-SO 150 0 min 0,000 mm 0,0 UV-I 67 W/m 15,5 C 19,4 C 4,8 km/h (1 Bft) 100,00 %
04.06.2016 17:50 19,4 C 79 % 1009,7 hPa 0,0 l/m 3,1 km/h (1 Bft) SO 139 0 min 0,000 mm 0,0 UV-I 67 W/m 15,7 C 19,4 C 6,4 km/h (2 Bft) 100,00 %
04.06.2016 17:51 19,4 C 78 % 1009,7 hPa 0,0 l/m 3,6 km/h (1 Bft) SO 137 0 min 0,000 mm 0,0 UV-I 67 W/m 15,5 C 19,4 C 4,8 km/h (1 Bft) 100,00 %
04.06.2016 17:52 19,4 C 78 % 1009,7 hPa 0,0 l/m 3,3 km/h (1 Bft) SO 137 0 min 0,000 mm 0,0 UV-I 67 W/m 15,5 C 19,4 C 4,8 km/h (1 Bft) 100,00 %
04.06.2016 17:53 19,3 C 79 % 1009,7 hPa 0,0 l/m 3,6 km/h (1 Bft) SO 138 0 min 0,000 mm 0,0 UV-I 67 W/m 15,6 C 19,3 C 6,4 km/h (2 Bft) 100,00 %
04.06.2016 17:54 19,3 C 78 % 1009,7 hPa 0,0 l/m 2,6 km/h (1 Bft) SO 138 0 min 0,000 mm 0,0 UV-I 67 W/m 15,4 C 19,3 C 4,8 km/h (1 Bft) 100,00 %
04.06.2016 17:55 19,3 C 79 % 1009,7 hPa 0,0 l/m 3,4 km/h (1 Bft) SO 127 0 min 0,000 mm 0,0 UV-I 68 W/m 15,6 C 19,3 C 6,4 km/h (2 Bft) 100,00 %
04.06.2016 17:56 19,3 C 81 % 1009,7 hPa 0,0 l/m 4,5 km/h (1 Bft) O-SO 119 0 min 0,000 mm 0,0 UV-I 69 W/m 16,0 C 19,3 C 6,4 km/h (2 Bft) 100,00 %
04.06.2016 17:57 19,2 C 80 % 1009,7 hPa 0,0 l/m 3,4 km/h (1 Bft) O-SO 118 0 min 0,000 mm 0,0 UV-I 69 W/m 15,7 C 19,2 C 4,8 km/h (1 Bft) 100,00 %
04.06.2016 17:58 19,2 C 79 % 1009,7 hPa 0,0 l/m 4,6 km/h (1 Bft) O-SO 109 0 min 0,000 mm 0,0 UV-I 69 W/m 15,5 C 19,2 C 6,4 km/h (2 Bft) 100,00 %
04.06.2016 17:59 19,2 C 79 % 1009,7 hPa 0,0 l/m 2,5 km/h (1 Bft) O-SO 109 0 min 0,000 mm 0,0 UV-I 67 W/m 15,5 C 19,2 C 4,8 km/h (1 Bft) 100,00 %
04.06.2016 18:00 19,1 C 79 % 1009,6 hPa 0,0 l/m 1,9 km/h (1 Bft) O-SO 109 0 min 0,000 mm 0,0 UV-I 67 W/m 15,4 C 19,1 C 3,2 km/h (1 Bft) 100,00 %
04.06.2016 18:01 19,1 C 79 % 1009,6 hPa 0,0 l/m 2,7 km/h (1 Bft) O-SO 109 0 min 0,076 mm 0,0 UV-I 67 W/m 15,4 C 19,1 C 4,8 km/h (1 Bft) 100,00 %
04.06.2016 18:02 19,1 C 80 % 1009,7 hPa 0,0 l/m 2,0 km/h (1 Bft) O-SO 109 0 min 0,000 mm 0,0 UV-I 67 W/m 15,6 C 19,1 C 3,2 km/h (1 Bft) 100,00 %
04.06.2016 18:03 19,1 C 79 % 1009,7 hPa 0,0 l/m 2,7 km/h (1 Bft) O-SO 110 0 min 0,000 mm 0,0 UV-I 67 W/m 15,4 C 19,1 C 4,8 km/h (1 Bft) 100,00 %
04.06.2016 18:04 19,1 C 79 % 1009,7 hPa 0,0 l/m 4,5 km/h (1 Bft) O 99 0 min 0,000 mm 0,0 UV-I 67 W/m 15,4 C 19,1 C 6,4 km/h (2 Bft) 100,00 %
04.06.2016 18:05 19,1 C 80 % 1009,7 hPa 0,0 l/m 3,9 km/h (1 Bft) O 92 0 min 0,000 mm 0,0 UV-I 67 W/m 15,6 C 19,1 C 4,8 km/h (1 Bft) 100,00 %
04.06.2016 18:06 19,1 C 81 % 1009,8 hPa 0,0 l/m 4,2 km/h (1 Bft) O 92 0 min 0,000 mm 0,0 UV-I 67 W/m 15,8 C 19,1 C 4,8 km/h (1 Bft) 100,00 %
04.06.2016 18:07 19,0 C 81 % 1009,7 hPa 0,0 l/m 4,9 km/h (1 Bft) O-NO 68 0 min 0,000 mm 0,0 UV-I 65 W/m 15,7 C 19,0 C 6,4 km/h (2 Bft) 100,00 %
04.06.2016 18:08 19,0 C 81 % 1009,8 hPa 0,0 l/m 5,7 km/h (1 Bft) O 93 0 min 0,000 mm 0,0 UV-I 65 W/m 15,7 C 19,0 C 9,7 km/h (2 Bft) 100,00 %
04.06.2016 18:09 19,0 C 81 % 1009,7 hPa 0,0 l/m 4,9 km/h (1 Bft) O 98 0 min 0,000 mm 0,0 UV-I 65 W/m 15,7 C 19,0 C 6,4 km/h (2 Bft) 100,00 %
04.06.2016 18:10 18,9 C 81 % 1009,7 hPa 0,0 l/m 3,8 km/h (1 Bft) O 98 0 min 0,000 mm 0,0 UV-I 65 W/m 15,6 C 18,9 C 4,8 km/h (1 Bft) 100,00 %
04.06.2016 18:11 18,9 C 82 % 1009,7 hPa 0,0 l/m 3,8 km/h (1 Bft) O-SO 106 0 min 0,000 mm 0,0 UV-I 65 W/m 15,8 C 18,9 C 4,8 km/h (1 Bft) 95,65 %
04.06.2016 18:12 18,9 C 81 % 1009,8 hPa 0,0 l/m 4,1 km/h (1 Bft) O 92 0 min 0,000 mm 0,0 UV-I 65 W/m 15,6 C 18,9 C 6,4 km/h (2 Bft) 100,00 %
04.06.2016 18:13 18,9 C 81 % 1009,8 hPa 0,0 l/m 2,7 km/h (1 Bft) O 92 0 min 0,000 mm 0,0 UV-I 65 W/m 15,6 C 18,9 C 4,8 km/h (1 Bft) 95,65 %
04.06.2016 18:14 18,9 C 81 % 1009,8 hPa 0,0 l/m 1,3 km/h (1 Bft) O 92 0 min 0,000 mm 0,0 UV-I 65 W/m 15,6 C 18,9 C 3,2 km/h (1 Bft) 100,00 %
04.06.2016 18:15 18,9 C 81 % 1009,7 hPa 0,0 l/m 1,5 km/h (1 Bft) O 92 0 min 0,000 mm 0,0 UV-I 65 W/m 15,6 C 18,9 C 3,2 km/h (1 Bft) 100,00 %
04.06.2016 18:16 18,9 C 81 % 1009,8 hPa 0,0 l/m 0,6 km/h (0 Bft) O 92 0 min 0,000 mm 0,0 UV-I 66 W/m 15,6 C 18,9 C 1,6 km/h (1 Bft) 100,00 %
04.06.2016 18:17 18,9 C 81 % 1009,8 hPa 0,0 l/m 1,4 km/h (1 Bft) O 92 0 min 0,000 mm 0,0 UV-I 67 W/m 15,6 C 18,9 C 3,2 km/h (1 Bft) 100,00 %
04.06.2016 18:18 18,9 C 81 % 1009,8 hPa 0,0 l/m 1,3 km/h (1 Bft) O 92 0 min 0,000 mm 0,0 UV-I 67 W/m 15,6 C 18,9 C 1,6 km/h (1 Bft) 100,00 %
04.06.2016 18:19 18,9 C 81 % 1009,8 hPa 0,0 l/m 0,3 km/h (0 Bft) O 92 0 min 0,000 mm 0,0 UV-I 69 W/m 15,6 C 18,9 C 1,6 km/h (1 Bft) 95,83 %
04.06.2016 18:20 18,9 C 81 % 1009,7 hPa 0,0 l/m 1,7 km/h (1 Bft) O 92 0 min 0,000 mm 0,0 UV-I 69 W/m 15,6 C 18,9 C 3,2 km/h (1 Bft) 100,00 %
04.06.2016 18:21 18,9 C 80 % 1009,8 hPa 0,0 l/m 0,7 km/h (0 Bft) O 92 0 min 0,000 mm 0,0 UV-I 70 W/m 15,4 C 18,9 C 1,6 km/h (1 Bft) 100,00 %
04.06.2016 18:22 18,9 C 80 % 1009,8 hPa 0,0 l/m 2,3 km/h (1 Bft) O 92 0 min 0,000 mm 0,0 UV-I 70 W/m 15,4 C 18,9 C 3,2 km/h (1 Bft) 95,65 %
04.06.2016 18:23 18,9 C 79 % 1009,6 hPa 0,0 l/m 0,5 km/h (0 Bft) O 92 0 min 0,000 mm 0,0 UV-I 72 W/m 15,2 C 18,9 C 1,6 km/h (1 Bft) 100,00 %
04.06.2016 18:24 18,9 C 79 % 1009,7 hPa 0,0 l/m 0,2 km/h (0 Bft) O 92 0 min 0,000 mm 0,0 UV-I 72 W/m 15,2 C 18,9 C 1,6 km/h (1 Bft) 100,00 %
04.06.2016 18:25 18,9 C 80 % 1009,7 hPa 0,0 l/m 0,8 km/h (0 Bft) O 92 0 min 0,000 mm 0,0 UV-I 73 W/m 15,4 C 18,9 C 1,6 km/h (1 Bft) 100,00 %
04.06.2016 18:26 18,9 C 80 % 1009,7 hPa 0,0 l/m 0,3 km/h (0 Bft) O-SO 109 0 min 0,000 mm 0,0 UV-I 74 W/m 15,4 C 18,9 C 1,6 km/h (1 Bft) 95,65 %
04.06.2016 18:27 18,9 C 78 % 1009,6 hPa 0,0 l/m 2,1 km/h (1 Bft) SO 130 0 min 0,000 mm 0,0 UV-I 74 W/m 15,0 C 18,9 C 3,2 km/h (1 Bft) 100,00 %
04.06.2016 18:28 18,9 C 79 % 1009,7 hPa 0,0 l/m 1,7 km/h (1 Bft) SO 130 0 min 0,000 mm 0,0 UV-I 76 W/m 15,2 C 18,9 C 3,2 km/h (1 Bft) 100,00 %
04.06.2016 18:29 18,9 C 79 % 1009,6 hPa 0,0 l/m 0,3 km/h (0 Bft) SO 130 0 min 0,000 mm 0,0 UV-I 76 W/m 15,2 C 18,9 C 1,6 km/h (1 Bft) 100,00 %
04.06.2016 18:30 18,9 C 79 % 1009,7 hPa 0,0 l/m 1,6 km/h (1 Bft) SO 130 0 min 0,000 mm 0,0 UV-I 77 W/m 15,2 C 18,9 C 3,2 km/h (1 Bft) 95,65 %
04.06.2016 18:31 18,9 C 80 % 1009,7 hPa 0,0 l/m 0,9 km/h (0 Bft) SO 130 0 min 0,000 mm 0,0 UV-I 78 W/m 15,4 C 18,9 C 1,6 km/h (1 Bft) 100,00 %
04.06.2016 18:32 18,9 C 80 % 1009,7 hPa 0,0 l/m 3,6 km/h (1 Bft) O-SO 108 0 min 0,000 mm 0,0 UV-I 80 W/m 15,4 C 18,9 C 6,4 km/h (2 Bft) 95,65 %
04.06.2016 18:33 18,9 C 79 % 1009,7 hPa 0,0 l/m 4,2 km/h (1 Bft) SO 130 0 min 0,000 mm 0,0 UV-I 81 W/m 15,2 C 18,9 C 6,4 km/h (2 Bft) 100,00 %
04.06.2016 18:34 18,9 C 80 % 1009,7 hPa 0,0 l/m 3,6 km/h (1 Bft) S-SO 158 0 min 0,000 mm 0,0 UV-I 83 W/m 15,4 C 18,9 C 8,0 km/h (2 Bft) 100,00 %
04.06.2016 18:35 18,8 C 76 % 1009,7 hPa 0,0 l/m 5,5 km/h (1 Bft) SO 146 0 min 0,000 mm 0,0 UV-I 83 W/m 14,5 C 18,8 C 9,7 km/h (2 Bft) 100,00 %
04.06.2016 18:36 18,8 C 77 % 1009,7 hPa 0,0 l/m 6,3 km/h (2 Bft) SO 144 0 min 0,000 mm 0,0 UV-I 84 W/m 14,7 C 18,8 C 11,3 km/h (2 Bft) 95,65 %
04.06.2016 18:37 18,8 C 74 % 1009,7 hPa 0,0 l/m 5,7 km/h (1 Bft) S-SO 167 0 min 0,000 mm 0,0 UV-I 84 W/m 14,1 C 18,8 C 8,0 km/h (2 Bft) 100,00 %
04.06.2016 18:38 18,8 C 75 % 1009,7 hPa 0,0 l/m 4,2 km/h (1 Bft) S-SO 158 0 min 0,000 mm 0,0 UV-I 85 W/m 14,3 C 18,8 C 6,4 km/h (2 Bft) 100,00 %
04.06.2016 18:39 18,8 C 76 % 1009,7 hPa 0,0 l/m 2,3 km/h (1 Bft) S-SO 158 0 min 0,000 mm 0,0 UV-I 86 W/m 14,5 C 18,8 C 3,2 km/h (1 Bft) 100,00 %
04.06.2016 18:40 18,8 C 77 % 1009,7 hPa 0,0 l/m 2,3 km/h (1 Bft) S-SO 147 0 min 0,000 mm 0,0 UV-I 88 W/m 14,7 C 18,8 C 3,2 km/h (1 Bft) 100,00 %
04.06.2016 18:41 18,8 C 78 % 1009,7 hPa 0,0 l/m 3,4 km/h (1 Bft) S-SO 147 0 min 0,000 mm 0,0 UV-I 88 W/m 14,9 C 18,8 C 4,8 km/h (1 Bft) 100,00 %
04.06.2016 18:42 18,8 C 78 % 1009,7 hPa 0,0 l/m 3,2 km/h (1 Bft) S 169 0 min 0,000 mm 0,0 UV-I 88 W/m 14,9 C 18,8 C 8,0 km/h (2 Bft) 100,00 %
04.06.2016 18:43 18,7 C 78 % 1009,8 hPa 0,0 l/m 5,7 km/h (1 Bft) SO 127 0 min 0,000 mm 0,0 UV-I 88 W/m 14,8 C 18,7 C 8,0 km/h (2 Bft) 100,00 %
04.06.2016 18:44 18,7 C 77 % 1009,7 hPa 0,0 l/m 4,4 km/h (1 Bft) SO 127 0 min 0,000 mm 0,0 UV-I 88 W/m 14,6 C 18,7 C 6,4 km/h (2 Bft) 100,00 %
04.06.2016 18:45 18,7 C 78 % 1009,7 hPa 0,0 l/m 3,4 km/h (1 Bft) SO 135 0 min 0,000 mm 0,0 UV-I 89 W/m 14,8 C 18,7 C 6,4 km/h (2 Bft) 100,00 %
04.06.2016 18:46 18,7 C 79 % 1009,7 hPa 0,0 l/m 2,7 km/h (1 Bft) SO 135 0 min 0,000 mm 0,0 UV-I 88 W/m 15,0 C 18,7 C 4,8 km/h (1 Bft) 100,00 %
04.06.2016 18:47 18,6 C 79 % 1009,7 hPa 0,0 l/m 3,2 km/h (1 Bft) O-SO 110 0 min 0,000 mm 0,0 UV-I 88 W/m 14,9 C 18,6 C 6,4 km/h (2 Bft) 95,65 %
04.06.2016 18:48 18,6 C 79 % 1009,7 hPa 0,0 l/m 3,2 km/h (1 Bft) SO 136 0 min 0,000 mm 0,0 UV-I 88 W/m 14,9 C 18,6 C 4,8 km/h (1 Bft) 100,00 %
04.06.2016 18:49 18,6 C 77 % 1009,7 hPa 0,0 l/m 3,7 km/h (1 Bft) S-SO 159 0 min 0,000 mm 0,0 UV-I 88 W/m 14,5 C 18,6 C 6,4 km/h (2 Bft) 100,00 %
04.06.2016 18:50 18,6 C 75 % 1009,7 hPa 0,0 l/m 4,1 km/h (1 Bft) S-SO 151 0 min 0,000 mm 0,0 UV-I 87 W/m 14,1 C 18,6 C 6,4 km/h (2 Bft) 100,00 %
04.06.2016 18:51 18,5 C 75 % 1009,7 hPa 0,0 l/m 2,7 km/h (1 Bft) S-SO 150 0 min 0,000 mm 0,0 UV-I 86 W/m 14,0 C 18,5 C 6,4 km/h (2 Bft) 100,00 %
04.06.2016 18:52 18,4 C 75 % 1009,7 hPa 0,0 l/m 1,9 km/h (1 Bft) S-SO 153 0 min 0,000 mm 0,0 UV-I 84 W/m 13,9 C 18,4 C 3,2 km/h (1 Bft) 100,00 %
04.06.2016 18:53 18,4 C 75 % 1009,7 hPa 0,0 l/m 3,5 km/h (1 Bft) S-SO 162 0 min 0,000 mm 0,0 UV-I 84 W/m 13,9 C 18,4 C 8,0 km/h (2 Bft) 100,00 %
04.06.2016 18:54 18,4 C 74 % 1009,7 hPa 0,0 l/m 2,6 km/h (1 Bft) S-SO 160 0 min 0,000 mm 0,0 UV-I 84 W/m 13,7 C 18,4 C 6,4 km/h (2 Bft) 100,00 %
04.06.2016 18:55 18,4 C 75 % 1009,7 hPa 0,0 l/m 2,7 km/h (1 Bft) S 171 0 min 0,000 mm 0,0 UV-I 83 W/m 13,9 C 18,4 C 6,4 km/h (2 Bft) 100,00 %
04.06.2016 18:56 18,3 C 74 % 1009,7 hPa 0,0 l/m 1,9 km/h (1 Bft) S-SO 162 0 min 0,000 mm 0,0 UV-I 82 W/m 13,6 C 18,3 C 3,2 km/h (1 Bft) 100,00 %
04.06.2016 18:57 18,3 C 73 % 1009,7 hPa 0,0 l/m 2,1 km/h (1 Bft) S-SO 162 0 min 0,000 mm 0,0 UV-I 81 W/m 13,4 C 18,3 C 3,2 km/h (1 Bft) 100,00 %
04.06.2016 18:58 18,3 C 74 % 1009,6 hPa 0,0 l/m 2,3 km/h (1 Bft) S 170 0 min 0,000 mm 0,0 UV-I 79 W/m 13,6 C 18,3 C 6,4 km/h (2 Bft) 100,00 %
04.06.2016 18:59 18,3 C 74 % 1009,6 hPa 0,0 l/m 5,4 km/h (1 Bft) S 185 0 min 0,000 mm 0,0 UV-I 79 W/m 13,6 C 18,3 C 6,4 km/h (2 Bft) 100,00 %
04.06.2016 19:00 18,3 C 74 % 1009,6 hPa 0,0 l/m 4,7 km/h (1 Bft) S 185 0 min 0,000 mm 0,0 UV-I 77 W/m 13,6 C 18,3 C 6,4 km/h (2 Bft) 100,00 %
04.06.2016 19:01 18,2 C 74 % 1009,6 hPa 0,0 l/m 1,5 km/h (1 Bft) S 185 0 min 0,051 mm 0,0 UV-I 77 W/m 13,5 C 18,2 C 3,2 km/h (1 Bft) 100,00 %
04.06.2016 19:02 18,2 C 75 % 1009,6 hPa 0,0 l/m 1,3 km/h (1 Bft) S 185 0 min 0,000 mm 0,0 UV-I 76 W/m 13,7 C 18,2 C 3,2 km/h (1 Bft) 96,15 %
04.06.2016 19:03 18,2 C 75 % 1009,6 hPa 0,0 l/m 1,4 km/h (1 Bft) S 185 0 min 0,000 mm 0,0 UV-I 76 W/m 13,7 C 18,2 C 3,2 km/h (1 Bft) 100,00 %
04.06.2016 19:04 18,2 C 75 % 1009,6 hPa 0,0 l/m 0,9 km/h (0 Bft) S 185 0 min 0,000 mm 0,0 UV-I 74 W/m 13,7 C 18,2 C 3,2 km/h (1 Bft) 100,00 %
04.06.2016 19:05 18,2 C 74 % 1009,6 hPa 0,0 l/m 2,3 km/h (1 Bft) S 178 0 min 0,000 mm 0,0 UV-I 74 W/m 13,5 C 18,2 C 3,2 km/h (1 Bft) 100,00 %
04.06.2016 19:06 18,2 C 74 % 1009,6 hPa 0,0 l/m 2,2 km/h (1 Bft) S 178 0 min 0,000 mm 0,0 UV-I 72 W/m 13,5 C 18,2 C 4,8 km/h (1 Bft) 100,00 %
04.06.2016 19:07 18,2 C 74 % 1009,6 hPa 0,0 l/m 2,5 km/h (1 Bft) S 178 0 min 0,000 mm 0,0 UV-I 72 W/m 13,5 C 18,2 C 3,2 km/h (1 Bft) 95,83 %
04.06.2016 19:08 18,1 C 74 % 1009,6 hPa 0,0 l/m 2,8 km/h (1 Bft) S 178 0 min 0,000 mm 0,0 UV-I 71 W/m 13,4 C 18,1 C 4,8 km/h (1 Bft) 100,00 %
04.06.2016 19:09 18,1 C 74 % 1009,6 hPa 0,0 l/m 3,6 km/h (1 Bft) S 178 0 min 0,000 mm 0,0 UV-I 70 W/m 13,4 C 18,1 C 4,8 km/h (1 Bft) 97,44 %
04.06.2016 19:10 18,1 C 75 % 1009,6 hPa 0,0 l/m 3,5 km/h (1 Bft) S 175 0 min 0,000 mm 0,0 UV-I 70 W/m 13,6 C 18,1 C 4,8 km/h (1 Bft) 100,00 %
04.06.2016 19:11 18,1 C 74 % 1009,6 hPa 0,0 l/m 4,1 km/h (1 Bft) S-SO 148 0 min 0,000 mm 0,0 UV-I 69 W/m 13,4 C 18,1 C 8,0 km/h (2 Bft) 95,83 %
04.06.2016 19:12 18,1 C 74 % 1009,6 hPa 0,0 l/m 3,4 km/h (1 Bft) S-SO 148 0 min 0,000 mm 0,0 UV-I 69 W/m 13,4 C 18,1 C 4,8 km/h (1 Bft) 100,00 %
04.06.2016 19:13 18,0 C 74 % 1009,6 hPa 0,0 l/m 3,0 km/h (1 Bft) S-SO 147 0 min 0,000 mm 0,0 UV-I 69 W/m 13,3 C 18,0 C 6,4 km/h (2 Bft) 95,83 %
04.06.2016 19:14 18,0 C 73 % 1009,5 hPa 0,0 l/m 1,8 km/h (1 Bft) S-SO 147 0 min 0,000 mm 0,0 UV-I 69 W/m 13,1 C 18,0 C 3,2 km/h (1 Bft) 100,00 %
04.06.2016 19:15 18,0 C 73 % 1009,5 hPa 0,0 l/m 1,9 km/h (1 Bft) S-SO 152 0 min 0,000 mm 0,0 UV-I 69 W/m 13,1 C 18,0 C 4,8 km/h (1 Bft) 95,83 %
04.06.2016 19:16 18,0 C 74 % 1009,5 hPa 0,0 l/m 2,8 km/h (1 Bft) S-SO 160 0 min 0,000 mm 0,0 UV-I 67 W/m 13,3 C 18,0 C 6,4 km/h (2 Bft) 100,00 %
04.06.2016 19:17 18,0 C 75 % 1009,5 hPa 0,0 l/m 6,1 km/h (2 Bft) S-SO 167 0 min 0,000 mm 0,0 UV-I 67 W/m 13,5 C 18,0 C 8,0 km/h (2 Bft) 95,83 %
04.06.2016 19:18 18,0 C 75 % 1009,5 hPa 0,0 l/m 2,6 km/h (1 Bft) S-SO 167 0 min 0,000 mm 0,0 UV-I 67 W/m 13,5 C 18,0 C 6,4 km/h (2 Bft) 95,83 %
04.06.2016 19:19 18,0 C 75 % 1009,6 hPa 0,0 l/m 4,5 km/h (1 Bft) S 171 0 min 0,000 mm 0,0 UV-I 67 W/m 13,5 C 18,0 C 8,0 km/h (2 Bft) 100,00 %
04.06.2016 19:20 18,0 C 76 % 1009,5 hPa 0,0 l/m 2,6 km/h (1 Bft) S 171 0 min 0,000 mm 0,0 UV-I 67 W/m 13,7 C 18,0 C 6,4 km/h (2 Bft) 95,83 %
04.06.2016 19:21 18,0 C 75 % 1009,5 hPa 0,0 l/m 2,5 km/h (1 Bft) S-SO 158 0 min 0,000 mm 0,0 UV-I 67 W/m 13,5 C 18,0 C 4,8 km/h (1 Bft) 96,15 %
04.06.2016 19:22 18,0 C 75 % 1009,5 hPa 0,0 l/m 2,6 km/h (1 Bft) S-SO 158 0 min 0,000 mm 0,0 UV-I 67 W/m 13,5 C 18,0 C 6,4 km/h (2 Bft) 95,65 %
04.06.2016 19:23 17,9 C 74 % 1009,5 hPa 0,0 l/m 3,8 km/h (1 Bft) S-SO 163 0 min 0,000 mm 0,0 UV-I 67 W/m 13,2 C 17,9 C 8,0 km/h (2 Bft) 95,83 %
04.06.2016 19:24 17,9 C 75 % 1009,5 hPa 0,0 l/m 2,5 km/h (1 Bft) S-SO 163 0 min 0,000 mm 0,0 UV-I 67 W/m 13,4 C 17,9 C 6,4 km/h (2 Bft) 100,00 %
04.06.2016 19:25 17,9 C 75 % 1009,5 hPa 0,0 l/m 3,6 km/h (1 Bft) S-SO 167 0 min 0,000 mm 0,0 UV-I 67 W/m 13,4 C 17,9 C 8,0 km/h (2 Bft) 91,30 %
04.06.2016 19:26 17,9 C 75 % 1009,6 hPa 0,0 l/m 3,6 km/h (1 Bft) S-SO 167 0 min 0,000 mm 0,0 UV-I 67 W/m 13,4 C 17,9 C 6,4 km/h (2 Bft) 100,00 %
04.06.2016 19:27 17,9 C 74 % 1009,6 hPa 0,0 l/m 4,6 km/h (1 Bft) S 171 0 min 0,000 mm 0,0 UV-I 67 W/m 13,2 C 17,9 C 8,0 km/h (2 Bft) 95,65 %
04.06.2016 19:28 17,9 C 74 % 1009,6 hPa 0,0 l/m 3,3 km/h (1 Bft) S 169 0 min 0,000 mm 0,0 UV-I 67 W/m 13,2 C 17,9 C 6,4 km/h (2 Bft) 100,00 %
04.06.2016 19:29 17,8 C 75 % 1009,6 hPa 0,0 l/m 2,7 km/h (1 Bft) S-SO 162 0 min 0,000 mm 0,0 UV-I 66 W/m 13,3 C 17,8 C 6,4 km/h (2 Bft) 94,12 %
04.06.2016 19:30 17,8 C 76 % 1009,6 hPa 0,0 l/m 2,8 km/h (1 Bft) S-SO 165 0 min 0,000 mm 0,0 UV-I 65 W/m 13,5 C 17,8 C 6,4 km/h (2 Bft) 100,00 %
04.06.2016 19:31 17,8 C 75 % 1009,7 hPa 0,0 l/m 1,1 km/h (1 Bft) S-SO 165 0 min 0,000 mm 0,0 UV-I 65 W/m 13,3 C 17,8 C 1,6 km/h (1 Bft) 95,65 %
04.06.2016 19:32 17,8 C 75 % 1009,6 hPa 0,0 l/m 0,8 km/h (0 Bft) S-SO 165 0 min 0,000 mm 0,0 UV-I 65 W/m 13,3 C 17,8 C 3,2 km/h (1 Bft) 100,00 %
04.06.2016 19:33 17,8 C 76 % 1009,7 hPa 0,0 l/m 2,5 km/h (1 Bft) S-SO 165 0 min 0,000 mm 0,0 UV-I 63 W/m 13,5 C 17,8 C 6,4 km/h (2 Bft) 92,31 %
04.06.2016 19:34 17,8 C 77 % 1009,7 hPa 0,0 l/m 0,0 km/h (0 Bft) S-SO 165 0 min 0,000 mm 0,0 UV-I 63 W/m 13,7 C 17,8 C 0,0 km/h (0 Bft) 95,83 %
04.06.2016 19:35 17,7 C 77 % 1009,8 hPa 0,0 l/m 0,0 km/h (0 Bft) S-SO 165 0 min 0,000 mm 0,0 UV-I 63 W/m 13,6 C 17,7 C 0,0 km/h (0 Bft) 100,00 %
04.06.2016 19:36 17,7 C 79 % 1009,8 hPa 0,0 l/m 0,0 km/h (0 Bft) S-SO 165 0 min 0,000 mm 0,0 UV-I 63 W/m 14,0 C 17,7 C 0,0 km/h (0 Bft) 93,33 %
04.06.2016 19:37 17,7 C 78 % 1009,9 hPa 0,0 l/m 0,0 km/h (0 Bft) S-SO 165 0 min 0,000 mm 0,0 UV-I 62 W/m 13,8 C 17,7 C 0,0 km/h (0 Bft) 100,00 %
04.06.2016 19:38 17,7 C 77 % 1009,9 hPa 0,0 l/m 0,1 km/h (0 Bft) S-SO 165 0 min 0,000 mm 0,0 UV-I 62 W/m 13,6 C 17,7 C 1,6 km/h (1 Bft) 95,83 %
04.06.2016 19:39 17,7 C 76 % 1009,9 hPa 0,0 l/m 0,5 km/h (0 Bft) S-SO 165 0 min 0,000 mm 0,0 UV-I 60 W/m 13,4 C 17,7 C 1,6 km/h (1 Bft) 100,00 %
04.06.2016 19:40 17,7 C 76 % 1009,9 hPa 0,0 l/m 0,9 km/h (0 Bft) S-SO 165 0 min 0,000 mm 0,0 UV-I 60 W/m 13,4 C 17,7 C 1,6 km/h (1 Bft) 95,83 %
04.06.2016 19:41 17,7 C 76 % 1009,9 hPa 0,0 l/m 0,5 km/h (0 Bft) S-SO 165 0 min 0,000 mm 0,0 UV-I 59 W/m 13,4 C 17,7 C 1,6 km/h (1 Bft) 95,65 %
04.06.2016 19:42 17,7 C 76 % 1009,9 hPa 0,0 l/m 0,5 km/h (0 Bft) S-SO 165 0 min 0,000 mm 0,0 UV-I 58 W/m 13,4 C 17,7 C 1,6 km/h (1 Bft) 100,00 %
04.06.2016 19:43 17,7 C 75 % 1009,9 hPa 0,0 l/m 3,4 km/h (1 Bft) S-SO 157 0 min 0,000 mm 0,0 UV-I 58 W/m 13,2 C 17,7 C 6,4 km/h (2 Bft) 95,65 %
04.06.2016 19:44 17,7 C 75 % 1010,0 hPa 0,0 l/m 2,3 km/h (1 Bft) S-SO 156 0 min 0,000 mm 0,0 UV-I 56 W/m 13,2 C 17,7 C 3,2 km/h (1 Bft) 100,00 %
04.06.2016 19:45 17,7 C 75 % 1009,9 hPa 0,0 l/m 2,8 km/h (1 Bft) SO 142 0 min 0,000 mm 0,0 UV-I 56 W/m 13,2 C 17,7 C 4,8 km/h (1 Bft) 100,00 %
04.06.2016 19:46 17,7 C 75 % 1009,9 hPa 0,0 l/m 0,1 km/h (0 Bft) SO 142 0 min 0,000 mm 0,0 UV-I 56 W/m 13,2 C 17,7 C 1,6 km/h (1 Bft) 100,00 %
04.06.2016 19:47 17,7 C 75 % 1010,0 hPa 0,0 l/m 0,1 km/h (0 Bft) SO 142 0 min 0,000 mm 0,0 UV-I 54 W/m 13,2 C 17,7 C 1,6 km/h (1 Bft) 100,00 %
04.06.2016 19:48 17,7 C 75 % 1010,1 hPa 0,0 l/m 0,0 km/h (0 Bft) SO 142 0 min 0,000 mm 0,0 UV-I 54 W/m 13,2 C 17,7 C 0,0 km/h (0 Bft) 91,30 %
04.06.2016 19:49 17,7 C 75 % 1010,0 hPa 0,0 l/m 0,7 km/h (0 Bft) SO 142 0 min 0,000 mm 0,0 UV-I 53 W/m 13,2 C 17,7 C 1,6 km/h (1 Bft) 100,00 %
04.06.2016 19:50 17,7 C 76 % 1010,0 hPa 0,0 l/m 1,2 km/h (1 Bft) SO 142 0 min 0,000 mm 0,0 UV-I 53 W/m 13,4 C 17,7 C 3,2 km/h (1 Bft) 100,00 %
04.06.2016 19:51 17,7 C 76 % 1010,1 hPa 0,0 l/m 1,6 km/h (1 Bft) SO 142 0 min 0,000 mm 0,0 UV-I 51 W/m 13,4 C 17,7 C 3,2 km/h (1 Bft) 100,00 %
04.06.2016 19:52 17,7 C 76 % 1010,1 hPa 0,0 l/m 2,6 km/h (1 Bft) SO 142 0 min 0,000 mm 0,0 UV-I 51 W/m 13,4 C 17,7 C 3,2 km/h (1 Bft) 100,00 %
04.06.2016 19:53 17,7 C 76 % 1010,1 hPa 0,0 l/m 0,9 km/h (0 Bft) SO 142 0 min 0,000 mm 0,0 UV-I 49 W/m 13,4 C 17,7 C 3,2 km/h (1 Bft) 100,00 %
04.06.2016 19:54 17,7 C 76 % 1010,1 hPa 0,0 l/m 1,7 km/h (1 Bft) SO 145 0 min 0,000 mm 0,0 UV-I 48 W/m 13,4 C 17,7 C 3,2 km/h (1 Bft) 95,65 %
04.06.2016 19:55 17,7 C 75 % 1010,1 hPa 0,0 l/m 1,1 km/h (1 Bft) SO 146 0 min 0,000 mm 0,0 UV-I 47 W/m 13,2 C 17,7 C 3,2 km/h (1 Bft) 100,00 %
04.06.2016 19:56 17,7 C 75 % 1010,1 hPa 0,0 l/m 2,6 km/h (1 Bft) SO 146 0 min 0,000 mm 0,0 UV-I 46 W/m 13,2 C 17,7 C 4,8 km/h (1 Bft) 91,67 %
04.06.2016 19:57 17,7 C 75 % 1010,1 hPa 0,0 l/m 2,3 km/h (1 Bft) SO 146 0 min 0,000 mm 0,0 UV-I 46 W/m 13,2 C 17,7 C 4,8 km/h (1 Bft) 100,00 %
04.06.2016 19:58 17,7 C 76 % 1010,1 hPa 0,0 l/m 1,5 km/h (1 Bft) SO 146 0 min 0,000 mm 0,0 UV-I 44 W/m 13,4 C 17,7 C 3,2 km/h (1 Bft) 100,00 %
04.06.2016 19:59 17,7 C 76 % 1010,1 hPa 0,0 l/m 3,1 km/h (1 Bft) S 185 0 min 0,000 mm 0,0 UV-I 43 W/m 13,4 C 17,7 C 4,8 km/h (1 Bft) 100,00 %
04.06.2016 20:00 17,7 C 77 % 1010,1 hPa 0,0 l/m 3,6 km/h (1 Bft) S 185 0 min 0,000 mm 0,0 UV-I 41 W/m 13,6 C 17,7 C 4,8 km/h (1 Bft) 100,00 %
04.06.2016 20:01 17,7 C 76 % 1010,1 hPa 0,0 l/m 4,5 km/h (1 Bft) S-SW 195 0 min 0,051 mm 0,0 UV-I 40 W/m 13,4 C 17,7 C 4,8 km/h (1 Bft) 100,00 %
04.06.2016 20:02 17,6 C 76 % 1010,1 hPa 0,0 l/m 3,6 km/h (1 Bft) S-SW 195 0 min 0,000 mm 0,0 UV-I 39 W/m 13,3 C 17,6 C 4,8 km/h (1 Bft) 100,00 %
04.06.2016 20:03 17,6 C 77 % 1010,2 hPa 0,0 l/m 1,5 km/h (1 Bft) S-SW 195 0 min 0,000 mm 0,0 UV-I 39 W/m 13,5 C 17,6 C 3,2 km/h (1 Bft) 100,00 %
04.06.2016 20:04 17,6 C 76 % 1010,2 hPa 0,0 l/m 1,4 km/h (1 Bft) S-SW 195 0 min 0,000 mm 0,0 UV-I 36 W/m 13,3 C 17,6 C 1,6 km/h (1 Bft) 91,67 %
04.06.2016 20:05 17,6 C 76 % 1010,1 hPa 0,0 l/m 0,8 km/h (0 Bft) S-SW 195 0 min 0,000 mm 0,0 UV-I 34 W/m 13,3 C 17,6 C 1,6 km/h (1 Bft) 95,65 %
04.06.2016 20:06 17,6 C 78 % 1010,1 hPa 0,0 l/m 1,0 km/h (0 Bft) S-SW 195 0 min 0,000 mm 0,0 UV-I 33 W/m 13,7 C 17,6 C 1,6 km/h (1 Bft) 100,00 %
04.06.2016 20:07 17,5 C 77 % 1010,1 hPa 0,0 l/m 0,8 km/h (0 Bft) S-SW 195 0 min 0,000 mm 0,0 UV-I 32 W/m 13,4 C 17,5 C 1,6 km/h (1 Bft) 100,00 %
04.06.2016 20:08 17,4 C 78 % 1010,1 hPa 0,0 l/m 1,7 km/h (1 Bft) S-SW 195 0 min 0,000 mm 0,0 UV-I 30 W/m 13,5 C 17,4 C 3,2 km/h (1 Bft) 100,00 %
04.06.2016 20:09 17,4 C 79 % 1010,1 hPa 0,0 l/m 1,5 km/h (1 Bft) S-SW 195 0 min 0,000 mm 0,0 UV-I 30 W/m 13,7 C 17,4 C 3,2 km/h (1 Bft) 100,00 %
04.06.2016 20:10 17,4 C 78 % 1010,1 hPa 0,0 l/m 1,6 km/h (1 Bft) S-SW 195 0 min 0,000 mm 0,0 UV-I 28 W/m 13,5 C 17,4 C 3,2 km/h (1 Bft) 100,00 %
04.06.2016 20:11 17,4 C 78 % 1010,1 hPa 0,0 l/m 2,2 km/h (1 Bft) S-SW 195 0 min 0,000 mm 0,0 UV-I 27 W/m 13,5 C 17,4 C 3,2 km/h (1 Bft) 100,00 %
04.06.2016 20:12 17,4 C 77 % 1010,1 hPa 0,0 l/m 1,1 km/h (1 Bft) S-SW 195 0 min 0,000 mm 0,0 UV-I 26 W/m 13,3 C 17,4 C 1,6 km/h (1 Bft) 95,83 %
04.06.2016 20:13 17,4 C 77 % 1010,1 hPa 0,0 l/m 1,1 km/h (1 Bft) S-SW 195 0 min 0,000 mm 0,0 UV-I 25 W/m 13,3 C 17,4 C 1,6 km/h (1 Bft) 100,00 %
04.06.2016 20:14 17,4 C 78 % 1010,1 hPa 0,0 l/m 1,9 km/h (1 Bft) S-SW 195 0 min 0,000 mm 0,0 UV-I 25 W/m 13,5 C 17,4 C 3,2 km/h (1 Bft) 100,00 %
04.06.2016 20:15 17,4 C 78 % 1010,1 hPa 0,0 l/m 2,0 km/h (1 Bft) S-SW 195 0 min 0,000 mm 0,0 UV-I 23 W/m 13,5 C 17,4 C 3,2 km/h (1 Bft) 100,00 %
04.06.2016 20:16 17,4 C 77 % 1010,1 hPa 0,0 l/m 1,9 km/h (1 Bft) S-SW 195 0 min 0,000 mm 0,0 UV-I 22 W/m 13,3 C 17,4 C 3,2 km/h (1 Bft) 100,00 %
04.06.2016 20:17 17,3 C 78 % 1010,1 hPa 0,0 l/m 1,5 km/h (1 Bft) S-SW 195 0 min 0,000 mm 0,0 UV-I 21 W/m 13,4 C 17,3 C 3,2 km/h (1 Bft) 100,00 %
04.06.2016 20:18 17,3 C 78 % 1010,1 hPa 0,0 l/m 1,7 km/h (1 Bft) S-SW 195 0 min 0,000 mm 0,0 UV-I 21 W/m 13,4 C 17,3 C 3,2 km/h (1 Bft) 100,00 %
04.06.2016 20:19 17,3 C 78 % 1010,0 hPa 0,0 l/m 2,3 km/h (1 Bft) S-SW 195 0 min 0,000 mm 0,0 UV-I 20 W/m 13,4 C 17,3 C 3,2 km/h (1 Bft) 100,00 %
04.06.2016 20:20 17,3 C 78 % 1010,0 hPa 0,0 l/m 1,6 km/h (1 Bft) S-SW 195 0 min 0,000 mm 0,0 UV-I 19 W/m 13,4 C 17,3 C 1,6 km/h (1 Bft) 97,37 %
04.06.2016 20:21 17,3 C 78 % 1010,0 hPa 0,0 l/m 1,4 km/h (1 Bft) S-SW 195 0 min 0,000 mm 0,0 UV-I 18 W/m 13,4 C 17,3 C 1,6 km/h (1 Bft) 100,00 %
04.06.2016 20:22 17,3 C 78 % 1010,0 hPa 0,0 l/m 1,6 km/h (1 Bft) S-SW 195 0 min 0,000 mm 0,0 UV-I 18 W/m 13,4 C 17,3 C 1,6 km/h (1 Bft) 96,55 %
04.06.2016 20:23 17,3 C 78 % 1010,0 hPa 0,0 l/m 2,6 km/h (1 Bft) S-SW 195 0 min 0,000 mm 0,0 UV-I 17 W/m 13,4 C 17,3 C 3,2 km/h (1 Bft) 100,00 %
04.06.2016 20:24 17,3 C 78 % 1010,0 hPa 0,0 l/m 2,5 km/h (1 Bft) S-SW 195 0 min 0,000 mm 0,0 UV-I 16 W/m 13,4 C 17,3 C 4,8 km/h (1 Bft) 100,00 %
04.06.2016 20:25 17,3 C 79 % 1010,0 hPa 0,0 l/m 4,0 km/h (1 Bft) S-SW 194 0 min 0,000 mm 0,0 UV-I 14 W/m 13,6 C 17,3 C 4,8 km/h (1 Bft) 100,00 %
04.06.2016 20:26 17,3 C 80 % 1010,0 hPa 0,0 l/m 1,7 km/h (1 Bft) S-SW 192 0 min 0,000 mm 0,0 UV-I 14 W/m 13,8 C 17,3 C 4,8 km/h (1 Bft) 100,00 %
04.06.2016 20:27 17,3 C 80 % 1010,0 hPa 0,0 l/m 1,3 km/h (1 Bft) S-SW 192 0 min 0,000 mm 0,0 UV-I 14 W/m 13,8 C 17,3 C 3,2 km/h (1 Bft) 100,00 %
04.06.2016 20:28 17,3 C 79 % 1010,0 hPa 0,0 l/m 1,7 km/h (1 Bft) S-SW 192 0 min 0,000 mm 0,0 UV-I 12 W/m 13,6 C 17,3 C 3,2 km/h (1 Bft) 100,00 %
04.06.2016 20:29 17,3 C 80 % 1010,0 hPa 0,0 l/m 1,1 km/h (1 Bft) S-SW 192 0 min 0,000 mm 0,0 UV-I 12 W/m 13,8 C 17,3 C 3,2 km/h (1 Bft) 100,00 %
04.06.2016 20:30 17,3 C 80 % 1010,1 hPa 0,0 l/m 0,8 km/h (0 Bft) S-SW 192 0 min 0,000 mm 0,0 UV-I 12 W/m 13,8 C 17,3 C 3,2 km/h (1 Bft) 100,00 %
04.06.2016 20:31 17,3 C 81 % 1010,1 hPa 0,0 l/m 0,0 km/h (0 Bft) S-SW 192 0 min 0,000 mm 0,0 UV-I 11 W/m 14,0 C 17,3 C 0,0 km/h (0 Bft) 100,00 %
04.06.2016 20:32 17,2 C 81 % 1010,1 hPa 0,0 l/m 0,0 km/h (0 Bft) S-SW 192 0 min 0,000 mm 0,0 UV-I 11 W/m 13,9 C 17,2 C 0,0 km/h (0 Bft) 100,00 %
04.06.2016 20:33 17,2 C 81 % 1010,1 hPa 0,0 l/m 0,0 km/h (0 Bft) S-SW 192 0 min 0,000 mm 0,0 UV-I 11 W/m 13,9 C 17,2 C 0,0 km/h (0 Bft) 100,00 %
04.06.2016 20:34 17,1 C 81 % 1010,1 hPa 0,0 l/m 0,1 km/h (0 Bft) S-SW 192 0 min 0,000 mm 0,0 UV-I 10 W/m 13,8 C 17,1 C 1,6 km/h (1 Bft) 100,00 %
04.06.2016 20:35 17,0 C 81 % 1010,1 hPa 0,0 l/m 0,0 km/h (0 Bft) S-SW 192 0 min 0,000 mm 0,0 UV-I 9 W/m 13,7 C 17,0 C 0,0 km/h (0 Bft) 95,83 %
04.06.2016 20:36 16,9 C 81 % 1010,2 hPa 0,0 l/m 0,5 km/h (0 Bft) S-SW 192 0 min 0,000 mm 0,0 UV-I 9 W/m 13,6 C 16,9 C 1,6 km/h (1 Bft) 100,00 %
04.06.2016 20:37 16,9 C 81 % 1010,2 hPa 0,0 l/m 1,5 km/h (1 Bft) S-SW 192 0 min 0,000 mm 0,0 UV-I 9 W/m 13,6 C 16,9 C 3,2 km/h (1 Bft) 100,00 %
04.06.2016 20:38 16,9 C 81 % 1010,1 hPa 0,0 l/m 1,5 km/h (1 Bft) S-SW 192 0 min 0,000 mm 0,0 UV-I 9 W/m 13,6 C 16,9 C 1,6 km/h (1 Bft) 100,00 %
04.06.2016 20:39 16,9 C 82 % 1010,1 hPa 0,0 l/m 1,3 km/h (1 Bft) S-SW 192 0 min 0,000 mm 0,0 UV-I 7 W/m 13,8 C 16,9 C 1,6 km/h (1 Bft) 95,65 %
04.06.2016 20:40 16,9 C 81 % 1010,1 hPa 0,0 l/m 1,2 km/h (1 Bft) S-SW 192 0 min 0,000 mm 0,0 UV-I 7 W/m 13,6 C 16,9 C 1,6 km/h (1 Bft) 100,00 %
04.06.2016 20:41 16,9 C 82 % 1010,1 hPa 0,0 l/m 0,8 km/h (0 Bft) S-SW 192 0 min 0,000 mm 0,0 UV-I 7 W/m 13,8 C 16,9 C 1,6 km/h (1 Bft) 95,65 %
04.06.2016 20:42 16,9 C 81 % 1010,1 hPa 0,0 l/m 0,9 km/h (0 Bft) S-SW 192 0 min 0,000 mm 0,0 UV-I 7 W/m 13,6 C 16,9 C 1,6 km/h (1 Bft) 100,00 %
04.06.2016 20:43 16,9 C 81 % 1010,1 hPa 0,0 l/m 0,3 km/h (0 Bft) S-SW 192 0 min 0,000 mm 0,0 UV-I 7 W/m 13,6 C 16,9 C 1,6 km/h (1 Bft) 95,65 %
04.06.2016 20:44 16,9 C 82 % 1010,1 hPa 0,0 l/m 0,0 km/h (0 Bft) S-SW 192 0 min 0,000 mm 0,0 UV-I 5 W/m 13,8 C 16,9 C 0,0 km/h (0 Bft) 91,67 %
04.06.2016 20:45 16,9 C 82 % 1010,1 hPa 0,0 l/m 0,1 km/h (0 Bft) S-SW 192 0 min 0,000 mm 0,0 UV-I 5 W/m 13,8 C 16,9 C 1,6 km/h (1 Bft) 100,00 %
04.06.2016 20:46 16,8 C 81 % 1010,1 hPa 0,0 l/m 1,5 km/h (1 Bft) S-SW 192 0 min 0,000 mm 0,0 UV-I 5 W/m 13,5 C 16,8 C 3,2 km/h (1 Bft) 100,00 %
04.06.2016 20:47 16,8 C 81 % 1010,1 hPa 0,0 l/m 2,4 km/h (1 Bft) S-SW 192 0 min 0,000 mm 0,0 UV-I 5 W/m 13,5 C 16,8 C 3,2 km/h (1 Bft) 100,00 %
04.06.2016 20:48 16,8 C 82 % 1010,1 hPa 0,0 l/m 3,0 km/h (1 Bft) S-SW 192 0 min 0,000 mm 0,0 UV-I 5 W/m 13,7 C 16,8 C 3,2 km/h (1 Bft) 100,00 %
04.06.2016 20:49 16,7 C 82 % 1010,1 hPa 0,0 l/m 3,2 km/h (1 Bft) S-SW 192 0 min 0,000 mm 0,0 UV-I 5 W/m 13,6 C 16,7 C 3,2 km/h (1 Bft) 96,15 %
04.06.2016 20:50 16,6 C 82 % 1010,2 hPa 0,0 l/m 3,0 km/h (1 Bft) S-SW 192 0 min 0,000 mm 0,0 UV-I 5 W/m 13,5 C 16,6 C 3,2 km/h (1 Bft) 100,00 %
04.06.2016 20:51 16,5 C 82 % 1010,2 hPa 0,0 l/m 3,1 km/h (1 Bft) S-SW 192 0 min 0,000 mm 0,0 UV-I 5 W/m 13,4 C 16,5 C 3,2 km/h (1 Bft) 100,00 %
04.06.2016 20:52 16,4 C 82 % 1010,2 hPa 0,0 l/m 3,0 km/h (1 Bft) S-SW 192 0 min 0,000 mm 0,0 UV-I 3 W/m 13,3 C 16,4 C 3,2 km/h (1 Bft) 100,00 %
04.06.2016 20:53 16,4 C 83 % 1010,2 hPa 0,0 l/m 2,0 km/h (1 Bft) S-SW 192 0 min 0,000 mm 0,0 UV-I 0 W/m 13,5 C 16,4 C 3,2 km/h (1 Bft) 95,65 %
04.06.2016 20:54 16,3 C 84 % 1010,2 hPa 0,0 l/m 1,8 km/h (1 Bft) S-SW 192 0 min 0,000 mm 0,0 UV-I 0 W/m 13,6 C 16,3 C 3,2 km/h (1 Bft) 95,83 %
04.06.2016 20:55 16,2 C 84 % 1010,2 hPa 0,0 l/m 1,3 km/h (1 Bft) S-SW 192 0 min 0,000 mm 0,0 UV-I 0 W/m 13,5 C 16,2 C 1,6 km/h (1 Bft) 100,00 %
04.06.2016 20:56 16,1 C 85 % 1010,2 hPa 0,0 l/m 1,5 km/h (1 Bft) S-SW 192 0 min 0,000 mm 0,0 UV-I 0 W/m 13,6 C 16,1 C 3,2 km/h (1 Bft) 100,00 %
04.06.2016 20:57 16,1 C 85 % 1010,3 hPa 0,0 l/m 1,8 km/h (1 Bft) S-SW 192 0 min 0,000 mm 0,0 UV-I 0 W/m 13,6 C 16,1 C 3,2 km/h (1 Bft) 100,00 %
04.06.2016 20:58 16,1 C 85 % 1010,3 hPa 0,0 l/m 2,1 km/h (1 Bft) S-SW 192 0 min 0,000 mm 0,0 UV-I 0 W/m 13,6 C 16,1 C 3,2 km/h (1 Bft) 100,00 %
04.06.2016 20:59 16,0 C 84 % 1010,3 hPa 0,0 l/m 3,0 km/h (1 Bft) S-SW 192 0 min 0,000 mm 0,0 UV-I 0 W/m 13,3 C 16,0 C 3,2 km/h (1 Bft) 100,00 %
04.06.2016 21:00 16,1 C 84 % 1010,4 hPa 0,0 l/m 2,3 km/h (1 Bft) S-SW 192 0 min 0,000 mm 0,0 UV-I 0 W/m 13,4 C 16,1 C 3,2 km/h (1 Bft) 95,65 %
04.06.2016 21:01 16,1 C 84 % 1010,4 hPa 0,0 l/m 1,5 km/h (1 Bft) S-SW 192 0 min 0,025 mm 0,0 UV-I 0 W/m 13,4 C 16,1 C 1,6 km/h (1 Bft) 100,00 %
04.06.2016 21:02 16,1 C 84 % 1010,4 hPa 0,0 l/m 0,9 km/h (0 Bft) S-SW 192 0 min 0,000 mm 0,0 UV-I 0 W/m 13,4 C 16,1 C 1,6 km/h (1 Bft) 95,65 %
04.06.2016 21:03 16,0 C 85 % 1010,4 hPa 0,0 l/m 0,2 km/h (0 Bft) S-SW 192 0 min 0,000 mm 0,0 UV-I 0 W/m 13,5 C 16,0 C 1,6 km/h (1 Bft) 100,00 %
04.06.2016 21:04 16,0 C 85 % 1010,4 hPa 0,0 l/m 0,0 km/h (0 Bft) S-SW 192 0 min 0,000 mm 0,0 UV-I 0 W/m 13,5 C 16,0 C 0,0 km/h (0 Bft) 95,65 %
04.06.2016 21:05 16,0 C 85 % 1010,5 hPa 0,0 l/m 0,8 km/h (0 Bft) S-SW 192 0 min 0,000 mm 0,0 UV-I 0 W/m 13,5 C 16,0 C 1,6 km/h (1 Bft) 100,00 %
04.06.2016 21:06 16,0 C 85 % 1010,5 hPa 0,0 l/m 1,1 km/h (1 Bft) S-SW 192 0 min 0,000 mm 0,0 UV-I 0 W/m 13,5 C 16,0 C 1,6 km/h (1 Bft) 91,30 %
04.06.2016 21:07 16,0 C 85 % 1010,5 hPa 0,0 l/m 1,3 km/h (1 Bft) S-SW 192 0 min 0,000 mm 0,0 UV-I 0 W/m 13,5 C 16,0 C 1,6 km/h (1 Bft) 100,00 %
04.06.2016 21:08 15,9 C 85 % 1010,5 hPa 0,0 l/m 1,1 km/h (1 Bft) S-SW 192 0 min 0,000 mm 0,0 UV-I 0 W/m 13,4 C 15,9 C 1,6 km/h (1 Bft) 95,65 %
04.06.2016 21:10 15,9 C 85 % 1010,5 hPa 0,0 l/m 1,6 km/h (1 Bft) S-SW 202 0 min 0,000 mm 0,0 UV-I 0 W/m 13,4 C 15,9 C 3,2 km/h (1 Bft) 100,00 %
04.06.2016 21:11 15,9 C 86 % 1010,5 hPa 0,0 l/m 2,4 km/h (1 Bft) S-SW 192 0 min 0,000 mm 0,0 UV-I 0 W/m 13,6 C 15,9 C 3,2 km/h (1 Bft) 94,67 %
04.06.2016 21:12 15,9 C 86 % 1010,5 hPa 0,0 l/m 3,0 km/h (1 Bft) S-SW 192 0 min 0,000 mm 0,0 UV-I 0 W/m 13,6 C 15,9 C 4,8 km/h (1 Bft) 100,00 %
04.06.2016 21:13 15,9 C 86 % 1010,5 hPa 0,0 l/m 2,2 km/h (1 Bft) S-SW 192 0 min 0,000 mm 0,0 UV-I 0 W/m 13,6 C 15,9 C 3,2 km/h (1 Bft) 95,65 %
04.06.2016 21:14 15,9 C 87 % 1010,6 hPa 0,0 l/m 2,3 km/h (1 Bft) S-SW 192 0 min 0,000 mm 0,0 UV-I 0 W/m 13,7 C 15,9 C 3,2 km/h (1 Bft) 100,00 %
04.06.2016 21:15 15,9 C 87 % 1010,6 hPa 0,0 l/m 2,0 km/h (1 Bft) S-SW 192 0 min 0,000 mm 0,0 UV-I 0 W/m 13,7 C 15,9 C 3,2 km/h (1 Bft) 95,65 %
04.06.2016 21:16 15,9 C 87 % 1010,6 hPa 0,0 l/m 0,9 km/h (0 Bft) S-SW 192 0 min 0,000 mm 0,0 UV-I 0 W/m 13,7 C 15,9 C 1,6 km/h (1 Bft) 95,83 %
04.06.2016 21:17 15,9 C 87 % 1010,6 hPa 0,0 l/m 1,6 km/h (1 Bft) S-SW 192 0 min 0,000 mm 0,0 UV-I 0 W/m 13,7 C 15,9 C 3,2 km/h (1 Bft) 100,00 %
04.06.2016 21:18 15,8 C 87 % 1010,6 hPa 0,0 l/m 2,8 km/h (1 Bft) S-SW 192 0 min 0,000 mm 0,0 UV-I 0 W/m 13,6 C 15,8 C 3,2 km/h (1 Bft) 95,83 %
04.06.2016 21:19 15,8 C 87 % 1010,6 hPa 0,0 l/m 1,5 km/h (1 Bft) S-SW 192 0 min 0,000 mm 0,0 UV-I 0 W/m 13,6 C 15,8 C 3,2 km/h (1 Bft) 95,65 %
04.06.2016 21:20 15,8 C 87 % 1010,7 hPa 0,0 l/m 0,7 km/h (0 Bft) S-SW 192 0 min 0,000 mm 0,0 UV-I 0 W/m 13,6 C 15,8 C 1,6 km/h (1 Bft) 91,67 %
04.06.2016 21:21 15,8 C 87 % 1010,7 hPa 0,0 l/m 0,8 km/h (0 Bft) S-SW 192 0 min 0,000 mm 0,0 UV-I 0 W/m 13,6 C 15,8 C 1,6 km/h (1 Bft) 100,00 %
04.06.2016 21:22 15,8 C 88 % 1010,7 hPa 0,0 l/m 0,9 km/h (0 Bft) S-SW 192 0 min 0,000 mm 0,0 UV-I 0 W/m 13,8 C 15,8 C 1,6 km/h (1 Bft) 95,83 %
04.06.2016 21:23 15,7 C 88 % 1010,7 hPa 0,0 l/m 0,6 km/h (0 Bft) S-SW 192 0 min 0,000 mm 0,0 UV-I 0 W/m 13,7 C 15,7 C 1,6 km/h (1 Bft) 95,65 %
04.06.2016 21:24 15,7 C 88 % 1010,7 hPa 0,0 l/m 1,6 km/h (1 Bft) S-SW 192 0 min 0,000 mm 0,0 UV-I 0 W/m 13,7 C 15,7 C 3,2 km/h (1 Bft) 92,59 %
04.06.2016 21:25 15,6 C 88 % 1010,7 hPa 0,0 l/m 0,7 km/h (0 Bft) S-SW 192 0 min 0,000 mm 0,0 UV-I 0 W/m 13,6 C 15,6 C 1,6 km/h (1 Bft) 100,00 %
04.06.2016 21:26 15,6 C 88 % 1010,7 hPa 0,0 l/m 0,5 km/h (0 Bft) S-SW 192 0 min 0,000 mm 0,0 UV-I 0 W/m 13,6 C 15,6 C 1,6 km/h (1 Bft) 95,83 %
04.06.2016 21:27 15,5 C 88 % 1010,7 hPa 0,0 l/m 1,1 km/h (1 Bft) S-SW 192 0 min 0,000 mm 0,0 UV-I 0 W/m 13,5 C 15,5 C 3,2 km/h (1 Bft) 95,83 %
04.06.2016 21:28 15,5 C 88 % 1010,8 hPa 0,0 l/m 1,9 km/h (1 Bft) S-SW 192 0 min 0,000 mm 0,0 UV-I 0 W/m 13,5 C 15,5 C 3,2 km/h (1 Bft) 100,00 %
04.06.2016 21:29 15,5 C 87 % 1010,8 hPa 0,0 l/m 1,2 km/h (1 Bft) S-SW 192 0 min 0,000 mm 0,0 UV-I 0 W/m 13,3 C 15,5 C 1,6 km/h (1 Bft) 95,83 %
04.06.2016 21:30 15,6 C 86 % 1010,8 hPa 0,0 l/m 2,1 km/h (1 Bft) S 188 0 min 0,000 mm 0,0 UV-I 0 W/m 13,3 C 15,6 C 3,2 km/h (1 Bft) 100,00 %
04.06.2016 21:31 15,7 C 85 % 1010,8 hPa 0,0 l/m 2,8 km/h (1 Bft) S 178 0 min 0,000 mm 0,0 UV-I 0 W/m 13,2 C 15,7 C 3,2 km/h (1 Bft) 95,83 %
04.06.2016 21:32 15,7 C 85 % 1010,9 hPa 0,0 l/m 2,7 km/h (1 Bft) S 175 0 min 0,000 mm 0,0 UV-I 0 W/m 13,2 C 15,7 C 4,8 km/h (1 Bft) 100,00 %
04.06.2016 21:33 15,8 C 85 % 1010,8 hPa 0,0 l/m 4,0 km/h (1 Bft) S-SO 167 0 min 0,000 mm 0,0 UV-I 0 W/m 13,3 C 15,8 C 8,0 km/h (2 Bft) 87,50 %
04.06.2016 21:34 15,8 C 84 % 1010,8 hPa 0,0 l/m 4,4 km/h (1 Bft) S-SO 163 0 min 0,000 mm 0,0 UV-I 0 W/m 13,1 C 15,8 C 8,0 km/h (2 Bft) 96,15 %
04.06.2016 21:35 15,9 C 84 % 1010,8 hPa 0,0 l/m 3,5 km/h (1 Bft) S-SO 161 0 min 0,000 mm 0,0 UV-I 0 W/m 13,2 C 15,9 C 6,4 km/h (2 Bft) 100,00 %
04.06.2016 21:36 15,9 C 83 % 1010,9 hPa 0,0 l/m 3,5 km/h (1 Bft) S-SO 164 0 min 0,000 mm 0,0 UV-I 0 W/m 13,0 C 15,9 C 8,0 km/h (2 Bft) 100,00 %
04.06.2016 21:37 15,9 C 83 % 1010,9 hPa 0,0 l/m 3,9 km/h (1 Bft) S-SO 157 0 min 0,000 mm 0,0 UV-I 0 W/m 13,0 C 15,9 C 9,7 km/h (2 Bft) 95,83 %
04.06.2016 21:38 15,9 C 83 % 1010,8 hPa 0,0 l/m 2,7 km/h (1 Bft) S-SO 156 0 min 0,000 mm 0,0 UV-I 0 W/m 13,0 C 15,9 C 6,4 km/h (2 Bft) 100,00 %
04.06.2016 21:39 16,0 C 83 % 1010,9 hPa 0,0 l/m 1,9 km/h (1 Bft) S-SO 158 0 min 0,000 mm 0,0 UV-I 0 W/m 13,1 C 16,0 C 4,8 km/h (1 Bft) 100,00 %
04.06.2016 21:40 16,0 C 82 % 1010,9 hPa 0,0 l/m 2,5 km/h (1 Bft) S-SO 162 0 min 0,000 mm 0,0 UV-I 0 W/m 12,9 C 16,0 C 3,2 km/h (1 Bft) 91,30 %
04.06.2016 21:41 16,1 C 82 % 1010,9 hPa 0,0 l/m 3,2 km/h (1 Bft) S-SO 156 0 min 0,000 mm 0,0 UV-I 0 W/m 13,0 C 16,1 C 6,4 km/h (2 Bft) 100,00 %
04.06.2016 21:42 16,1 C 82 % 1010,9 hPa 0,0 l/m 3,7 km/h (1 Bft) S-SO 162 0 min 0,000 mm 0,0 UV-I 0 W/m 13,0 C 16,1 C 6,4 km/h (2 Bft) 100,00 %
04.06.2016 21:43 16,1 C 82 % 1011,0 hPa 0,0 l/m 2,6 km/h (1 Bft) S 171 0 min 0,000 mm 0,0 UV-I 0 W/m 13,0 C 16,1 C 6,4 km/h (2 Bft) 100,00 %
04.06.2016 21:45 16,2 C 82 % 1011,0 hPa 0,0 l/m 3,2 km/h (1 Bft) S 180 0 min 0,000 mm 0,0 UV-I 0 W/m 13,1 C 16,2 C 6,4 km/h (2 Bft) 97,37 %
04.06.2016 21:50 16,1 C 82 % 1011,2 hPa 0,0 l/m 1,6 km/h (1 Bft) S-SO 157 0 min 0,000 mm 0,0 UV-I 0 W/m 13,0 C 16,1 C 6,4 km/h (2 Bft) 96,49 %
04.06.2016 21:55 15,9 C 84 % 1011,3 hPa 0,0 l/m 1,6 km/h (1 Bft) S-SO 157 0 min 0,000 mm 0,0 UV-I 0 W/m 13,2 C 15,9 C 4,8 km/h (1 Bft) 99,12 %
04.06.2016 21:57 15,8 C 85 % 1011,3 hPa 0,0 l/m 3,8 km/h (1 Bft) S-SO 166 0 min 0,000 mm 0,0 UV-I 0 W/m 13,3 C 15,8 C 4,8 km/h (1 Bft) 99,39 %
04.06.2016 21:58 15,8 C 85 % 1011,4 hPa 0,0 l/m 3,2 km/h (1 Bft) S-SO 166 0 min 0,000 mm 0,0 UV-I 0 W/m 13,3 C 15,8 C 6,4 km/h (2 Bft) 96,43 %
04.06.2016 21:59 15,7 C 85 % 1011,4 hPa 0,0 l/m 5,1 km/h (1 Bft) S-SO 166 0 min 0,000 mm 0,0 UV-I 0 W/m 13,2 C 15,7 C 6,4 km/h (2 Bft) 92,31 %
04.06.2016 22:00 15,7 C 85 % 1011,4 hPa 0,0 l/m 5,2 km/h (1 Bft) S-SO 166 0 min 0,000 mm 0,0 UV-I 0 W/m 13,2 C 15,7 C 6,4 km/h (2 Bft) 100,00 %
04.06.2016 22:01 15,7 C 85 % 1011,4 hPa 0,0 l/m 4,5 km/h (1 Bft) S 173 0 min 0,000 mm 0,0 UV-I 0 W/m 13,2 C 15,7 C 6,4 km/h (2 Bft) 100,00 %
04.06.2016 22:02 15,7 C 85 % 1011,4 hPa 0,0 l/m 2,5 km/h (1 Bft) S 173 0 min 0,000 mm 0,0 UV-I 0 W/m 13,2 C 15,7 C 3,2 km/h (1 Bft) 100,00 %
04.06.2016 22:03 15,7 C 85 % 1011,5 hPa 0,0 l/m 2,3 km/h (1 Bft) S 173 0 min 0,000 mm 0,0 UV-I 0 W/m 13,2 C 15,7 C 3,2 km/h (1 Bft) 100,00 %
04.06.2016 22:04 15,7 C 85 % 1011,5 hPa 0,0 l/m 1,9 km/h (1 Bft) S 173 0 min 0,000 mm 0,0 UV-I 0 W/m 13,2 C 15,7 C 3,2 km/h (1 Bft) 100,00 %
04.06.2016 22:05 15,6 C 85 % 1011,5 hPa 0,0 l/m 1,3 km/h (1 Bft) S 173 0 min 0,000 mm 0,0 UV-I 0 W/m 13,1 C 15,6 C 3,2 km/h (1 Bft) 100,00 %
04.06.2016 22:06 15,6 C 85 % 1011,5 hPa 0,0 l/m 2,2 km/h (1 Bft) S 173 0 min 0,000 mm 0,0 UV-I 0 W/m 13,1 C 15,6 C 3,2 km/h (1 Bft) 100,00 %
04.06.2016 22:07 15,6 C 85 % 1011,5 hPa 0,0 l/m 1,5 km/h (1 Bft) S 173 0 min 0,000 mm 0,0 UV-I 0 W/m 13,1 C 15,6 C 3,2 km/h (1 Bft) 100,00 %
04.06.2016 22:08 15,6 C 85 % 1011,5 hPa 0,0 l/m 0,5 km/h (0 Bft) S 173 0 min 0,000 mm 0,0 UV-I 0 W/m 13,1 C 15,6 C 1,6 km/h (1 Bft) 100,00 %
04.06.2016 22:09 15,6 C 86 % 1011,5 hPa 0,0 l/m 0,3 km/h (0 Bft) S 173 0 min 0,000 mm 0,0 UV-I 0 W/m 13,3 C 15,6 C 1,6 km/h (1 Bft) 100,00 %
04.06.2016 22:10 15,6 C 86 % 1011,5 hPa 0,0 l/m 0,3 km/h (0 Bft) S 173 0 min 0,000 mm 0,0 UV-I 0 W/m 13,3 C 15,6 C 1,6 km/h (1 Bft) 100,00 %
04.06.2016 22:11 15,6 C 86 % 1011,4 hPa 0,0 l/m 0,1 km/h (0 Bft) S 173 0 min 0,000 mm 0,0 UV-I 0 W/m 13,3 C 15,6 C 1,6 km/h (1 Bft) 100,00 %
04.06.2016 22:12 15,6 C 86 % 1011,5 hPa 0,0 l/m 0,9 km/h (0 Bft) S 173 0 min 0,000 mm 0,0 UV-I 0 W/m 13,3 C 15,6 C 3,2 km/h (1 Bft) 100,00 %
04.06.2016 22:13 15,6 C 86 % 1011,6 hPa 0,0 l/m 0,6 km/h (0 Bft) S 173 0 min 0,000 mm 0,0 UV-I 0 W/m 13,3 C 15,6 C 1,6 km/h (1 Bft) 100,00 %
04.06.2016 22:14 15,5 C 86 % 1011,5 hPa 0,0 l/m 1,1 km/h (1 Bft) S 173 0 min 0,000 mm 0,0 UV-I 0 W/m 13,2 C 15,5 C 1,6 km/h (1 Bft) 95,65 %
04.06.2016 22:15 15,5 C 86 % 1011,6 hPa 0,0 l/m 1,4 km/h (1 Bft) S 173 0 min 0,000 mm 0,0 UV-I 0 W/m 13,2 C 15,5 C 4,8 km/h (1 Bft) 100,00 %
04.06.2016 22:16 15,5 C 86 % 1011,5 hPa 0,0 l/m 2,1 km/h (1 Bft) S 173 0 min 0,000 mm 0,0 UV-I 0 W/m 13,2 C 15,5 C 3,2 km/h (1 Bft) 92,31 %
04.06.2016 22:17 15,5 C 85 % 1011,6 hPa 0,0 l/m 2,0 km/h (1 Bft) S 173 0 min 0,000 mm 0,0 UV-I 0 W/m 13,0 C 15,5 C 3,2 km/h (1 Bft) 100,00 %
04.06.2016 22:18 15,5 C 85 % 1011,6 hPa 0,0 l/m 1,5 km/h (1 Bft) S 173 0 min 0,000 mm 0,0 UV-I 0 W/m 13,0 C 15,5 C 3,2 km/h (1 Bft) 95,65 %
04.06.2016 22:19 15,6 C 85 % 1011,6 hPa 0,0 l/m 2,5 km/h (1 Bft) S 173 0 min 0,000 mm 0,0 UV-I 0 W/m 13,1 C 15,6 C 4,8 km/h (1 Bft) 100,00 %
04.06.2016 22:20 15,6 C 86 % 1011,6 hPa 0,0 l/m 3,2 km/h (1 Bft) S 173 0 min 0,000 mm 0,0 UV-I 0 W/m 13,3 C 15,6 C 4,8 km/h (1 Bft) 100,00 %
04.06.2016 22:21 15,6 C 85 % 1011,6 hPa 0,0 l/m 2,4 km/h (1 Bft) S 173 0 min 0,000 mm 0,0 UV-I 0 W/m 13,1 C 15,6 C 3,2 km/h (1 Bft) 100,00 %
04.06.2016 22:22 15,6 C 85 % 1011,6 hPa 0,0 l/m 3,0 km/h (1 Bft) S 173 0 min 0,000 mm 0,0 UV-I 0 W/m 13,1 C 15,6 C 3,2 km/h (1 Bft) 100,00 %
04.06.2016 22:23 15,7 C 85 % 1011,6 hPa 0,0 l/m 2,0 km/h (1 Bft) S 173 0 min 0,000 mm 0,0 UV-I 0 W/m 13,2 C 15,7 C 3,2 km/h (1 Bft) 95,65 %
04.06.2016 22:24 15,7 C 86 % 1011,6 hPa 0,0 l/m 2,3 km/h (1 Bft) S 173 0 min 0,000 mm 0,0 UV-I 0 W/m 13,4 C 15,7 C 3,2 km/h (1 Bft) 100,00 %
04.06.2016 22:25 15,7 C 86 % 1011,6 hPa 0,0 l/m 2,7 km/h (1 Bft) S 173 0 min 0,000 mm 0,0 UV-I 0 W/m 13,4 C 15,7 C 3,2 km/h (1 Bft) 100,00 %
04.06.2016 22:26 15,7 C 86 % 1011,6 hPa 0,0 l/m 2,2 km/h (1 Bft) S 173 0 min 0,000 mm 0,0 UV-I 0 W/m 13,4 C 15,7 C 3,2 km/h (1 Bft) 100,00 %
04.06.2016 22:27 15,6 C 86 % 1011,6 hPa 0,0 l/m 2,3 km/h (1 Bft) S 173 0 min 0,000 mm 0,0 UV-I 0 W/m 13,3 C 15,6 C 3,2 km/h (1 Bft) 95,65 %
04.06.2016 22:28 15,6 C 86 % 1011,6 hPa 0,0 l/m 2,1 km/h (1 Bft) S 173 0 min 0,000 mm 0,0 UV-I 0 W/m 13,3 C 15,6 C 3,2 km/h (1 Bft) 100,00 %
04.06.2016 22:29 15,5 C 86 % 1011,6 hPa 0,0 l/m 2,6 km/h (1 Bft) S 173 0 min 0,000 mm 0,0 UV-I 0 W/m 13,2 C 15,5 C 3,2 km/h (1 Bft) 95,65 %
04.06.2016 22:30 15,4 C 87 % 1011,6 hPa 0,0 l/m 2,3 km/h (1 Bft) S 173 0 min 0,000 mm 0,0 UV-I 0 W/m 13,2 C 15,4 C 3,2 km/h (1 Bft) 100,00 %
04.06.2016 22:31 15,4 C 87 % 1011,6 hPa 0,0 l/m 2,5 km/h (1 Bft) S 173 0 min 0,000 mm 0,0 UV-I 0 W/m 13,2 C 15,4 C 3,2 km/h (1 Bft) 100,00 %
04.06.2016 22:32 15,4 C 87 % 1011,6 hPa 0,0 l/m 1,9 km/h (1 Bft) S 173 0 min 0,000 mm 0,0 UV-I 0 W/m 13,2 C 15,4 C 3,2 km/h (1 Bft) 100,00 %
04.06.2016 22:33 15,3 C 87 % 1011,7 hPa 0,0 l/m 1,3 km/h (1 Bft) S 173 0 min 0,000 mm 0,0 UV-I 0 W/m 13,1 C 15,3 C 3,2 km/h (1 Bft) 100,00 %
04.06.2016 22:34 15,3 C 87 % 1011,6 hPa 0,0 l/m 0,5 km/h (0 Bft) S 173 0 min 0,000 mm 0,0 UV-I 0 W/m 13,1 C 15,3 C 1,6 km/h (1 Bft) 100,00 %
04.06.2016 22:35 15,3 C 87 % 1011,7 hPa 0,0 l/m 0,1 km/h (0 Bft) S 173 0 min 0,000 mm 0,0 UV-I 0 W/m 13,1 C 15,3 C 1,6 km/h (1 Bft) 95,83 %
04.06.2016 22:36 15,3 C 87 % 1011,8 hPa 0,0 l/m 0,3 km/h (0 Bft) S 173 0 min 0,000 mm 0,0 UV-I 0 W/m 13,1 C 15,3 C 1,6 km/h (1 Bft) 100,00 %
04.06.2016 22:37 15,4 C 87 % 1011,7 hPa 0,0 l/m 0,9 km/h (0 Bft) S 173 0 min 0,000 mm 0,0 UV-I 0 W/m 13,2 C 15,4 C 3,2 km/h (1 Bft) 100,00 %
04.06.2016 22:38 15,4 C 87 % 1011,8 hPa 0,0 l/m 1,9 km/h (1 Bft) S 173 0 min 0,000 mm 0,0 UV-I 0 W/m 13,2 C 15,4 C 3,2 km/h (1 Bft) 100,00 %
04.06.2016 22:40 15,4 C 86 % 1011,8 hPa 0,0 l/m 1,7 km/h (1 Bft) S 173 0 min 0,000 mm 0,0 UV-I 0 W/m 13,1 C 15,4 C 3,2 km/h (1 Bft) 100,00 %
04.06.2016 22:41 15,4 C 86 % 1011,8 hPa 0,0 l/m 2,8 km/h (1 Bft) S 173 0 min 0,000 mm 0,0 UV-I 0 W/m 13,1 C 15,4 C 4,8 km/h (1 Bft) 100,00 %
04.06.2016 22:42 15,4 C 86 % 1011,8 hPa 0,0 l/m 3,8 km/h (1 Bft) S 173 0 min 0,000 mm 0,0 UV-I 0 W/m 13,1 C 15,4 C 8,0 km/h (2 Bft) 100,00 %
04.06.2016 22:43 15,4 C 86 % 1011,8 hPa 0,0 l/m 4,0 km/h (1 Bft) S 173 0 min 0,000 mm 0,0 UV-I 0 W/m 13,1 C 15,4 C 8,0 km/h (2 Bft) 95,65 %
04.06.2016 22:44 15,5 C 85 % 1011,8 hPa 0,0 l/m 4,0 km/h (1 Bft) S 173 0 min 0,000 mm 0,0 UV-I 0 W/m 13,0 C 15,5 C 8,0 km/h (2 Bft) 100,00 %
04.06.2016 22:45 15,6 C 85 % 1011,8 hPa 0,0 l/m 4,5 km/h (1 Bft) S 173 0 min 0,000 mm 0,0 UV-I 0 W/m 13,1 C 15,6 C 8,0 km/h (2 Bft) 86,96 %
04.06.2016 22:46 15,6 C 85 % 1011,8 hPa 0,0 l/m 4,6 km/h (1 Bft) S 173 0 min 0,000 mm 0,0 UV-I 0 W/m 13,1 C 15,6 C 8,0 km/h (2 Bft) 100,00 %
04.06.2016 22:47 15,6 C 85 % 1011,8 hPa 0,0 l/m 3,2 km/h (1 Bft) S 173 0 min 0,000 mm 0,0 UV-I 0 W/m 13,1 C 15,6 C 4,8 km/h (1 Bft) 95,65 %
04.06.2016 22:48 15,7 C 85 % 1011,8 hPa 0,0 l/m 3,7 km/h (1 Bft) S 175 0 min 0,000 mm 0,0 UV-I 0 W/m 13,2 C 15,7 C 6,4 km/h (2 Bft) 100,00 %
04.06.2016 22:49 15,7 C 85 % 1011,8 hPa 0,0 l/m 4,3 km/h (1 Bft) S 175 0 min 0,000 mm 0,0 UV-I 0 W/m 13,2 C 15,7 C 6,4 km/h (2 Bft) 100,00 %
04.06.2016 22:50 15,7 C 85 % 1011,8 hPa 0,0 l/m 4,6 km/h (1 Bft) S 179 0 min 0,000 mm 0,0 UV-I 0 W/m 13,2 C 15,7 C 6,4 km/h (2 Bft) 100,00 %
04.06.2016 22:51 15,8 C 85 % 1011,8 hPa 0,0 l/m 4,5 km/h (1 Bft) S 179 0 min 0,000 mm 0,0 UV-I 0 W/m 13,3 C 15,8 C 6,4 km/h (2 Bft) 95,65 %
04.06.2016 22:52 15,8 C 85 % 1011,8 hPa 0,0 l/m 3,2 km/h (1 Bft) S 180 0 min 0,000 mm 0,0 UV-I 0 W/m 13,3 C 15,8 C 6,4 km/h (2 Bft) 95,83 %
04.06.2016 22:53 15,8 C 85 % 1011,8 hPa 0,0 l/m 3,6 km/h (1 Bft) S 180 0 min 0,000 mm 0,0 UV-I 0 W/m 13,3 C 15,8 C 4,8 km/h (1 Bft) 100,00 %
04.06.2016 22:54 15,8 C 85 % 1011,8 hPa 0,0 l/m 4,0 km/h (1 Bft) S 180 0 min 0,000 mm 0,0 UV-I 0 W/m 13,3 C 15,8 C 4,8 km/h (1 Bft) 92,59 %
04.06.2016 22:55 15,9 C 85 % 1011,8 hPa 0,0 l/m 4,5 km/h (1 Bft) S 180 0 min 0,000 mm 0,0 UV-I 0 W/m 13,4 C 15,9 C 6,4 km/h (2 Bft) 95,65 %
04.06.2016 22:56 15,9 C 85 % 1011,8 hPa 0,0 l/m 5,0 km/h (1 Bft) S 179 0 min 0,000 mm 0,0 UV-I 0 W/m 13,4 C 15,9 C 6,4 km/h (2 Bft) 100,00 %
04.06.2016 22:57 15,9 C 85 % 1011,8 hPa 0,0 l/m 4,4 km/h (1 Bft) S 180 0 min 0,000 mm 0,0 UV-I 0 W/m 13,4 C 15,9 C 6,4 km/h (2 Bft) 95,83 %
04.06.2016 22:58 15,9 C 85 % 1011,8 hPa 0,0 l/m 4,4 km/h (1 Bft) S 180 0 min 0,000 mm 0,0 UV-I 0 W/m 13,4 C 15,9 C 6,4 km/h (2 Bft) 100,00 %
04.06.2016 22:59 15,9 C 85 % 1011,8 hPa 0,0 l/m 4,2 km/h (1 Bft) S 180 0 min 0,000 mm 0,0 UV-I 0 W/m 13,4 C 15,9 C 4,8 km/h (1 Bft) 100,00 %
04.06.2016 23:00 15,9 C 85 % 1011,8 hPa 0,0 l/m 4,2 km/h (1 Bft) S 180 0 min 0,000 mm 0,0 UV-I 0 W/m 13,4 C 15,9 C 4,8 km/h (1 Bft) 100,00 %
04.06.2016 23:01 15,9 C 85 % 1011,8 hPa 0,0 l/m 4,6 km/h (1 Bft) S 180 0 min 0,000 mm 0,0 UV-I 0 W/m 13,4 C 15,9 C 6,4 km/h (2 Bft) 95,83 %
04.06.2016 23:02 15,9 C 86 % 1011,8 hPa 0,0 l/m 3,8 km/h (1 Bft) S 180 0 min 0,000 mm 0,0 UV-I 0 W/m 13,6 C 15,9 C 4,8 km/h (1 Bft) 95,65 %
04.06.2016 23:03 15,9 C 86 % 1011,8 hPa 0,0 l/m 3,3 km/h (1 Bft) S 180 0 min 0,000 mm 0,0 UV-I 0 W/m 13,6 C 15,9 C 4,8 km/h (1 Bft) 100,00 %
04.06.2016 23:04 15,9 C 86 % 1011,8 hPa 0,0 l/m 3,8 km/h (1 Bft) S 180 0 min 0,000 mm 0,0 UV-I 0 W/m 13,6 C 15,9 C 4,8 km/h (1 Bft) 95,65 %
04.06.2016 23:05 15,9 C 87 % 1011,8 hPa 0,0 l/m 4,6 km/h (1 Bft) S 180 0 min 0,000 mm 0,0 UV-I 0 W/m 13,7 C 15,9 C 4,8 km/h (1 Bft) 100,00 %
04.06.2016 23:06 15,9 C 87 % 1011,8 hPa 0,0 l/m 4,7 km/h (1 Bft) S 179 0 min 0,000 mm 0,0 UV-I 0 W/m 13,7 C 15,9 C 6,4 km/h (2 Bft) 95,65 %
04.06.2016 23:07 15,9 C 87 % 1011,8 hPa 0,0 l/m 5,2 km/h (1 Bft) S 179 0 min 0,000 mm 0,0 UV-I 0 W/m 13,7 C 15,9 C 6,4 km/h (2 Bft) 95,83 %
04.06.2016 23:08 15,9 C 87 % 1011,8 hPa 0,0 l/m 4,8 km/h (1 Bft) S 178 0 min 0,000 mm 0,0 UV-I 0 W/m 13,7 C 15,9 C 6,4 km/h (2 Bft) 95,65 %
04.06.2016 23:09 15,8 C 87 % 1011,8 hPa 0,0 l/m 4,3 km/h (1 Bft) S 178 0 min 0,000 mm 0,0 UV-I 0 W/m 13,6 C 15,8 C 4,8 km/h (1 Bft) 100,00 %
04.06.2016 23:10 15,9 C 87 % 1011,8 hPa 0,0 l/m 4,0 km/h (1 Bft) S 178 0 min 0,000 mm 0,0 UV-I 0 W/m 13,7 C 15,9 C 4,8 km/h (1 Bft) 95,65 %
04.06.2016 23:11 15,9 C 87 % 1011,8 hPa 0,0 l/m 4,6 km/h (1 Bft) S 178 0 min 0,000 mm 0,0 UV-I 0 W/m 13,7 C 15,9 C 6,4 km/h (2 Bft) 95,83 %
04.06.2016 23:12 15,9 C 87 % 1011,8 hPa 0,0 l/m 4,2 km/h (1 Bft) S 178 0 min 0,000 mm 0,0 UV-I 0 W/m 13,7 C 15,9 C 4,8 km/h (1 Bft) 100,00 %
04.06.2016 23:13 15,9 C 87 % 1011,8 hPa 0,0 l/m 4,6 km/h (1 Bft) S 175 0 min 0,000 mm 0,0 UV-I 0 W/m 13,7 C 15,9 C 6,4 km/h (2 Bft) 95,65 %
04.06.2016 23:14 15,9 C 86 % 1011,8 hPa 0,0 l/m 4,3 km/h (1 Bft) S 175 0 min 0,000 mm 0,0 UV-I 0 W/m 13,6 C 15,9 C 6,4 km/h (2 Bft) 100,00 %
04.06.2016 23:15 15,9 C 87 % 1011,8 hPa 0,0 l/m 3,3 km/h (1 Bft) S 175 0 min 0,000 mm 0,0 UV-I 0 W/m 13,7 C 15,9 C 6,4 km/h (2 Bft) 92,31 %
04.06.2016 23:16 15,9 C 86 % 1011,8 hPa 0,0 l/m 4,0 km/h (1 Bft) S 175 0 min 0,000 mm 0,0 UV-I 0 W/m 13,6 C 15,9 C 8,0 km/h (2 Bft) 100,00 %
04.06.2016 23:17 15,9 C 86 % 1011,8 hPa 0,0 l/m 3,0 km/h (1 Bft) S 175 0 min 0,000 mm 0,0 UV-I 0 W/m 13,6 C 15,9 C 4,8 km/h (1 Bft) 95,65 %
04.06.2016 23:18 15,9 C 86 % 1011,8 hPa 0,0 l/m 4,1 km/h (1 Bft) S 175 0 min 0,000 mm 0,0 UV-I 0 W/m 13,6 C 15,9 C 4,8 km/h (1 Bft) 95,83 %
04.06.2016 23:19 15,9 C 86 % 1011,7 hPa 0,0 l/m 4,6 km/h (1 Bft) S 175 0 min 0,000 mm 0,0 UV-I 0 W/m 13,6 C 15,9 C 4,8 km/h (1 Bft) 100,00 %
04.06.2016 23:20 15,9 C 86 % 1011,7 hPa 0,0 l/m 3,8 km/h (1 Bft) S 175 0 min 0,000 mm 0,0 UV-I 0 W/m 13,6 C 15,9 C 6,4 km/h (2 Bft) 95,83 %
04.06.2016 23:21 15,9 C 86 % 1011,7 hPa 0,0 l/m 4,0 km/h (1 Bft) S 176 0 min 0,000 mm 0,0 UV-I 0 W/m 13,6 C 15,9 C 6,4 km/h (2 Bft) 100,00 %
04.06.2016 23:22 15,9 C 86 % 1011,7 hPa 0,0 l/m 4,9 km/h (1 Bft) S 178 0 min 0,000 mm 0,0 UV-I 0 W/m 13,6 C 15,9 C 6,4 km/h (2 Bft) 95,83 %
04.06.2016 23:23 15,9 C 86 % 1011,7 hPa 0,0 l/m 4,6 km/h (1 Bft) S 178 0 min 0,000 mm 0,0 UV-I 0 W/m 13,6 C 15,9 C 6,4 km/h (2 Bft) 100,00 %
04.06.2016 23:24 15,9 C 86 % 1011,8 hPa 0,0 l/m 4,7 km/h (1 Bft) S 180 0 min 0,000 mm 0,0 UV-I 0 W/m 13,6 C 15,9 C 6,4 km/h (2 Bft) 95,83 %
04.06.2016 23:25 15,8 C 86 % 1011,7 hPa 0,0 l/m 4,4 km/h (1 Bft) S 181 0 min 0,000 mm 0,0 UV-I 0 W/m 13,5 C 15,8 C 6,4 km/h (2 Bft) 95,65 %
04.06.2016 23:26 15,8 C 87 % 1011,7 hPa 0,0 l/m 5,7 km/h (1 Bft) S 179 0 min 0,000 mm 0,0 UV-I 0 W/m 13,6 C 15,8 C 8,0 km/h (2 Bft) 95,83 %
04.06.2016 23:27 15,8 C 87 % 1011,7 hPa 0,0 l/m 4,6 km/h (1 Bft) S 178 0 min 0,000 mm 0,0 UV-I 0 W/m 13,6 C 15,8 C 6,4 km/h (2 Bft) 95,65 %
04.06.2016 23:28 15,8 C 87 % 1011,7 hPa 0,0 l/m 5,6 km/h (1 Bft) S 182 0 min 0,000 mm 0,0 UV-I 0 W/m 13,6 C 15,8 C 8,0 km/h (2 Bft) 100,00 %
04.06.2016 23:29 15,8 C 87 % 1011,8 hPa 0,0 l/m 6,6 km/h (2 Bft) S 186 0 min 0,000 mm 0,0 UV-I 0 W/m 13,6 C 15,7 C 8,0 km/h (2 Bft) 95,65 %
04.06.2016 23:30 15,8 C 87 % 1011,8 hPa 0,0 l/m 6,6 km/h (2 Bft) S 178 0 min 0,000 mm 0,0 UV-I 0 W/m 13,6 C 15,7 C 8,0 km/h (2 Bft) 100,00 %
04.06.2016 23:31 15,7 C 87 % 1011,8 hPa 0,0 l/m 7,9 km/h (2 Bft) S-SW 213 0 min 0,000 mm 0,0 UV-I 0 W/m 13,5 C 14,9 C 11,3 km/h (2 Bft) 92,86 %
04.06.2016 23:32 15,7 C 86 % 1011,8 hPa 0,0 l/m 9,0 km/h (2 Bft) S-SW 199 0 min 0,000 mm 0,0 UV-I 0 W/m 13,4 C 14,3 C 12,9 km/h (3 Bft) 100,00 %
04.06.2016 23:35 15,7 C 86 % 1011,9 hPa 0,0 l/m 6,4 km/h (2 Bft) S 180 0 min 0,000 mm 0,0 UV-I 0 W/m 13,4 C 15,7 C 12,9 km/h (3 Bft) 100,00 %
04.06.2016 23:36 15,7 C 86 % 1011,9 hPa 0,0 l/m 7,6 km/h (2 Bft) S 184 0 min 0,000 mm 0,0 UV-I 0 W/m 13,4 C 15,0 C 8,0 km/h (2 Bft) 97,89 %
04.06.2016 23:37 15,7 C 86 % 1011,9 hPa 0,0 l/m 6,4 km/h (2 Bft) S-SW 204 0 min 0,000 mm 0,0 UV-I 0 W/m 13,4 C 15,7 C 8,0 km/h (2 Bft) 96,43 %
04.06.2016 23:38 15,7 C 86 % 1011,9 hPa 0,0 l/m 5,4 km/h (1 Bft) S-SW 212 0 min 0,000 mm 0,0 UV-I 0 W/m 13,4 C 15,7 C 8,0 km/h (2 Bft) 100,00 %
04.06.2016 23:39 15,7 C 86 % 1011,9 hPa 0,0 l/m 6,8 km/h (2 Bft) S-SW 200 0 min 0,000 mm 0,0 UV-I 0 W/m 13,4 C 15,5 C 9,7 km/h (2 Bft) 100,00 %
04.06.2016 23:40 15,7 C 86 % 1012,0 hPa 0,0 l/m 5,6 km/h (1 Bft) S-SW 193 0 min 0,000 mm 0,0 UV-I 0 W/m 13,4 C 15,7 C 8,0 km/h (2 Bft) 100,00 %
04.06.2016 23:41 15,7 C 86 % 1011,9 hPa 0,0 l/m 7,8 km/h (2 Bft) S 189 0 min 0,000 mm 0,0 UV-I 0 W/m 13,4 C 14,9 C 9,7 km/h (2 Bft) 100,00 %
04.06.2016 23:42 15,7 C 86 % 1012,0 hPa 0,0 l/m 7,8 km/h (2 Bft) S-SW 194 0 min 0,000 mm 0,0 UV-I 0 W/m 13,4 C 14,9 C 9,7 km/h (2 Bft) 100,00 %
04.06.2016 23:44 15,7 C 86 % 1011,9 hPa 0,0 l/m 6,7 km/h (2 Bft) S-SO 167 0 min 0,000 mm 0,0 UV-I 0 W/m 13,4 C 15,5 C 11,3 km/h (2 Bft) 100,00 %
04.06.2016 23:46 15,7 C 86 % 1011,9 hPa 0,0 l/m 7,4 km/h (2 Bft) S-SW 196 0 min 0,000 mm 0,0 UV-I 0 W/m 13,4 C 15,2 C 9,7 km/h (2 Bft) 94,23 %
04.06.2016 23:47 15,7 C 86 % 1011,9 hPa 0,0 l/m 5,1 km/h (1 Bft) S 188 0 min 0,000 mm 0,0 UV-I 0 W/m 13,4 C 15,7 C 8,0 km/h (2 Bft) 100,00 %
04.06.2016 23:48 15,7 C 86 % 1011,9 hPa 0,0 l/m 6,9 km/h (2 Bft) S 176 0 min 0,000 mm 0,0 UV-I 0 W/m 13,4 C 15,4 C 11,3 km/h (2 Bft) 100,00 %
04.06.2016 23:49 15,7 C 86 % 1012,0 hPa 0,0 l/m 7,9 km/h (2 Bft) S-SW 195 0 min 0,000 mm 0,0 UV-I 0 W/m 13,4 C 14,9 C 9,7 km/h (2 Bft) 100,00 %
04.06.2016 23:50 15,7 C 86 % 1012,0 hPa 0,0 l/m 7,3 km/h (2 Bft) S-SW 198 0 min 0,000 mm 0,0 UV-I 0 W/m 13,4 C 15,2 C 9,7 km/h (2 Bft) 96,30 %
04.06.2016 23:51 15,7 C 86 % 1012,0 hPa 0,0 l/m 7,2 km/h (2 Bft) S-SW 192 0 min 0,000 mm 0,0 UV-I 0 W/m 13,4 C 15,3 C 9,7 km/h (2 Bft) 95,65 %
04.06.2016 23:52 15,7 C 86 % 1012,0 hPa 0,0 l/m 4,9 km/h (1 Bft) S-SW 194 0 min 0,000 mm 0,0 UV-I 0 W/m 13,4 C 15,7 C 6,4 km/h (2 Bft) 100,00 %
04.06.2016 23:53 15,7 C 86 % 1011,9 hPa 0,0 l/m 6,9 km/h (2 Bft) S 180 0 min 0,000 mm 0,0 UV-I 0 W/m 13,4 C 15,4 C 9,7 km/h (2 Bft) 100,00 %
04.06.2016 23:54 15,7 C 87 % 1011,9 hPa 0,0 l/m 6,7 km/h (2 Bft) S 178 0 min 0,000 mm 0,0 UV-I 0 W/m 13,5 C 15,5 C 8,0 km/h (2 Bft) 100,00 %
04.06.2016 23:55 15,7 C 87 % 1011,9 hPa 0,0 l/m 6,8 km/h (2 Bft) S 171 0 min 0,000 mm 0,0 UV-I 0 W/m 13,5 C 15,5 C 8,0 km/h (2 Bft) 92,31 %
04.06.2016 23:56 15,7 C 87 % 1012,0 hPa 0,0 l/m 7,4 km/h (2 Bft) S 190 0 min 0,000 mm 0,0 UV-I 0 W/m 13,5 C 15,2 C 9,7 km/h (2 Bft) 100,00 %
04.06.2016 23:57 15,7 C 87 % 1012,0 hPa 0,0 l/m 5,4 km/h (1 Bft) S 184 0 min 0,000 mm 0,0 UV-I 0 W/m 13,5 C 15,7 C 6,4 km/h (2 Bft) 100,00 %
04.06.2016 23:58 15,7 C 87 % 1011,9 hPa 0,0 l/m 5,1 km/h (1 Bft) SW 223 0 min 0,000 mm 0,0 UV-I 0 W/m 13,5 C 15,7 C 6,4 km/h (2 Bft) 100,00 %
04.06.2016 23:59 15,7 C 87 % 1011,9 hPa 0,0 l/m 6,1 km/h (2 Bft) S 188 0 min 0,000 mm 0,0 UV-I 0 W/m 13,5 C 15,7 C 8,0 km/h (2 Bft) 100,00 %
_ Min-Zeit 03:36 14:56 00:57 - 05:51 - - - - - - 03:27 04:01 05:51 10:02
Minimum _ 13,1 C 51 % 1009,2 hPa - 0,0 km/h (0 Bft) - - - - - - 12,3 C 13,1 C 0,0 km/h (0 Bft) 78,26 %
_ Max-Zeit 15:11 03:37 23:40 00:00 16:31 - - 06:34 13:00 12:19 12:24 12:38 15:11 16:26 00:03
Maximum _ 23,8 C 95 % 1012,0 hPa 0,0 l/m 16,3 km/h
O-SO (3 Bft)
- - 1 min 0,610 mm 7,5 UV-I 1153 W/m 17,1 C 23,8 C 20,9 km/h
O (4 Bft)
100,00 %
Durchschnitt _ 17,5 C 81 % 1010,1 hPa #0,0 l/m 3,5 km/h (1 Bft) S - #7:09 h #3,683 mm 3,7 UV-I 373 W/m 13,9 C 17,5 C 5,5 km/h (1 Bft) 98,48 %